<?xml version='1.0' encoding='UTF-8'?><gpx version="1.1" creator="JPX - https://github.com/jenetics/jpx" xmlns="http://www.topografix.com/GPX/1/1"><trk><trkseg><trkpt lat="45.54419053916632" lon="11.88018585958674"><ele>20.0</ele><time>2026-04-10T09:38:01Z</time></trkpt><trkpt lat="45.54411640462499" lon="11.88016381744299"><ele>20.0</ele><time>2026-04-10T09:38:03Z</time></trkpt><trkpt lat="45.54404075306071" lon="11.88014435289717"><ele>20.0</ele><time>2026-04-10T09:38:05Z</time></trkpt><trkpt lat="45.54400888302886" lon="11.880049060109064"><ele>20.0</ele><time>2026-04-10T09:38:07Z</time></trkpt><trkpt lat="45.544016080794805" lon="11.879917382711847"><ele>20.0</ele><time>2026-04-10T09:38:09Z</time></trkpt><trkpt lat="45.5440426623118" lon="11.879835262876263"><ele>20.0</ele><time>2026-04-10T09:38:10Z</time></trkpt><trkpt lat="45.54407548358223" lon="11.879670322456947"><ele>20.2</ele><time>2026-04-10T09:38:12Z</time></trkpt><trkpt lat="45.544105918535735" lon="11.879535126442294"><ele>20.4</ele><time>2026-04-10T09:38:14Z</time></trkpt><trkpt lat="45.5441299868808" lon="11.879407585815375"><ele>20.6</ele><time>2026-04-10T09:38:16Z</time></trkpt><trkpt lat="45.544168738669086" lon="11.879279374533908"><ele>20.8</ele><time>2026-04-10T09:38:18Z</time></trkpt><trkpt lat="45.54418182266775" lon="11.879129522077587"><ele>21.0</ele><time>2026-04-10T09:38:20Z</time></trkpt><trkpt lat="45.54421643190288" lon="11.878979121940558"><ele>21.200000000000003</ele><time>2026-04-10T09:38:22Z</time></trkpt><trkpt lat="45.54423764789051" lon="11.878827883398674"><ele>21.400000000000002</ele><time>2026-04-10T09:38:24Z</time></trkpt><trkpt lat="45.54426426932114" lon="11.878676551397819"><ele>21.6</ele><time>2026-04-10T09:38:26Z</time></trkpt><trkpt lat="45.54427088005569" lon="11.878585884018696"><ele>21.8</ele><time>2026-04-10T09:38:28Z</time></trkpt><trkpt lat="45.54434251743157" lon="11.878548143598492"><ele>22.0</ele><time>2026-04-10T09:38:30Z</time></trkpt><trkpt lat="45.54443711603772" lon="11.878598646566214"><ele>22.0</ele><time>2026-04-10T09:38:32Z</time></trkpt><trkpt lat="45.54453943908327" lon="11.878632203522537"><ele>22.0</ele><time>2026-04-10T09:38:34Z</time></trkpt><trkpt lat="45.544647922802106" lon="11.878676697149812"><ele>22.0</ele><time>2026-04-10T09:38:36Z</time></trkpt><trkpt lat="45.54475482625479" lon="11.878719857488523"><ele>22.0</ele><time>2026-04-10T09:38:38Z</time></trkpt><trkpt lat="45.54486382288879" lon="11.878768938822201"><ele>22.0</ele><time>2026-04-10T09:38:40Z</time></trkpt><trkpt lat="45.54497578260804" lon="11.87880766947725"><ele>22.0</ele><time>2026-04-10T09:38:42Z</time></trkpt><trkpt lat="45.54507454671036" lon="11.87885189426398"><ele>22.0</ele><time>2026-04-10T09:38:44Z</time></trkpt><trkpt lat="45.54517889313279" lon="11.878896064345259"><ele>22.0</ele><time>2026-04-10T09:38:46Z</time></trkpt><trkpt lat="45.54529235015258" lon="11.878938603296568"><ele>22.0</ele><time>2026-04-10T09:38:48Z</time></trkpt><trkpt lat="45.54540398515937" lon="11.878973526003922"><ele>22.0</ele><time>2026-04-10T09:38:50Z</time></trkpt><trkpt lat="45.5455197312547" lon="11.879014709381991"><ele>22.0</ele><time>2026-04-10T09:38:52Z</time></trkpt><trkpt lat="45.54563589472453" lon="11.879066228381388"><ele>22.0</ele><time>2026-04-10T09:38:54Z</time></trkpt><trkpt lat="45.545757101571134" lon="11.879115037931017"><ele>22.0</ele><time>2026-04-10T09:38:56Z</time></trkpt><trkpt lat="45.54587879226936" lon="11.87915878647927"><ele>22.0</ele><time>2026-04-10T09:38:58Z</time></trkpt><trkpt lat="45.545996219108915" lon="11.87921138853297"><ele>22.0</ele><time>2026-04-10T09:39:00Z</time></trkpt><trkpt lat="45.546061399172885" lon="11.879230736660114"><ele>22.0</ele><time>2026-04-10T09:39:01Z</time></trkpt><trkpt lat="45.5461233641126" lon="11.879255941604592"><ele>22.0</ele><time>2026-04-10T09:39:02Z</time></trkpt><trkpt lat="45.54623441364363" lon="11.879302631548383"><ele>22.0</ele><time>2026-04-10T09:39:04Z</time></trkpt><trkpt lat="45.5463510970505" lon="11.879350051355257"><ele>22.0</ele><time>2026-04-10T09:39:06Z</time></trkpt><trkpt lat="45.546463278789275" lon="11.879388159191953"><ele>21.25</ele><time>2026-04-10T09:39:08Z</time></trkpt><trkpt lat="45.54656990630872" lon="11.879428122080595"><ele>20.5</ele><time>2026-04-10T09:39:10Z</time></trkpt><trkpt lat="45.546682010077504" lon="11.879477286718384"><ele>19.75</ele><time>2026-04-10T09:39:12Z</time></trkpt><trkpt lat="45.54680236607089" lon="11.879516669689115"><ele>19.0</ele><time>2026-04-10T09:39:14Z</time></trkpt><trkpt lat="45.546920961781375" lon="11.879569154019503"><ele>19.0</ele><time>2026-04-10T09:39:16Z</time></trkpt><trkpt lat="45.546982288429284" lon="11.879591295614906"><ele>19.0</ele><time>2026-04-10T09:39:17Z</time></trkpt><trkpt lat="45.547101441057634" lon="11.879636652466118"><ele>19.0</ele><time>2026-04-10T09:39:19Z</time></trkpt><trkpt lat="45.5471643187211" lon="11.879657974690202"><ele>19.0</ele><time>2026-04-10T09:39:20Z</time></trkpt><trkpt lat="45.547227075436176" lon="11.879677014348438"><ele>19.0</ele><time>2026-04-10T09:39:21Z</time></trkpt><trkpt lat="45.54734630852534" lon="11.87973239512564"><ele>19.0</ele><time>2026-04-10T09:39:23Z</time></trkpt><trkpt lat="45.54740823082258" lon="11.879754230013585"><ele>19.285714285714285</ele><time>2026-04-10T09:39:24Z</time></trkpt><trkpt lat="45.54746893473416" lon="11.879779148977487"><ele>19.571428571428573</ele><time>2026-04-10T09:39:25Z</time></trkpt><trkpt lat="45.54753061891273" lon="11.879804988759279"><ele>19.857142857142858</ele><time>2026-04-10T09:39:26Z</time></trkpt><trkpt lat="45.5475920496648" lon="11.879828749216681"><ele>20.142857142857142</ele><time>2026-04-10T09:39:27Z</time></trkpt><trkpt lat="45.547653344329284" lon="11.879851931553906"><ele>20.42857142857143</ele><time>2026-04-10T09:39:28Z</time></trkpt><trkpt lat="45.54771415277473" lon="11.879880324259377"><ele>20.714285714285715</ele><time>2026-04-10T09:39:29Z</time></trkpt><trkpt lat="45.547775783894515" lon="11.879905298773734"><ele>21.0</ele><time>2026-04-10T09:39:30Z</time></trkpt><trkpt lat="45.54789642267426" lon="11.879960015355886"><ele>21.0</ele><time>2026-04-10T09:39:32Z</time></trkpt><trkpt lat="45.54801871782517" lon="11.880014140652703"><ele>21.0</ele><time>2026-04-10T09:39:34Z</time></trkpt><trkpt lat="45.54807947623101" lon="11.880040362308549"><ele>21.0</ele><time>2026-04-10T09:39:35Z</time></trkpt><trkpt lat="45.54813841332082" lon="11.880072126682814"><ele>21.0</ele><time>2026-04-10T09:39:36Z</time></trkpt><trkpt lat="45.54825834212683" lon="11.880124591157333"><ele>21.0</ele><time>2026-04-10T09:39:38Z</time></trkpt><trkpt lat="45.548368508925776" lon="11.880176030979847"><ele>21.0</ele><time>2026-04-10T09:39:40Z</time></trkpt><trkpt lat="45.54848387762007" lon="11.880232940943161"><ele>21.0</ele><time>2026-04-10T09:39:42Z</time></trkpt><trkpt lat="45.54859902075755" lon="11.880282831817766"><ele>21.0</ele><time>2026-04-10T09:39:44Z</time></trkpt><trkpt lat="45.54866137201297" lon="11.880308717584978"><ele>21.0</ele><time>2026-04-10T09:39:45Z</time></trkpt><trkpt lat="45.548780257474256" lon="11.880356199886084"><ele>21.0</ele><time>2026-04-10T09:39:47Z</time></trkpt><trkpt lat="45.548900211426606" lon="11.88040447685218"><ele>21.166666666666668</ele><time>2026-04-10T09:39:49Z</time></trkpt><trkpt lat="45.548961501295615" lon="11.880427317298606"><ele>21.333333333333332</ele><time>2026-04-10T09:39:50Z</time></trkpt><trkpt lat="45.549022291994106" lon="11.880453238158868"><ele>21.5</ele><time>2026-04-10T09:39:51Z</time></trkpt><trkpt lat="45.54908523213403" lon="11.880474088356328"><ele>21.666666666666664</ele><time>2026-04-10T09:39:52Z</time></trkpt><trkpt lat="45.549206118573665" lon="11.880521095293258"><ele>21.833333333333332</ele><time>2026-04-10T09:39:54Z</time></trkpt><trkpt lat="45.54932633453037" lon="11.880565369946472"><ele>22.0</ele><time>2026-04-10T09:39:55.999Z</time></trkpt><trkpt lat="45.54944466929204" lon="11.88061388302253"><ele>21.75</ele><time>2026-04-10T09:39:57.999Z</time></trkpt><trkpt lat="45.54955965317587" lon="11.880661384220486"><ele>21.5</ele><time>2026-04-10T09:39:59.999Z</time></trkpt><trkpt lat="45.54967949037089" lon="11.880709941241296"><ele>21.25</ele><time>2026-04-10T09:40:01.999Z</time></trkpt><trkpt lat="45.549801863722756" lon="11.880756918961705"><ele>21.0</ele><time>2026-04-10T09:40:03.999Z</time></trkpt><trkpt lat="45.54992756691818" lon="11.88080477824339"><ele>21.0</ele><time>2026-04-10T09:40:05.999Z</time></trkpt><trkpt lat="45.549994649882386" lon="11.880832103584654"><ele>21.0</ele><time>2026-04-10T09:40:06.999Z</time></trkpt><trkpt lat="45.550061867100126" lon="11.880858291567561"><ele>21.0</ele><time>2026-04-10T09:40:07.999Z</time></trkpt><trkpt lat="45.550130613653074" lon="11.880883074635491"><ele>21.0</ele><time>2026-04-10T09:40:08.999Z</time></trkpt><trkpt lat="45.55020155933999" lon="11.880905581457375"><ele>21.0</ele><time>2026-04-10T09:40:09.999Z</time></trkpt><trkpt lat="45.55027215966985" lon="11.88092694036912"><ele>21.0</ele><time>2026-04-10T09:40:10.999Z</time></trkpt><trkpt lat="45.55033974142879" lon="11.880947957973232"><ele>21.0</ele><time>2026-04-10T09:40:11.999Z</time></trkpt><trkpt lat="45.55040408363926" lon="11.88096759985995"><ele>21.0</ele><time>2026-04-10T09:40:12.999Z</time></trkpt><trkpt lat="45.55046867245174" lon="11.880985478301115"><ele>21.0</ele><time>2026-04-10T09:40:13.999Z</time></trkpt><trkpt lat="45.55058749256609" lon="11.881010155506841"><ele>21.0</ele><time>2026-04-10T09:40:15.999Z</time></trkpt><trkpt lat="45.55069877145874" lon="11.88102083471488"><ele>21.0</ele><time>2026-04-10T09:40:17.999Z</time></trkpt><trkpt lat="45.55080289007909" lon="11.881033578439826"><ele>21.0</ele><time>2026-04-10T09:40:19.999Z</time></trkpt><trkpt lat="45.550901954594806" lon="11.881042530745782"><ele>21.0</ele><time>2026-04-10T09:40:21.999Z</time></trkpt><trkpt lat="45.551003556988164" lon="11.881046329964995"><ele>21.0</ele><time>2026-04-10T09:40:23.999Z</time></trkpt><trkpt lat="45.551110137451275" lon="11.881057926806584"><ele>21.0</ele><time>2026-04-10T09:40:25.999Z</time></trkpt><trkpt lat="45.551217419357386" lon="11.881076152290273"><ele>21.0</ele><time>2026-04-10T09:40:28Z</time></trkpt><trkpt lat="45.55131772619768" lon="11.881093159172224"><ele>21.0</ele><time>2026-04-10T09:40:30Z</time></trkpt><trkpt lat="45.5514152565386" lon="11.881106766715401"><ele>21.200000000000003</ele><time>2026-04-10T09:40:32Z</time></trkpt><trkpt lat="45.551501162884215" lon="11.881137842554537"><ele>21.400000000000002</ele><time>2026-04-10T09:40:34Z</time></trkpt><trkpt lat="45.55158124209647" lon="11.881150297190064"><ele>21.6</ele><time>2026-04-10T09:40:36Z</time></trkpt><trkpt lat="45.551645802338925" lon="11.881174700968177"><ele>21.8</ele><time>2026-04-10T09:40:38Z</time></trkpt><trkpt lat="45.55170702555173" lon="11.881254902049314"><ele>22.0</ele><time>2026-04-10T09:40:43Z</time></trkpt><trkpt lat="45.55169085511574" lon="11.881585381603674"><ele>22.0</ele><time>2026-04-10T09:40:47Z</time></trkpt><trkpt lat="45.55171545310911" lon="11.881671328897534"><ele>22.0</ele><time>2026-04-10T09:40:49Z</time></trkpt><trkpt lat="45.55173419064105" lon="11.881763737463007"><ele>22.0</ele><time>2026-04-10T09:40:51Z</time></trkpt><trkpt lat="45.55175471994476" lon="11.881863179281165"><ele>22.0</ele><time>2026-04-10T09:40:53Z</time></trkpt><trkpt lat="45.55178486286907" lon="11.881992646660635"><ele>22.0</ele><time>2026-04-10T09:40:56Z</time></trkpt><trkpt lat="45.5518056342526" lon="11.88211634770206"><ele>22.0</ele><time>2026-04-10T09:40:59Z</time></trkpt><trkpt lat="45.55182462040062" lon="11.88220844837615"><ele>22.0</ele><time>2026-04-10T09:41:01Z</time></trkpt><trkpt lat="45.551855238311134" lon="11.882313698102068"><ele>22.0</ele><time>2026-04-10T09:41:03Z</time></trkpt><trkpt lat="45.5518739557241" lon="11.882452207541295"><ele>22.0</ele><time>2026-04-10T09:41:05Z</time></trkpt><trkpt lat="45.551908086092205" lon="11.882605879953633"><ele>22.0</ele><time>2026-04-10T09:41:07Z</time></trkpt><trkpt lat="45.551943979522406" lon="11.882762911385939"><ele>22.0</ele><time>2026-04-10T09:41:09Z</time></trkpt><trkpt lat="45.55197248890114" lon="11.882928011414835"><ele>22.0</ele><time>2026-04-10T09:41:11Z</time></trkpt><trkpt lat="45.55199280425814" lon="11.883015949129765"><ele>22.0</ele><time>2026-04-10T09:41:12Z</time></trkpt><trkpt lat="45.55201256185723" lon="11.883105445053346"><ele>22.0</ele><time>2026-04-10T09:41:13Z</time></trkpt><trkpt lat="45.55203091686384" lon="11.88319894657039"><ele>22.0</ele><time>2026-04-10T09:41:14Z</time></trkpt><trkpt lat="45.55205010113073" lon="11.883288867722605"><ele>22.0</ele><time>2026-04-10T09:41:15Z</time></trkpt><trkpt lat="45.55206883210377" lon="11.883376043561036"><ele>22.0</ele><time>2026-04-10T09:41:16Z</time></trkpt><trkpt lat="45.55208694462017" lon="11.883463899970488"><ele>22.0</ele><time>2026-04-10T09:41:17Z</time></trkpt><trkpt lat="45.552107697499196" lon="11.883553084016528"><ele>22.0</ele><time>2026-04-10T09:41:18Z</time></trkpt><trkpt lat="45.55213172267065" lon="11.88363946900885"><ele>22.0</ele><time>2026-04-10T09:41:19Z</time></trkpt><trkpt lat="45.552152060528755" lon="11.883726632447065"><ele>22.0</ele><time>2026-04-10T09:41:20Z</time></trkpt><trkpt lat="45.55217023635067" lon="11.883812792528651"><ele>22.0</ele><time>2026-04-10T09:41:21Z</time></trkpt><trkpt lat="45.5521919713133" lon="11.88389843574182"><ele>22.0</ele><time>2026-04-10T09:41:22Z</time></trkpt><trkpt lat="45.552228533501314" lon="11.884067353675844"><ele>22.0</ele><time>2026-04-10T09:41:24Z</time></trkpt><trkpt lat="45.552264854010616" lon="11.88423149860751"><ele>21.75</ele><time>2026-04-10T09:41:26Z</time></trkpt><trkpt lat="45.55230386895837" lon="11.88439862689939"><ele>21.5</ele><time>2026-04-10T09:41:28Z</time></trkpt><trkpt lat="45.55233390721119" lon="11.884571186758206"><ele>21.25</ele><time>2026-04-10T09:41:30Z</time></trkpt><trkpt lat="45.55236836806581" lon="11.884738410518317"><ele>21.0</ele><time>2026-04-10T09:41:32Z</time></trkpt><trkpt lat="45.552404500007604" lon="11.884905065339575"><ele>21.0</ele><time>2026-04-10T09:41:34Z</time></trkpt><trkpt lat="45.55244061394079" lon="11.885069811240523"><ele>21.0</ele><time>2026-04-10T09:41:36Z</time></trkpt><trkpt lat="45.55247426552969" lon="11.885237196510154"><ele>21.0</ele><time>2026-04-10T09:41:38Z</time></trkpt><trkpt lat="45.552511879053384" lon="11.885402162750289"><ele>21.0</ele><time>2026-04-10T09:41:40Z</time></trkpt><trkpt lat="45.552531881596266" lon="11.885489909223379"><ele>21.0</ele><time>2026-04-10T09:41:41Z</time></trkpt><trkpt lat="45.55256787135681" lon="11.885659363857574"><ele>21.0</ele><time>2026-04-10T09:41:43Z</time></trkpt><trkpt lat="45.552586637236665" lon="11.885745845174245"><ele>21.0</ele><time>2026-04-10T09:41:44Z</time></trkpt><trkpt lat="45.552602795937894" lon="11.885833083526489"><ele>21.0</ele><time>2026-04-10T09:41:45Z</time></trkpt><trkpt lat="45.55263884630642" lon="11.886003521297704"><ele>21.0</ele><time>2026-04-10T09:41:47Z</time></trkpt><trkpt lat="45.552679524541375" lon="11.88617014403806"><ele>21.0</ele><time>2026-04-10T09:41:49Z</time></trkpt><trkpt lat="45.55271285593946" lon="11.886339558982774"><ele>21.0</ele><time>2026-04-10T09:41:51Z</time></trkpt><trkpt lat="45.55274785880773" lon="11.886492567471711"><ele>21.0</ele><time>2026-04-10T09:41:53Z</time></trkpt><trkpt lat="45.552772211652226" lon="11.886645039951034"><ele>21.0</ele><time>2026-04-10T09:41:55Z</time></trkpt><trkpt lat="45.55280886631187" lon="11.886786946465163"><ele>21.0</ele><time>2026-04-10T09:41:57Z</time></trkpt><trkpt lat="45.55283191454158" lon="11.886926010681359"><ele>21.0</ele><time>2026-04-10T09:41:59Z</time></trkpt><trkpt lat="45.55299202133029" lon="11.887085461782501"><ele>21.0</ele><time>2026-04-10T09:42:00.998Z</time></trkpt><trkpt lat="45.552977728025915" lon="11.887210152761616"><ele>21.0</ele><time>2026-04-10T09:42:02.998Z</time></trkpt><trkpt lat="45.55296519517163" lon="11.88732129844472"><ele>21.0</ele><time>2026-04-10T09:42:04.998Z</time></trkpt><trkpt lat="45.552954618405124" lon="11.887452509832045"><ele>21.0</ele><time>2026-04-10T09:42:07.998Z</time></trkpt><trkpt lat="45.552952856916846" lon="11.887580266058041"><ele>21.0</ele><time>2026-04-10T09:42:09.998Z</time></trkpt><trkpt lat="45.552937907940354" lon="11.887712933198715"><ele>21.0</ele><time>2026-04-10T09:42:11.998Z</time></trkpt><trkpt lat="45.55292224961691" lon="11.887851895556121"><ele>21.0</ele><time>2026-04-10T09:42:13.998Z</time></trkpt><trkpt lat="45.55290607461767" lon="11.887995443244623"><ele>21.0</ele><time>2026-04-10T09:42:15.998Z</time></trkpt><trkpt lat="45.552890590952636" lon="11.888132855555352"><ele>21.0</ele><time>2026-04-10T09:42:17.998Z</time></trkpt><trkpt lat="45.55287294836082" lon="11.888286914139314"><ele>21.0</ele><time>2026-04-10T09:42:19.999Z</time></trkpt><trkpt lat="45.55285495260359" lon="11.888443007993095"><ele>21.0</ele><time>2026-04-10T09:42:21.999Z</time></trkpt><trkpt lat="45.5528364351733" lon="11.888603626833413"><ele>21.0</ele><time>2026-04-10T09:42:23.999Z</time></trkpt><trkpt lat="45.55281752836448" lon="11.888767623084352"><ele>21.0</ele><time>2026-04-10T09:42:25.999Z</time></trkpt><trkpt lat="45.55280063811126" lon="11.888914127909725"><ele>21.0</ele><time>2026-04-10T09:42:27.999Z</time></trkpt><trkpt lat="45.552795824025644" lon="11.889074623690014"><ele>21.0</ele><time>2026-04-10T09:42:29.999Z</time></trkpt><trkpt lat="45.552764612746664" lon="11.889226609262419"><ele>21.0</ele><time>2026-04-10T09:42:31.999Z</time></trkpt><trkpt lat="45.55274790085077" lon="11.889371567025579"><ele>21.0</ele><time>2026-04-10T09:42:33.999Z</time></trkpt><trkpt lat="45.552765565072846" lon="11.88952786798558"><ele>21.0</ele><time>2026-04-10T09:42:35.999Z</time></trkpt><trkpt lat="45.552805594842766" lon="11.889701051088327"><ele>21.0</ele><time>2026-04-10T09:42:37.999Z</time></trkpt><trkpt lat="45.552838128205956" lon="11.889793192250805"><ele>21.0</ele><time>2026-04-10T09:42:38.999Z</time></trkpt><trkpt lat="45.552853370632555" lon="11.889880820148596"><ele>21.0</ele><time>2026-04-10T09:42:39.999Z</time></trkpt><trkpt lat="45.55290965841215" lon="11.890055763842334"><ele>22.0</ele><time>2026-04-10T09:42:41.999Z</time></trkpt><trkpt lat="45.55354307964489" lon="11.890288750841641"><ele>22.0</ele><time>2026-04-10T09:42:42.999Z</time></trkpt><trkpt lat="45.55356380626931" lon="11.890375660306498"><ele>22.0</ele><time>2026-04-10T09:42:43.999Z</time></trkpt><trkpt lat="45.55358300028751" lon="11.890467580229782"><ele>22.0</ele><time>2026-04-10T09:42:44.999Z</time></trkpt><trkpt lat="45.5536002162524" lon="11.89055526315358"><ele>22.0</ele><time>2026-04-10T09:42:45.999Z</time></trkpt><trkpt lat="45.55361895934505" lon="11.890649973825438"><ele>22.0</ele><time>2026-04-10T09:42:46.999Z</time></trkpt><trkpt lat="45.55364225788176" lon="11.89073956670006"><ele>22.0</ele><time>2026-04-10T09:42:47.999Z</time></trkpt><trkpt lat="45.55366143209659" lon="11.890827183963955"><ele>22.0</ele><time>2026-04-10T09:42:48.999Z</time></trkpt><trkpt lat="45.55368029661959" lon="11.890913956116787"><ele>22.0</ele><time>2026-04-10T09:42:49.999Z</time></trkpt><trkpt lat="45.553698975306474" lon="11.89100058247947"><ele>22.0</ele><time>2026-04-10T09:42:50.999Z</time></trkpt><trkpt lat="45.55371902678455" lon="11.891086183905738"><ele>22.0</ele><time>2026-04-10T09:42:51.999Z</time></trkpt><trkpt lat="45.55374132952665" lon="11.891180224968084"><ele>22.0</ele><time>2026-04-10T09:42:52.999Z</time></trkpt><trkpt lat="45.55375584966614" lon="11.891271938409382"><ele>22.0</ele><time>2026-04-10T09:42:53.999Z</time></trkpt><trkpt lat="45.5537705234665" lon="11.891362322404774"><ele>22.0</ele><time>2026-04-10T09:42:54.999Z</time></trkpt><trkpt lat="45.553788293158085" lon="11.891448925313762"><ele>22.0</ele><time>2026-04-10T09:42:55.999Z</time></trkpt><trkpt lat="45.55380915493742" lon="11.89153996363813"><ele>22.0</ele><time>2026-04-10T09:42:57Z</time></trkpt><trkpt lat="45.55383211905435" lon="11.891631629615993"><ele>22.0</ele><time>2026-04-10T09:42:58Z</time></trkpt><trkpt lat="45.55384901260021" lon="11.891722072457522"><ele>22.0</ele><time>2026-04-10T09:42:59Z</time></trkpt><trkpt lat="45.55386527213864" lon="11.891811595072024"><ele>22.0</ele><time>2026-04-10T09:43:00Z</time></trkpt><trkpt lat="45.55388648489738" lon="11.891900551929943"><ele>22.0</ele><time>2026-04-10T09:43:01Z</time></trkpt><trkpt lat="45.553905912065" lon="11.891991762639908"><ele>22.0</ele><time>2026-04-10T09:43:02Z</time></trkpt><trkpt lat="45.55392301666101" lon="11.892082990804989"><ele>22.0</ele><time>2026-04-10T09:43:03Z</time></trkpt><trkpt lat="45.55394180836531" lon="11.89217553643443"><ele>21.833333333333332</ele><time>2026-04-10T09:43:04Z</time></trkpt><trkpt lat="45.55396429240153" lon="11.892268720540294"><ele>21.666666666666664</ele><time>2026-04-10T09:43:05Z</time></trkpt><trkpt lat="45.553984629826246" lon="11.892364268239929"><ele>21.5</ele><time>2026-04-10T09:43:06Z</time></trkpt><trkpt lat="45.55400627317065" lon="11.892455514895047"><ele>21.333333333333332</ele><time>2026-04-10T09:43:07Z</time></trkpt><trkpt lat="45.55402680896148" lon="11.892548811753437"><ele>21.166666666666668</ele><time>2026-04-10T09:43:08Z</time></trkpt><trkpt lat="45.554049125420676" lon="11.892637886972249"><ele>21.0</ele><time>2026-04-10T09:43:09Z</time></trkpt><trkpt lat="45.55408325464348" lon="11.892807450713784"><ele>20.8</ele><time>2026-04-10T09:43:11Z</time></trkpt><trkpt lat="45.554117947011996" lon="11.892959748523891"><ele>20.6</ele><time>2026-04-10T09:43:13Z</time></trkpt><trkpt lat="45.55414243235545" lon="11.893091556930147"><ele>20.4</ele><time>2026-04-10T09:43:15Z</time></trkpt><trkpt lat="45.55417213957649" lon="11.893187519531855"><ele>20.2</ele><time>2026-04-10T09:43:17Z</time></trkpt><trkpt lat="45.55419955015356" lon="11.893281267912643"><ele>20.0</ele><time>2026-04-10T09:43:19Z</time></trkpt><trkpt lat="45.55419577439249" lon="11.893432991324158"><ele>20.4</ele><time>2026-04-10T09:43:21Z</time></trkpt><trkpt lat="45.55417716291959" lon="11.893590544860926"><ele>20.8</ele><time>2026-04-10T09:43:23Z</time></trkpt><trkpt lat="45.55415902532575" lon="11.893744086866642"><ele>21.200000000000003</ele><time>2026-04-10T09:43:25Z</time></trkpt><trkpt lat="45.55414180722722" lon="11.893889844964713"><ele>21.6</ele><time>2026-04-10T09:43:27Z</time></trkpt><trkpt lat="45.55412482655395" lon="11.894033593139731"><ele>22.0</ele><time>2026-04-10T09:43:29Z</time></trkpt><trkpt lat="45.55410654076206" lon="11.894188389660274"><ele>22.25</ele><time>2026-04-10T09:43:31Z</time></trkpt><trkpt lat="45.55408744678379" lon="11.894350027821751"><ele>22.5</ele><time>2026-04-10T09:43:33Z</time></trkpt><trkpt lat="45.5540691044827" lon="11.894503619736092"><ele>22.75</ele><time>2026-04-10T09:43:35Z</time></trkpt><trkpt lat="45.55404928161037" lon="11.894664000040127"><ele>23.0</ele><time>2026-04-10T09:43:37Z</time></trkpt><trkpt lat="45.55404278175084" lon="11.89482520047093"><ele>20.0</ele><time>2026-04-10T09:43:39Z</time></trkpt><trkpt lat="45.55456642755486" lon="11.895039678462235"><ele>20.0</ele><time>2026-04-10T09:43:40Z</time></trkpt><trkpt lat="45.55457923446095" lon="11.895133239800751"><ele>20.0</ele><time>2026-04-10T09:43:41Z</time></trkpt><trkpt lat="45.55460077747185" lon="11.895226807874199"><ele>20.0</ele><time>2026-04-10T09:43:42Z</time></trkpt><trkpt lat="45.554620477524466" lon="11.895318414121455"><ele>20.0</ele><time>2026-04-10T09:43:43Z</time></trkpt><trkpt lat="45.55464011315944" lon="11.895406379676581"><ele>20.0</ele><time>2026-04-10T09:43:44Z</time></trkpt><trkpt lat="45.55465627018796" lon="11.895501616903356"><ele>20.0</ele><time>2026-04-10T09:43:45Z</time></trkpt><trkpt lat="45.55467789343594" lon="11.895595310227545"><ele>20.0</ele><time>2026-04-10T09:43:46Z</time></trkpt><trkpt lat="45.55469775529677" lon="11.895691342265843"><ele>20.0</ele><time>2026-04-10T09:43:47Z</time></trkpt><trkpt lat="45.55471576373477" lon="11.89578123213943"><ele>20.0</ele><time>2026-04-10T09:43:48Z</time></trkpt><trkpt lat="45.554729599494365" lon="11.895869169582712"><ele>20.0</ele><time>2026-04-10T09:43:49Z</time></trkpt><trkpt lat="45.55474217877905" lon="11.895957414788711"><ele>20.0</ele><time>2026-04-10T09:43:50Z</time></trkpt><trkpt lat="45.55478478622899" lon="11.89612953205867"><ele>20.0</ele><time>2026-04-10T09:43:52Z</time></trkpt><trkpt lat="45.554822210181015" lon="11.896299633200869"><ele>20.0</ele><time>2026-04-10T09:43:54Z</time></trkpt><trkpt lat="45.55485443447185" lon="11.896477517617067"><ele>20.0</ele><time>2026-04-10T09:43:56Z</time></trkpt><trkpt lat="45.5548871706765" lon="11.896646867549062"><ele>20.0</ele><time>2026-04-10T09:43:58Z</time></trkpt><trkpt lat="45.554930862056246" lon="11.896819421427102"><ele>20.0</ele><time>2026-04-10T09:44:00Z</time></trkpt><trkpt lat="45.55494768344801" lon="11.89690766804943"><ele>20.0</ele><time>2026-04-10T09:44:01Z</time></trkpt><trkpt lat="45.55496282494644" lon="11.896999502823066"><ele>20.0</ele><time>2026-04-10T09:44:02Z</time></trkpt><trkpt lat="45.5549766688511" lon="11.897091282451191"><ele>20.0</ele><time>2026-04-10T09:44:03Z</time></trkpt><trkpt lat="45.55499363006969" lon="11.897179296307135"><ele>20.0</ele><time>2026-04-10T09:44:04Z</time></trkpt><trkpt lat="45.55501408744304" lon="11.89726477348238"><ele>20.0</ele><time>2026-04-10T09:44:05Z</time></trkpt><trkpt lat="45.55505956789874" lon="11.897432068057443"><ele>20.0</ele><time>2026-04-10T09:44:06.997Z</time></trkpt><trkpt lat="45.55509253910638" lon="11.897600620341251"><ele>20.0</ele><time>2026-04-10T09:44:08.997Z</time></trkpt><trkpt lat="45.555128992279535" lon="11.897757163159755"><ele>20.0</ele><time>2026-04-10T09:44:10.997Z</time></trkpt><trkpt lat="45.55516849107068" lon="11.897917122492304"><ele>20.0</ele><time>2026-04-10T09:44:12.998Z</time></trkpt><trkpt lat="45.55520641588099" lon="11.898069968248988"><ele>20.0</ele><time>2026-04-10T09:44:14.998Z</time></trkpt><trkpt lat="45.5552251838798" lon="11.898204525010579"><ele>20.0</ele><time>2026-04-10T09:44:16.998Z</time></trkpt><trkpt lat="45.555246945980294" lon="11.898328223316664"><ele>20.0</ele><time>2026-04-10T09:44:18.998Z</time></trkpt><trkpt lat="45.55529038352242" lon="11.8984177835778"><ele>20.0</ele><time>2026-04-10T09:44:20.998Z</time></trkpt><trkpt lat="45.555332853183906" lon="11.89853132660779"><ele>20.0</ele><time>2026-04-10T09:44:22.998Z</time></trkpt><trkpt lat="45.55526732803991" lon="11.898698890351513"><ele>20.0</ele><time>2026-04-10T09:44:28.999Z</time></trkpt><trkpt lat="45.555249246448994" lon="11.898838157162212"><ele>20.0</ele><time>2026-04-10T09:44:30.999Z</time></trkpt><trkpt lat="45.55522585628811" lon="11.898952670822732"><ele>20.0</ele><time>2026-04-10T09:44:32.999Z</time></trkpt><trkpt lat="45.55519296742955" lon="11.89906366433876"><ele>20.0</ele><time>2026-04-10T09:44:34.999Z</time></trkpt><trkpt lat="45.55548306594938" lon="11.899352336540247"><ele>20.0</ele><time>2026-04-10T09:44:36.999Z</time></trkpt><trkpt lat="45.55550134953319" lon="11.899440057569205"><ele>20.0</ele><time>2026-04-10T09:44:37.999Z</time></trkpt><trkpt lat="45.55551730184684" lon="11.89952940624822"><ele>20.0</ele><time>2026-04-10T09:44:38.999Z</time></trkpt><trkpt lat="45.55555479927594" lon="11.899709115316254"><ele>20.0</ele><time>2026-04-10T09:44:40.999Z</time></trkpt><trkpt lat="45.55557481552818" lon="11.89980495079793"><ele>20.0</ele><time>2026-04-10T09:44:41.999Z</time></trkpt><trkpt lat="45.55559568985734" lon="11.899894068971191"><ele>20.0</ele><time>2026-04-10T09:44:42.999Z</time></trkpt><trkpt lat="45.55561856101226" lon="11.899981395734015"><ele>20.0</ele><time>2026-04-10T09:44:43.999Z</time></trkpt><trkpt lat="45.55564593261666" lon="11.90006983568414"><ele>20.0</ele><time>2026-04-10T09:44:44.999Z</time></trkpt><trkpt lat="45.55565705462346" lon="11.900162095708552"><ele>20.0</ele><time>2026-04-10T09:44:45.999Z</time></trkpt><trkpt lat="45.555682329996536" lon="11.90025821180529"><ele>20.0</ele><time>2026-04-10T09:44:46.999Z</time></trkpt><trkpt lat="45.555703543275044" lon="11.900345123812862"><ele>20.0</ele><time>2026-04-10T09:44:47.999Z</time></trkpt><trkpt lat="45.55571815274329" lon="11.900436892274156"><ele>20.0</ele><time>2026-04-10T09:44:48.999Z</time></trkpt><trkpt lat="45.55573843067321" lon="11.900535611156696"><ele>20.0</ele><time>2026-04-10T09:44:49.999Z</time></trkpt><trkpt lat="45.55575205867266" lon="11.900626132159589"><ele>20.0</ele><time>2026-04-10T09:44:50.999Z</time></trkpt><trkpt lat="45.55576426582527" lon="11.90071858735016"><ele>20.0</ele><time>2026-04-10T09:44:51.999Z</time></trkpt><trkpt lat="45.55578257709828" lon="11.90080801926506"><ele>20.0</ele><time>2026-04-10T09:44:52.999Z</time></trkpt><trkpt lat="45.55580870864573" lon="11.90089821052907"><ele>20.0</ele><time>2026-04-10T09:44:53.999Z</time></trkpt><trkpt lat="45.55582675254572" lon="11.90099291235548"><ele>20.0</ele><time>2026-04-10T09:44:54.999Z</time></trkpt><trkpt lat="45.55585139484959" lon="11.901086354144025"><ele>20.0</ele><time>2026-04-10T09:44:55.999Z</time></trkpt><trkpt lat="45.55587085675413" lon="11.901186910517461"><ele>20.0</ele><time>2026-04-10T09:44:56.999Z</time></trkpt><trkpt lat="45.55588979622109" lon="11.901282579263427"><ele>19.857142857142858</ele><time>2026-04-10T09:44:58Z</time></trkpt><trkpt lat="45.555909059811185" lon="11.90138334709749"><ele>19.714285714285715</ele><time>2026-04-10T09:44:59Z</time></trkpt><trkpt lat="45.55592791450067" lon="11.901475765832213"><ele>19.57142857142857</ele><time>2026-04-10T09:45:00Z</time></trkpt><trkpt lat="45.55595056517458" lon="11.901579009792364"><ele>19.42857142857143</ele><time>2026-04-10T09:45:01Z</time></trkpt><trkpt lat="45.55597257943801" lon="11.901682208049477"><ele>19.28571428571429</ele><time>2026-04-10T09:45:02Z</time></trkpt><trkpt lat="45.555993799768544" lon="11.901782396920797"><ele>19.142857142857142</ele><time>2026-04-10T09:45:03Z</time></trkpt><trkpt lat="45.55601347276149" lon="11.901886558499452"><ele>19.0</ele><time>2026-04-10T09:45:04Z</time></trkpt><trkpt lat="45.556037602494" lon="11.901989291381726"><ele>18.857142857142858</ele><time>2026-04-10T09:45:05Z</time></trkpt><trkpt lat="45.55606349917372" lon="11.902096321065763"><ele>18.714285714285715</ele><time>2026-04-10T09:45:06Z</time></trkpt><trkpt lat="45.556083132363625" lon="11.902195604122493"><ele>18.571428571428573</ele><time>2026-04-10T09:45:07Z</time></trkpt><trkpt lat="45.556108012681726" lon="11.902299081859567"><ele>18.42857142857143</ele><time>2026-04-10T09:45:08Z</time></trkpt><trkpt lat="45.55612891865141" lon="11.902394019671343"><ele>18.285714285714285</ele><time>2026-04-10T09:45:09Z</time></trkpt><trkpt lat="45.556145833758215" lon="11.902489551026703"><ele>18.142857142857146</ele><time>2026-04-10T09:45:10Z</time></trkpt><trkpt lat="45.55616916104002" lon="11.902589452920235"><ele>18.0</ele><time>2026-04-10T09:45:11Z</time></trkpt><trkpt lat="45.556188188250076" lon="11.902691481653578"><ele>18.142857142857146</ele><time>2026-04-10T09:45:12Z</time></trkpt><trkpt lat="45.55620561410239" lon="11.902788810603171"><ele>18.285714285714285</ele><time>2026-04-10T09:45:13Z</time></trkpt><trkpt lat="45.55622135104191" lon="11.902886964821644"><ele>18.42857142857143</ele><time>2026-04-10T09:45:14Z</time></trkpt><trkpt lat="45.55624429108931" lon="11.902979546201124"><ele>18.571428571428573</ele><time>2026-04-10T09:45:15Z</time></trkpt><trkpt lat="45.556261896418015" lon="11.903074849079236"><ele>18.714285714285715</ele><time>2026-04-10T09:45:16Z</time></trkpt><trkpt lat="45.556279715317416" lon="11.90317996598048"><ele>18.857142857142858</ele><time>2026-04-10T09:45:17Z</time></trkpt><trkpt lat="45.55629985778481" lon="11.903280381872634"><ele>19.0</ele><time>2026-04-10T09:45:18Z</time></trkpt><trkpt lat="45.55631872217039" lon="11.903377373528222"><ele>18.857142857142858</ele><time>2026-04-10T09:45:19Z</time></trkpt><trkpt lat="45.55634764474272" lon="11.903470330510594"><ele>18.714285714285715</ele><time>2026-04-10T09:45:20Z</time></trkpt><trkpt lat="45.55636774371833" lon="11.903565868541687"><ele>18.571428571428573</ele><time>2026-04-10T09:45:21Z</time></trkpt><trkpt lat="45.55639385663017" lon="11.903651056721397"><ele>18.42857142857143</ele><time>2026-04-10T09:45:22Z</time></trkpt><trkpt lat="45.55641205886516" lon="11.903752214216178"><ele>18.285714285714285</ele><time>2026-04-10T09:45:23Z</time></trkpt><trkpt lat="45.55642797193395" lon="11.903851148425947"><ele>18.142857142857146</ele><time>2026-04-10T09:45:24Z</time></trkpt><trkpt lat="45.556446437706384" lon="11.90395072210118"><ele>18.0</ele><time>2026-04-10T09:45:25Z</time></trkpt><trkpt lat="45.5564712752392" lon="11.904039555492718"><ele>18.000000000000004</ele><time>2026-04-10T09:45:26Z</time></trkpt><trkpt lat="45.55649634940764" lon="11.904130278531548"><ele>18.0</ele><time>2026-04-10T09:45:27Z</time></trkpt><trkpt lat="45.55651568714392" lon="11.90422671552809"><ele>18.0</ele><time>2026-04-10T09:45:28Z</time></trkpt><trkpt lat="45.55653269942728" lon="11.904322291162504"><ele>18.0</ele><time>2026-04-10T09:45:29Z</time></trkpt><trkpt lat="45.556550674342816" lon="11.904414365585373"><ele>18.0</ele><time>2026-04-10T09:45:30Z</time></trkpt><trkpt lat="45.55657188247537" lon="11.904507722918531"><ele>18.000000000000004</ele><time>2026-04-10T09:45:31Z</time></trkpt><trkpt lat="45.55659225634172" lon="11.904600402833331"><ele>18.0</ele><time>2026-04-10T09:45:32Z</time></trkpt><trkpt lat="45.55661462276955" lon="11.90469735025461"><ele>18.166666666666668</ele><time>2026-04-10T09:45:33Z</time></trkpt><trkpt lat="45.556632803413656" lon="11.904794486060169"><ele>18.333333333333332</ele><time>2026-04-10T09:45:34Z</time></trkpt><trkpt lat="45.556654531513736" lon="11.904891164035027"><ele>18.5</ele><time>2026-04-10T09:45:35Z</time></trkpt><trkpt lat="45.55667679587142" lon="11.90498129501735"><ele>18.666666666666664</ele><time>2026-04-10T09:45:36Z</time></trkpt><trkpt lat="45.55669782305572" lon="11.90507464613989"><ele>18.833333333333332</ele><time>2026-04-10T09:45:37Z</time></trkpt><trkpt lat="45.55671450136287" lon="11.905166251024248"><ele>19.0</ele><time>2026-04-10T09:45:38Z</time></trkpt><trkpt lat="45.55674704923834" lon="11.905331907874412"><ele>19.166666666666664</ele><time>2026-04-10T09:45:40Z</time></trkpt><trkpt lat="45.55676309857466" lon="11.905421375026602"><ele>19.333333333333332</ele><time>2026-04-10T09:45:41Z</time></trkpt><trkpt lat="45.556781809328584" lon="11.905512793209095"><ele>19.5</ele><time>2026-04-10T09:45:42Z</time></trkpt><trkpt lat="45.55680964840713" lon="11.905616809623206"><ele>19.666666666666668</ele><time>2026-04-10T09:45:43Z</time></trkpt><trkpt lat="45.55684184492332" lon="11.90572059989112"><ele>19.833333333333336</ele><time>2026-04-10T09:45:44Z</time></trkpt><trkpt lat="45.556870519336165" lon="11.905817068380092"><ele>20.0</ele><time>2026-04-10T09:45:45Z</time></trkpt><trkpt lat="45.55690648583422" lon="11.906008418596015"><ele>20.0</ele><time>2026-04-10T09:45:47Z</time></trkpt><trkpt lat="45.55691802540363" lon="11.906111124869096"><ele>20.0</ele><time>2026-04-10T09:45:48Z</time></trkpt><trkpt lat="45.55693328856623" lon="11.906212438656432"><ele>20.0</ele><time>2026-04-10T09:45:49Z</time></trkpt><trkpt lat="45.55695359800587" lon="11.906315916634307"><ele>20.0</ele><time>2026-04-10T09:45:50Z</time></trkpt><trkpt lat="45.556977225084225" lon="11.90641810633905"><ele>20.0</ele><time>2026-04-10T09:45:51Z</time></trkpt><trkpt lat="45.55699926628864" lon="11.906517873572621"><ele>20.0</ele><time>2026-04-10T09:45:52.001Z</time></trkpt><trkpt lat="45.55702464498918" lon="11.906619877508192"><ele>20.0</ele><time>2026-04-10T09:45:53.001Z</time></trkpt><trkpt lat="45.557038749895575" lon="11.906718655080379"><ele>19.857142857142858</ele><time>2026-04-10T09:45:54.001Z</time></trkpt><trkpt lat="45.55705968748624" lon="11.90681702724907"><ele>19.714285714285715</ele><time>2026-04-10T09:45:55.001Z</time></trkpt><trkpt lat="45.55708479678437" lon="11.906915749523684"><ele>19.57142857142857</ele><time>2026-04-10T09:45:56.001Z</time></trkpt><trkpt lat="45.55710119256506" lon="11.90701299629884"><ele>19.42857142857143</ele><time>2026-04-10T09:45:57.001Z</time></trkpt><trkpt lat="45.55712254349035" lon="11.907114317587547"><ele>19.28571428571429</ele><time>2026-04-10T09:45:58.001Z</time></trkpt><trkpt lat="45.55714348599691" lon="11.907209430837954"><ele>19.142857142857142</ele><time>2026-04-10T09:45:59.001Z</time></trkpt><trkpt lat="45.55716514272572" lon="11.907308467276525"><ele>19.0</ele><time>2026-04-10T09:46:00.001Z</time></trkpt><trkpt lat="45.55717828086001" lon="11.907402465396405"><ele>19.0</ele><time>2026-04-10T09:46:01.001Z</time></trkpt><trkpt lat="45.55719754509417" lon="11.907493920081814"><ele>19.0</ele><time>2026-04-10T09:46:02.001Z</time></trkpt><trkpt lat="45.55721990710036" lon="11.907586368043148"><ele>19.0</ele><time>2026-04-10T09:46:03.001Z</time></trkpt><trkpt lat="45.557248021961655" lon="11.907683805514768"><ele>19.0</ele><time>2026-04-10T09:46:04.001Z</time></trkpt><trkpt lat="45.55727419324858" lon="11.907781638326401"><ele>19.0</ele><time>2026-04-10T09:46:05.001Z</time></trkpt><trkpt lat="45.55729670415108" lon="11.907881329458478"><ele>19.0</ele><time>2026-04-10T09:46:06.001Z</time></trkpt><trkpt lat="45.55730599950192" lon="11.907984226625626"><ele>19.0</ele><time>2026-04-10T09:46:07.001Z</time></trkpt><trkpt lat="45.557327462461984" lon="11.908079501702693"><ele>19.285714285714285</ele><time>2026-04-10T09:46:08.001Z</time></trkpt><trkpt lat="45.55734704556843" lon="11.90817432401177"><ele>19.571428571428573</ele><time>2026-04-10T09:46:09.001Z</time></trkpt><trkpt lat="45.5573656887064" lon="11.908273850581706"><ele>19.857142857142858</ele><time>2026-04-10T09:46:10.001Z</time></trkpt><trkpt lat="45.55739375127346" lon="11.908370657868659"><ele>20.142857142857142</ele><time>2026-04-10T09:46:11.001Z</time></trkpt><trkpt lat="45.55741089671808" lon="11.908473994938417"><ele>20.42857142857143</ele><time>2026-04-10T09:46:12.001Z</time></trkpt><trkpt lat="45.55743168139234" lon="11.908572202165562"><ele>20.714285714285715</ele><time>2026-04-10T09:46:12.998Z</time></trkpt><trkpt lat="45.55745244193952" lon="11.908666661398"><ele>21.0</ele><time>2026-04-10T09:46:13.998Z</time></trkpt><trkpt lat="45.55747373999792" lon="11.90876201245816"><ele>21.142857142857142</ele><time>2026-04-10T09:46:14.998Z</time></trkpt><trkpt lat="45.5574977741974" lon="11.90885576915265"><ele>21.285714285714285</ele><time>2026-04-10T09:46:15.998Z</time></trkpt><trkpt lat="45.557516008830845" lon="11.908948799530823"><ele>21.42857142857143</ele><time>2026-04-10T09:46:16.998Z</time></trkpt><trkpt lat="45.55753303139203" lon="11.90904370184819"><ele>21.57142857142857</ele><time>2026-04-10T09:46:17.998Z</time></trkpt><trkpt lat="45.557552025288814" lon="11.909135749055187"><ele>21.714285714285715</ele><time>2026-04-10T09:46:18.998Z</time></trkpt><trkpt lat="45.55756935967078" lon="11.909230089514082"><ele>21.857142857142858</ele><time>2026-04-10T09:46:19.998Z</time></trkpt><trkpt lat="45.557588070058564" lon="11.909322901665716"><ele>22.0</ele><time>2026-04-10T09:46:20.998Z</time></trkpt><trkpt lat="45.5576163107318" lon="11.909418707144381"><ele>22.0</ele><time>2026-04-10T09:46:21.999Z</time></trkpt><trkpt lat="45.5576466355899" lon="11.909592892389806"><ele>22.0</ele><time>2026-04-10T09:46:23.999Z</time></trkpt><trkpt lat="45.55766813816164" lon="11.909683457468951"><ele>22.0</ele><time>2026-04-10T09:46:24.999Z</time></trkpt><trkpt lat="45.557685815638344" lon="11.909773208069616"><ele>22.0</ele><time>2026-04-10T09:46:25.999Z</time></trkpt><trkpt lat="45.55771767371098" lon="11.909933484940025"><ele>22.0</ele><time>2026-04-10T09:46:27.999Z</time></trkpt><trkpt lat="45.55775639279464" lon="11.91008709015065"><ele>22.166666666666664</ele><time>2026-04-10T09:46:29.999Z</time></trkpt><trkpt lat="45.5577385160337" lon="11.910231300591226"><ele>22.333333333333332</ele><time>2026-04-10T09:46:31.999Z</time></trkpt><trkpt lat="45.55776092265053" lon="11.91032136010653"><ele>22.5</ele><time>2026-04-10T09:46:35.999Z</time></trkpt><trkpt lat="45.55779307440991" lon="11.910410028247986"><ele>22.666666666666668</ele><time>2026-04-10T09:46:48Z</time></trkpt><trkpt lat="45.55780389501574" lon="11.910506634214972"><ele>22.833333333333336</ele><time>2026-04-10T09:46:51Z</time></trkpt><trkpt lat="45.55780948564356" lon="11.910637550311892"><ele>23.0</ele><time>2026-04-10T09:46:53Z</time></trkpt><trkpt lat="45.55781342016742" lon="11.91080161025174"><ele>22.599999999999998</ele><time>2026-04-10T09:46:55Z</time></trkpt><trkpt lat="45.55781291978104" lon="11.910964917426185"><ele>22.2</ele><time>2026-04-10T09:46:57Z</time></trkpt><trkpt lat="45.55780680185257" lon="11.911127864022987"><ele>21.8</ele><time>2026-04-10T09:46:59Z</time></trkpt><trkpt lat="45.55778688482278" lon="11.911249581838318"><ele>21.4</ele><time>2026-04-10T09:47:01Z</time></trkpt><trkpt lat="45.55776463591232" lon="11.91138635499821"><ele>21.0</ele><time>2026-04-10T09:47:03Z</time></trkpt><trkpt lat="45.55773849274828" lon="11.911522003969612"><ele>21.0</ele><time>2026-04-10T09:47:05Z</time></trkpt><trkpt lat="45.557711389869766" lon="11.911648165681477"><ele>21.0</ele><time>2026-04-10T09:47:07Z</time></trkpt><trkpt lat="45.55770569018851" lon="11.911784456215972"><ele>21.0</ele><time>2026-04-10T09:47:09Z</time></trkpt><trkpt lat="45.5581983882877" lon="11.912177043479772"><ele>21.0</ele><time>2026-04-10T09:47:11Z</time></trkpt><trkpt lat="45.55821630971618" lon="11.912270572064207"><ele>21.0</ele><time>2026-04-10T09:47:12Z</time></trkpt><trkpt lat="45.558233230996194" lon="11.912360134401158"><ele>21.0</ele><time>2026-04-10T09:47:13Z</time></trkpt><trkpt lat="45.558251846121834" lon="11.912457779853622"><ele>21.0</ele><time>2026-04-10T09:47:14Z</time></trkpt><trkpt lat="45.55826740689096" lon="11.912549537905342"><ele>21.0</ele><time>2026-04-10T09:47:15Z</time></trkpt><trkpt lat="45.55828961154202" lon="11.912648041606065"><ele>21.0</ele><time>2026-04-10T09:47:16Z</time></trkpt><trkpt lat="45.55830948224135" lon="11.912746305508113"><ele>21.0</ele><time>2026-04-10T09:47:17Z</time></trkpt><trkpt lat="45.558332679360795" lon="11.912843912499412"><ele>21.0</ele><time>2026-04-10T09:47:18Z</time></trkpt><trkpt lat="45.55835047329346" lon="11.912939732823544"><ele>21.0</ele><time>2026-04-10T09:47:19Z</time></trkpt><trkpt lat="45.55836933207499" lon="11.913036568101047"><ele>21.0</ele><time>2026-04-10T09:47:20Z</time></trkpt><trkpt lat="45.55839052732718" lon="11.91313294533011"><ele>21.0</ele><time>2026-04-10T09:47:21.001Z</time></trkpt><trkpt lat="45.5584149727966" lon="11.91322080470969"><ele>21.0</ele><time>2026-04-10T09:47:22.001Z</time></trkpt><trkpt lat="45.558432692791285" lon="11.913317826895472"><ele>21.0</ele><time>2026-04-10T09:47:23.001Z</time></trkpt><trkpt lat="45.5584554149065" lon="11.913414634628495"><ele>21.0</ele><time>2026-04-10T09:47:24.001Z</time></trkpt><trkpt lat="45.55847361914575" lon="11.913511346329091"><ele>20.857142857142858</ele><time>2026-04-10T09:47:25.001Z</time></trkpt><trkpt lat="45.558495195630336" lon="11.913612343949369"><ele>20.714285714285715</ele><time>2026-04-10T09:47:26.001Z</time></trkpt><trkpt lat="45.55851426038474" lon="11.913708421841665"><ele>20.57142857142857</ele><time>2026-04-10T09:47:27.001Z</time></trkpt><trkpt lat="45.558537205320754" lon="11.91380280770081"><ele>20.42857142857143</ele><time>2026-04-10T09:47:28.001Z</time></trkpt><trkpt lat="45.558559762169004" lon="11.913891966190295"><ele>20.285714285714285</ele><time>2026-04-10T09:47:29.001Z</time></trkpt><trkpt lat="45.55858361886766" lon="11.913989627648924"><ele>20.142857142857142</ele><time>2026-04-10T09:47:30.001Z</time></trkpt><trkpt lat="45.55860242783857" lon="11.91408531192514"><ele>20.0</ele><time>2026-04-10T09:47:31.001Z</time></trkpt><trkpt lat="45.558618647188254" lon="11.914180603179576"><ele>20.0</ele><time>2026-04-10T09:47:32.001Z</time></trkpt><trkpt lat="45.55863356750744" lon="11.91426878560797"><ele>20.0</ele><time>2026-04-10T09:47:33.001Z</time></trkpt><trkpt lat="45.55864863249878" lon="11.914358430867285"><ele>20.0</ele><time>2026-04-10T09:47:34.001Z</time></trkpt><trkpt lat="45.55866614405572" lon="11.914448880875623"><ele>20.0</ele><time>2026-04-10T09:47:35.001Z</time></trkpt><trkpt lat="45.55868361134433" lon="11.914540630939772"><ele>20.0</ele><time>2026-04-10T09:47:36.001Z</time></trkpt><trkpt lat="45.55870466311287" lon="11.914630519945378"><ele>20.0</ele><time>2026-04-10T09:47:37.001Z</time></trkpt><trkpt lat="45.55873071621089" lon="11.914716556106416"><ele>20.0</ele><time>2026-04-10T09:47:38.001Z</time></trkpt><trkpt lat="45.558751679955805" lon="11.914807950389038"><ele>20.142857142857142</ele><time>2026-04-10T09:47:39.001Z</time></trkpt><trkpt lat="45.55876883237299" lon="11.91490011228494"><ele>20.285714285714285</ele><time>2026-04-10T09:47:40.001Z</time></trkpt><trkpt lat="45.55878294634469" lon="11.91499275470029"><ele>20.42857142857143</ele><time>2026-04-10T09:47:41.001Z</time></trkpt><trkpt lat="45.5588016865717" lon="11.915085531753586"><ele>20.57142857142857</ele><time>2026-04-10T09:47:42.001Z</time></trkpt><trkpt lat="45.55882404553643" lon="11.915181970239297"><ele>20.714285714285715</ele><time>2026-04-10T09:47:43.001Z</time></trkpt><trkpt lat="45.558843148696724" lon="11.915271917913726"><ele>20.857142857142858</ele><time>2026-04-10T09:47:44.001Z</time></trkpt><trkpt lat="45.558863673570414" lon="11.915364302233325"><ele>21.0</ele><time>2026-04-10T09:47:45.001Z</time></trkpt><trkpt lat="45.558888225625736" lon="11.915455226672895"><ele>21.0</ele><time>2026-04-10T09:47:46.001Z</time></trkpt><trkpt lat="45.55891159096216" lon="11.915548006794255"><ele>21.0</ele><time>2026-04-10T09:47:47.001Z</time></trkpt><trkpt lat="45.558933383652274" lon="11.91564025088813"><ele>21.0</ele><time>2026-04-10T09:47:48.001Z</time></trkpt><trkpt lat="45.55894909527099" lon="11.915731905424"><ele>21.0</ele><time>2026-04-10T09:47:49.001Z</time></trkpt><trkpt lat="45.55896828859242" lon="11.915824303622982"><ele>21.0</ele><time>2026-04-10T09:47:50.001Z</time></trkpt><trkpt lat="45.55899151705755" lon="11.915911690511564"><ele>21.0</ele><time>2026-04-10T09:47:51.001Z</time></trkpt><trkpt lat="45.55901212466335" lon="11.916006041368837"><ele>21.0</ele><time>2026-04-10T09:47:52.001Z</time></trkpt><trkpt lat="45.55903315669791" lon="11.91609215016271"><ele>21.0</ele><time>2026-04-10T09:47:53.001Z</time></trkpt><trkpt lat="45.55905573953782" lon="11.916178259276196"><ele>21.0</ele><time>2026-04-10T09:47:54.001Z</time></trkpt><trkpt lat="45.55908854044154" lon="11.916357270569682"><ele>21.0</ele><time>2026-04-10T09:47:56.001Z</time></trkpt><trkpt lat="45.55912911032107" lon="11.916527552096966"><ele>21.0</ele><time>2026-04-10T09:47:58.001Z</time></trkpt><trkpt lat="45.559148020047836" lon="11.916615345935064"><ele>21.0</ele><time>2026-04-10T09:47:59.001Z</time></trkpt><trkpt lat="45.55916946413098" lon="11.916707983533243"><ele>20.857142857142858</ele><time>2026-04-10T09:48:00.001Z</time></trkpt><trkpt lat="45.559186422607326" lon="11.91679621760241"><ele>20.714285714285715</ele><time>2026-04-10T09:48:01.001Z</time></trkpt><trkpt lat="45.55921123354831" lon="11.916885386307097"><ele>20.57142857142857</ele><time>2026-04-10T09:48:02.001Z</time></trkpt><trkpt lat="45.55923101836303" lon="11.916976662814559"><ele>20.42857142857143</ele><time>2026-04-10T09:48:03.001Z</time></trkpt><trkpt lat="45.55924514973188" lon="11.917068303473592"><ele>20.285714285714285</ele><time>2026-04-10T09:48:04.001Z</time></trkpt><trkpt lat="45.559255823821154" lon="11.91715857655838"><ele>20.142857142857142</ele><time>2026-04-10T09:48:05.001Z</time></trkpt><trkpt lat="45.55926627471342" lon="11.917247492506162"><ele>20.0</ele><time>2026-04-10T09:48:06.001Z</time></trkpt><trkpt lat="45.55931358513052" lon="11.91739988942527"><ele>20.0</ele><time>2026-04-10T09:48:08.002Z</time></trkpt><trkpt lat="45.55934927160563" lon="11.91753217724896"><ele>20.0</ele><time>2026-04-10T09:48:10.002Z</time></trkpt><trkpt lat="45.5593588177015" lon="11.917691582724526"><ele>20.0</ele><time>2026-04-10T09:48:12.002Z</time></trkpt><trkpt lat="45.5593980015803" lon="11.917828106673765"><ele>20.0</ele><time>2026-04-10T09:48:14.002Z</time></trkpt><trkpt lat="45.55942010077494" lon="11.917915260584216"><ele>20.0</ele><time>2026-04-10T09:48:15.002Z</time></trkpt><trkpt lat="45.559344109703495" lon="11.91805401378968"><ele>20.0</ele><time>2026-04-10T09:48:16.002Z</time></trkpt><trkpt lat="45.55936137874496" lon="11.918217710554531"><ele>20.0</ele><time>2026-04-10T09:48:18.002Z</time></trkpt><trkpt lat="45.55936141352258" lon="11.918392142077472"><ele>20.0</ele><time>2026-04-10T09:48:19.999Z</time></trkpt><trkpt lat="45.559345004965365" lon="11.918565360160555"><ele>20.0</ele><time>2026-04-10T09:48:21.999Z</time></trkpt><trkpt lat="45.55930528807547" lon="11.91872381233826"><ele>20.0</ele><time>2026-04-10T09:48:24.999Z</time></trkpt><trkpt lat="45.55929040576961" lon="11.918894122116454"><ele>20.0</ele><time>2026-04-10T09:48:26.999Z</time></trkpt><trkpt lat="45.55970221133153" lon="11.919260039130538"><ele>19.857142857142858</ele><time>2026-04-10T09:48:28.999Z</time></trkpt><trkpt lat="45.55972444867256" lon="11.919350103595626"><ele>19.714285714285715</ele><time>2026-04-10T09:48:29.999Z</time></trkpt><trkpt lat="45.55974491494198" lon="11.919441979451435"><ele>19.57142857142857</ele><time>2026-04-10T09:48:30.999Z</time></trkpt><trkpt lat="45.55976256283963" lon="11.919538385106847"><ele>19.42857142857143</ele><time>2026-04-10T09:48:31.999Z</time></trkpt><trkpt lat="45.559781646325874" lon="11.919634880330793"><ele>19.28571428571429</ele><time>2026-04-10T09:48:33Z</time></trkpt><trkpt lat="45.55980121295467" lon="11.919726912722256"><ele>19.142857142857142</ele><time>2026-04-10T09:48:34Z</time></trkpt><trkpt lat="45.559824598464004" lon="11.91981875986015"><ele>19.0</ele><time>2026-04-10T09:48:35Z</time></trkpt><trkpt lat="45.559848655080245" lon="11.919913991246695"><ele>19.0</ele><time>2026-04-10T09:48:36Z</time></trkpt><trkpt lat="45.559868959909096" lon="11.920011721607723"><ele>19.0</ele><time>2026-04-10T09:48:37Z</time></trkpt><trkpt lat="45.55988777219417" lon="11.920104605919207"><ele>19.0</ele><time>2026-04-10T09:48:38Z</time></trkpt><trkpt lat="45.55990526437643" lon="11.920203907782044"><ele>19.0</ele><time>2026-04-10T09:48:39Z</time></trkpt><trkpt lat="45.55992294368754" lon="11.92030456637801"><ele>19.0</ele><time>2026-04-10T09:48:40Z</time></trkpt><trkpt lat="45.55994364344094" lon="11.920394050733846"><ele>19.0</ele><time>2026-04-10T09:48:41Z</time></trkpt><trkpt lat="45.559967319214785" lon="11.920493998844181"><ele>19.0</ele><time>2026-04-10T09:48:42Z</time></trkpt><trkpt lat="45.559990316484374" lon="11.920585146841066"><ele>19.333333333333332</ele><time>2026-04-10T09:48:43Z</time></trkpt><trkpt lat="45.560012342111335" lon="11.92068050905486"><ele>19.666666666666664</ele><time>2026-04-10T09:48:44Z</time></trkpt><trkpt lat="45.56003660955717" lon="11.920771144636143"><ele>20.0</ele><time>2026-04-10T09:48:45Z</time></trkpt><trkpt lat="45.560056249483004" lon="11.9208637578003"><ele>20.333333333333332</ele><time>2026-04-10T09:48:46Z</time></trkpt><trkpt lat="45.560066243253516" lon="11.920954380362964"><ele>20.666666666666668</ele><time>2026-04-10T09:48:47Z</time></trkpt><trkpt lat="45.5600964870024" lon="11.921137818206258"><ele>21.0</ele><time>2026-04-10T09:48:49Z</time></trkpt><trkpt lat="45.56011798747701" lon="11.921230126073702"><ele>21.0</ele><time>2026-04-10T09:48:50Z</time></trkpt><trkpt lat="45.56013788696737" lon="11.921323961446"><ele>21.0</ele><time>2026-04-10T09:48:51Z</time></trkpt><trkpt lat="45.56015746992113" lon="11.921420228525202"><ele>21.0</ele><time>2026-04-10T09:48:52Z</time></trkpt><trkpt lat="45.560177490580756" lon="11.921511821206527"><ele>21.0</ele><time>2026-04-10T09:48:53Z</time></trkpt><trkpt lat="45.56020134226619" lon="11.92159964265328"><ele>21.0</ele><time>2026-04-10T09:48:54Z</time></trkpt><trkpt lat="45.560234761430635" lon="11.921684971394269"><ele>21.0</ele><time>2026-04-10T09:48:55Z</time></trkpt><trkpt lat="45.560260402940436" lon="11.921771308336211"><ele>21.0</ele><time>2026-04-10T09:48:56Z</time></trkpt><trkpt lat="45.56028344308583" lon="11.921873077465902"><ele>21.0</ele><time>2026-04-10T09:48:57Z</time></trkpt><trkpt lat="45.56031157563532" lon="11.92196833229002"><ele>21.0</ele><time>2026-04-10T09:48:58Z</time></trkpt><trkpt lat="45.560341834738516" lon="11.922061268429395"><ele>21.0</ele><time>2026-04-10T09:48:59Z</time></trkpt><trkpt lat="45.56037185225281" lon="11.922146366204414"><ele>21.0</ele><time>2026-04-10T09:49:00Z</time></trkpt><trkpt lat="45.560403604222984" lon="11.922240094411292"><ele>21.0</ele><time>2026-04-10T09:49:01Z</time></trkpt><trkpt lat="45.56043392519115" lon="11.922333494582013"><ele>21.0</ele><time>2026-04-10T09:49:02Z</time></trkpt><trkpt lat="45.56047001442022" lon="11.922424071990564"><ele>21.0</ele><time>2026-04-10T09:49:03Z</time></trkpt><trkpt lat="45.56050006047169" lon="11.922509881024073"><ele>21.0</ele><time>2026-04-10T09:49:04Z</time></trkpt><trkpt lat="45.56053413849261" lon="11.922594583187127"><ele>21.0</ele><time>2026-04-10T09:49:05Z</time></trkpt><trkpt lat="45.560567950585735" lon="11.922679403703905"><ele>21.0</ele><time>2026-04-10T09:49:06Z</time></trkpt><trkpt lat="45.560604026694485" lon="11.922766816889547"><ele>21.0</ele><time>2026-04-10T09:49:07.001Z</time></trkpt><trkpt lat="45.56063940832034" lon="11.922847915303345"><ele>21.0</ele><time>2026-04-10T09:49:08.001Z</time></trkpt><trkpt lat="45.56067933265062" lon="11.922924952519027"><ele>21.0</ele><time>2026-04-10T09:49:09.001Z</time></trkpt><trkpt lat="45.5607214962252" lon="11.923000791251383"><ele>21.0</ele><time>2026-04-10T09:49:10.001Z</time></trkpt><trkpt lat="45.56075971727501" lon="11.923072739210852"><ele>21.0</ele><time>2026-04-10T09:49:11.001Z</time></trkpt><trkpt lat="45.56079851317993" lon="11.923145537961235"><ele>21.0</ele><time>2026-04-10T09:49:12.001Z</time></trkpt><trkpt lat="45.56087714788259" lon="11.923284212444422"><ele>21.0</ele><time>2026-04-10T09:49:14.001Z</time></trkpt><trkpt lat="45.56094387819153" lon="11.923415290969725"><ele>21.0</ele><time>2026-04-10T09:49:16.001Z</time></trkpt><trkpt lat="45.560988549945414" lon="11.923525596969613"><ele>21.0</ele><time>2026-04-10T09:49:18.001Z</time></trkpt><trkpt lat="45.561058434695795" lon="11.92361379702519"><ele>20.333333333333332</ele><time>2026-04-10T09:49:20.001Z</time></trkpt><trkpt lat="45.561052021105894" lon="11.923952275322542"><ele>19.666666666666664</ele><time>2026-04-10T09:49:22.001Z</time></trkpt><trkpt lat="45.56098579852979" lon="11.923689891565273"><ele>19.0</ele><time>2026-04-10T09:49:26.001Z</time></trkpt><trkpt lat="45.560884110085354" lon="11.923644691086013"><ele>19.0</ele><time>2026-04-10T09:49:28.001Z</time></trkpt><trkpt lat="45.560772383898524" lon="11.9236029535952"><ele>19.0</ele><time>2026-04-10T09:49:30.001Z</time></trkpt><trkpt lat="45.56065459531835" lon="11.923565476026623"><ele>19.0</ele><time>2026-04-10T09:49:32.001Z</time></trkpt><trkpt lat="45.56053632338112" lon="11.923516468122639"><ele>19.0</ele><time>2026-04-10T09:49:34.001Z</time></trkpt><trkpt lat="45.56041022972486" lon="11.923475220770055"><ele>19.142857142857142</ele><time>2026-04-10T09:49:36.001Z</time></trkpt><trkpt lat="45.56034586868769" lon="11.923448392832505"><ele>19.28571428571429</ele><time>2026-04-10T09:49:37.001Z</time></trkpt><trkpt lat="45.56028312726633" lon="11.923420910423843"><ele>19.42857142857143</ele><time>2026-04-10T09:49:38.001Z</time></trkpt><trkpt lat="45.56019793677288" lon="11.923505410725"><ele>19.57142857142857</ele><time>2026-04-10T09:49:39.001Z</time></trkpt><trkpt lat="45.56013429093871" lon="11.923479739462554"><ele>19.714285714285715</ele><time>2026-04-10T09:49:40.001Z</time></trkpt><trkpt lat="45.5600692388507" lon="11.923453500992583"><ele>19.857142857142858</ele><time>2026-04-10T09:49:41.001Z</time></trkpt><trkpt lat="45.56000388805943" lon="11.92342714204103"><ele>20.0</ele><time>2026-04-10T09:49:42.001Z</time></trkpt><trkpt lat="45.55994023054522" lon="11.923401466066316"><ele>19.8</ele><time>2026-04-10T09:49:43.001Z</time></trkpt><trkpt lat="45.55987414786375" lon="11.923374811900327"><ele>19.6</ele><time>2026-04-10T09:49:44.001Z</time></trkpt><trkpt lat="45.55981227212226" lon="11.923349854602021"><ele>19.4</ele><time>2026-04-10T09:49:45.001Z</time></trkpt><trkpt lat="45.55968928712295" lon="11.923300249143812"><ele>19.2</ele><time>2026-04-10T09:49:47.001Z</time></trkpt><trkpt lat="45.559573379751924" lon="11.923253498423257"><ele>19.0</ele><time>2026-04-10T09:49:49.001Z</time></trkpt><trkpt lat="45.55946261280099" lon="11.92320882107892"><ele>19.0</ele><time>2026-04-10T09:49:51.002Z</time></trkpt><trkpt lat="45.559352077460254" lon="11.923164237145526"><ele>19.0</ele><time>2026-04-10T09:49:53.002Z</time></trkpt><trkpt lat="45.559289944315076" lon="11.923139176015747"><ele>19.0</ele><time>2026-04-10T09:49:54.002Z</time></trkpt><trkpt lat="45.559228866985954" lon="11.923114540753026"><ele>19.0</ele><time>2026-04-10T09:49:55.002Z</time></trkpt><trkpt lat="45.55916749019902" lon="11.92308978470183"><ele>19.0</ele><time>2026-04-10T09:49:56.002Z</time></trkpt><trkpt lat="45.559046905963626" lon="11.92304384150203"><ele>19.0</ele><time>2026-04-10T09:49:58.002Z</time></trkpt><trkpt lat="45.55898584995484" lon="11.92302055782797"><ele>19.0</ele><time>2026-04-10T09:49:59.002Z</time></trkpt><trkpt lat="45.558868310411434" lon="11.922976781759246"><ele>19.0</ele><time>2026-04-10T09:50:01.002Z</time></trkpt><trkpt lat="45.55875016952264" lon="11.922935135358317"><ele>19.0</ele><time>2026-04-10T09:50:03.002Z</time></trkpt><trkpt lat="45.558640904671876" lon="11.922898863449259"><ele>19.0</ele><time>2026-04-10T09:50:05.002Z</time></trkpt><trkpt lat="45.55853062135644" lon="11.92287161296229"><ele>19.0</ele><time>2026-04-10T09:50:07.002Z</time></trkpt><trkpt lat="45.55841426778652" lon="11.922849111702753"><ele>19.0</ele><time>2026-04-10T09:50:09.002Z</time></trkpt><trkpt lat="45.55829325049137" lon="11.922828156601804"><ele>19.0</ele><time>2026-04-10T09:50:11.002Z</time></trkpt><trkpt lat="45.55817458553652" lon="11.922810955976761"><ele>19.0</ele><time>2026-04-10T09:50:13.002Z</time></trkpt><trkpt lat="45.55806735058205" lon="11.922803945535515"><ele>19.0</ele><time>2026-04-10T09:50:15.002Z</time></trkpt><trkpt lat="45.55794672310274" lon="11.922799682981267"><ele>19.0</ele><time>2026-04-10T09:50:17.002Z</time></trkpt><trkpt lat="45.55784944325471" lon="11.922803537621846"><ele>19.0</ele><time>2026-04-10T09:50:19.002Z</time></trkpt><trkpt lat="45.55782389146544" lon="11.922891033810028"><ele>19.0</ele><time>2026-04-10T09:50:21.002Z</time></trkpt><trkpt lat="45.55783233795703" lon="11.92298495591203"><ele>19.0</ele><time>2026-04-10T09:50:22.002Z</time></trkpt><trkpt lat="45.557842372973624" lon="11.923084924150615"><ele>19.0</ele><time>2026-04-10T09:50:23.002Z</time></trkpt><trkpt lat="45.55788333699238" lon="11.923186022740476"><ele>19.0</ele><time>2026-04-10T09:50:25Z</time></trkpt><trkpt lat="45.55798315790969" lon="11.923241219295951"><ele>19.0</ele><time>2026-04-10T09:50:27Z</time></trkpt><trkpt lat="45.55809803057829" lon="11.92323693144746"><ele>19.0</ele><time>2026-04-10T09:50:29Z</time></trkpt><trkpt lat="45.55822134711294" lon="11.923226482619736"><ele>19.0</ele><time>2026-04-10T09:50:31Z</time></trkpt><trkpt lat="45.55828439524221" lon="11.923218165267873"><ele>19.0</ele><time>2026-04-10T09:50:32Z</time></trkpt><trkpt lat="45.558349256461916" lon="11.923212152914092"><ele>19.0</ele><time>2026-04-10T09:50:33Z</time></trkpt><trkpt lat="45.558417194668756" lon="11.923216792413086"><ele>19.0</ele><time>2026-04-10T09:50:34Z</time></trkpt><trkpt lat="45.55848109076338" lon="11.92322779297061"><ele>19.0</ele><time>2026-04-10T09:50:35Z</time></trkpt><trkpt lat="45.5585486637986" lon="11.923247029906365"><ele>19.0</ele><time>2026-04-10T09:50:36Z</time></trkpt><trkpt lat="45.55861210981268" lon="11.923266610236867"><ele>19.0</ele><time>2026-04-10T09:50:37Z</time></trkpt><trkpt lat="45.558674508728785" lon="11.923287997638989"><ele>19.0</ele><time>2026-04-10T09:50:38Z</time></trkpt><trkpt lat="45.55873756486111" lon="11.923305094786562"><ele>19.0</ele><time>2026-04-10T09:50:39Z</time></trkpt><trkpt lat="45.558831640570126" lon="11.923134729291228"><ele>19.0</ele><time>2026-04-10T09:50:40Z</time></trkpt><trkpt lat="45.558898172309" lon="11.923158834755766"><ele>19.0</ele><time>2026-04-10T09:50:41Z</time></trkpt><trkpt lat="45.558959829617464" lon="11.923182347725982"><ele>19.0</ele><time>2026-04-10T09:50:42Z</time></trkpt><trkpt lat="45.55902135475613" lon="11.92320581032145"><ele>19.0</ele><time>2026-04-10T09:50:43Z</time></trkpt><trkpt lat="45.55908504003805" lon="11.92323009666716"><ele>19.0</ele><time>2026-04-10T09:50:44Z</time></trkpt><trkpt lat="45.55914979959149" lon="11.923254792654852"><ele>19.0</ele><time>2026-04-10T09:50:45Z</time></trkpt><trkpt lat="45.55921448836047" lon="11.923281134906896"><ele>19.0</ele><time>2026-04-10T09:50:46Z</time></trkpt><trkpt lat="45.559280911600816" lon="11.92330792642605"><ele>19.0</ele><time>2026-04-10T09:50:47Z</time></trkpt><trkpt lat="45.559346031155386" lon="11.923334192107887"><ele>19.0</ele><time>2026-04-10T09:50:48Z</time></trkpt><trkpt lat="45.55941070076223" lon="11.92336027630457"><ele>19.0</ele><time>2026-04-10T09:50:49Z</time></trkpt><trkpt lat="45.559477480774284" lon="11.923387211730018"><ele>19.0</ele><time>2026-04-10T09:50:50Z</time></trkpt><trkpt lat="45.55954366093017" lon="11.923413905197547"><ele>19.0</ele><time>2026-04-10T09:50:51Z</time></trkpt><trkpt lat="45.5596083468324" lon="11.923439995964355"><ele>19.0</ele><time>2026-04-10T09:50:52Z</time></trkpt><trkpt lat="45.55967269355807" lon="11.923465949926848"><ele>19.0</ele><time>2026-04-10T09:50:53Z</time></trkpt><trkpt lat="45.55973720537386" lon="11.923491970494478"><ele>19.142857142857142</ele><time>2026-04-10T09:50:54Z</time></trkpt><trkpt lat="45.559801249892274" lon="11.92351780254786"><ele>19.28571428571429</ele><time>2026-04-10T09:50:55Z</time></trkpt><trkpt lat="45.559862708727245" lon="11.923542591700214"><ele>19.42857142857143</ele><time>2026-04-10T09:50:56Z</time></trkpt><trkpt lat="45.559926212306884" lon="11.923568205581779"><ele>19.57142857142857</ele><time>2026-04-10T09:50:57Z</time></trkpt><trkpt lat="45.55999005866108" lon="11.923593957716086"><ele>19.714285714285715</ele><time>2026-04-10T09:50:58Z</time></trkpt><trkpt lat="45.5600510241218" lon="11.923618547869008"><ele>19.857142857142858</ele><time>2026-04-10T09:50:59Z</time></trkpt><trkpt lat="45.560116925543696" lon="11.923645128912673"><ele>20.0</ele><time>2026-04-10T09:51:00Z</time></trkpt><trkpt lat="45.56018457636633" lon="11.923672415579974"><ele>20.0</ele><time>2026-04-10T09:51:01Z</time></trkpt><trkpt lat="45.560249853841256" lon="11.923698378084865"><ele>20.0</ele><time>2026-04-10T09:51:02Z</time></trkpt><trkpt lat="45.560316005653696" lon="11.923724550212262"><ele>20.0</ele><time>2026-04-10T09:51:03Z</time></trkpt><trkpt lat="45.56038501867541" lon="11.923751854336846"><ele>20.0</ele><time>2026-04-10T09:51:04Z</time></trkpt><trkpt lat="45.56045388569693" lon="11.923779068532149"><ele>20.0</ele><time>2026-04-10T09:51:05Z</time></trkpt><trkpt lat="45.560521176452866" lon="11.923805568629993"><ele>20.0</ele><time>2026-04-10T09:51:06Z</time></trkpt><trkpt lat="45.56058894135624" lon="11.923832255466273"><ele>20.0</ele><time>2026-04-10T09:51:07Z</time></trkpt><trkpt lat="45.56065348662167" lon="11.923857674337922"><ele>19.857142857142858</ele><time>2026-04-10T09:51:08Z</time></trkpt><trkpt lat="45.56071799051183" lon="11.923883076924037"><ele>19.714285714285715</ele><time>2026-04-10T09:51:09Z</time></trkpt><trkpt lat="45.56078364049733" lon="11.923908930856125"><ele>19.57142857142857</ele><time>2026-04-10T09:51:10.001Z</time></trkpt><trkpt lat="45.560850928423285" lon="11.923935429844716"><ele>19.42857142857143</ele><time>2026-04-10T09:51:11.001Z</time></trkpt><trkpt lat="45.560917566665346" lon="11.923961672970789"><ele>19.28571428571429</ele><time>2026-04-10T09:51:12.001Z</time></trkpt><trkpt lat="45.56098090276869" lon="11.923986298504676"><ele>19.142857142857142</ele><time>2026-04-10T09:51:13.001Z</time></trkpt><trkpt lat="45.561046487297844" lon="11.924011506880955"><ele>19.0</ele><time>2026-04-10T09:51:14.001Z</time></trkpt><trkpt lat="45.561110216060946" lon="11.924036001978163"><ele>19.0</ele><time>2026-04-10T09:51:15.001Z</time></trkpt><trkpt lat="45.56117488697497" lon="11.924060859206225"><ele>19.0</ele><time>2026-04-10T09:51:16.001Z</time></trkpt><trkpt lat="45.56124051362341" lon="11.924086083767085"><ele>19.0</ele><time>2026-04-10T09:51:17.001Z</time></trkpt><trkpt lat="45.56130619961175" lon="11.924110997877683"><ele>19.0</ele><time>2026-04-10T09:51:18.001Z</time></trkpt><trkpt lat="45.561368791867345" lon="11.924134651581923"><ele>19.0</ele><time>2026-04-10T09:51:19.001Z</time></trkpt><trkpt lat="45.561435459980885" lon="11.924159845575812"><ele>19.0</ele><time>2026-04-10T09:51:20.001Z</time></trkpt><trkpt lat="45.5614964771597" lon="11.924182904061826"><ele>19.0</ele><time>2026-04-10T09:51:21.001Z</time></trkpt><trkpt lat="45.561557352554296" lon="11.924205908959626"><ele>19.4</ele><time>2026-04-10T09:51:22.001Z</time></trkpt><trkpt lat="45.56167084956333" lon="11.92424802720103"><ele>19.799999999999997</ele><time>2026-04-10T09:51:24.001Z</time></trkpt><trkpt lat="45.56177352924676" lon="11.924285975705176"><ele>20.200000000000003</ele><time>2026-04-10T09:51:26.001Z</time></trkpt><trkpt lat="45.56186033939235" lon="11.92431805913234"><ele>20.6</ele><time>2026-04-10T09:51:28.001Z</time></trkpt><trkpt lat="45.56195617497413" lon="11.924353478196066"><ele>21.0</ele><time>2026-04-10T09:51:30.001Z</time></trkpt><trkpt lat="45.562066438840965" lon="11.924393533618856"><ele>21.6</ele><time>2026-04-10T09:51:32.001Z</time></trkpt><trkpt lat="45.5621311988507" lon="11.924416961425646"><ele>22.200000000000003</ele><time>2026-04-10T09:51:33.001Z</time></trkpt><trkpt lat="45.5622214372656" lon="11.92444960639788"><ele>22.799999999999997</ele><time>2026-04-10T09:51:35.001Z</time></trkpt><trkpt lat="45.56232611049878" lon="11.92448747335514"><ele>23.4</ele><time>2026-04-10T09:51:37.001Z</time></trkpt><trkpt lat="45.562437499740405" lon="11.924527769929867"><ele>24.0</ele><time>2026-04-10T09:51:39.001Z</time></trkpt><trkpt lat="45.56255106714993" lon="11.924568854465715"><ele>24.0</ele><time>2026-04-10T09:51:41.001Z</time></trkpt><trkpt lat="45.56266529096781" lon="11.924610176471985"><ele>24.0</ele><time>2026-04-10T09:51:43.001Z</time></trkpt><trkpt lat="45.56278203370075" lon="11.924652409738739"><ele>24.0</ele><time>2026-04-10T09:51:45.001Z</time></trkpt><trkpt lat="45.562899837676" lon="11.924695026918231"><ele>24.0</ele><time>2026-04-10T09:51:47.001Z</time></trkpt><trkpt lat="45.56302474516271" lon="11.924740476854103"><ele>23.4</ele><time>2026-04-10T09:51:49.001Z</time></trkpt><trkpt lat="45.56308754222607" lon="11.92476358299284"><ele>22.799999999999997</ele><time>2026-04-10T09:51:50.002Z</time></trkpt><trkpt lat="45.563192609468146" lon="11.924802242351195"><ele>22.200000000000003</ele><time>2026-04-10T09:51:52.002Z</time></trkpt><trkpt lat="45.56329080513402" lon="11.924834741611221"><ele>21.6</ele><time>2026-04-10T09:51:54.002Z</time></trkpt><trkpt lat="45.563389564783954" lon="11.924863654991768"><ele>21.0</ele><time>2026-04-10T09:51:56.002Z</time></trkpt><trkpt lat="45.56348497285075" lon="11.92488644849149"><ele>21.0</ele><time>2026-04-10T09:51:58.002Z</time></trkpt><trkpt lat="45.563587634481934" lon="11.924904430250491"><ele>21.0</ele><time>2026-04-10T09:52:00.002Z</time></trkpt><trkpt lat="45.563651940694534" lon="11.924914287010226"><ele>21.0</ele><time>2026-04-10T09:52:01.002Z</time></trkpt><trkpt lat="45.563754518005396" lon="11.924970951479333"><ele>21.0</ele><time>2026-04-10T09:52:03.002Z</time></trkpt><trkpt lat="45.5638648353985" lon="11.925075946492358"><ele>21.0</ele><time>2026-04-10T09:52:05.002Z</time></trkpt><trkpt lat="45.56392843304097" lon="11.925130985428014"><ele>21.200000000000003</ele><time>2026-04-10T09:52:06.002Z</time></trkpt><trkpt lat="45.56403485272853" lon="11.92524447819176"><ele>21.400000000000002</ele><time>2026-04-10T09:52:08.002Z</time></trkpt><trkpt lat="45.564134742922015" lon="11.92535923139711"><ele>21.6</ele><time>2026-04-10T09:52:10.002Z</time></trkpt><trkpt lat="45.56420133798401" lon="11.925421770665231"><ele>21.8</ele><time>2026-04-10T09:52:11.002Z</time></trkpt><trkpt lat="45.56426756071649" lon="11.925488027177767"><ele>22.0</ele><time>2026-04-10T09:52:12.002Z</time></trkpt><trkpt lat="45.564332035039214" lon="11.925555455121053"><ele>21.5</ele><time>2026-04-10T09:52:13.002Z</time></trkpt><trkpt lat="45.56441199312022" lon="11.926105126748965"><ele>21.0</ele><time>2026-04-10T09:52:14.002Z</time></trkpt><trkpt lat="45.564481270137826" lon="11.926126181151002"><ele>21.0</ele><time>2026-04-10T09:52:15.002Z</time></trkpt><trkpt lat="45.56455200781345" lon="11.926154189385388"><ele>21.0</ele><time>2026-04-10T09:52:16.002Z</time></trkpt><trkpt lat="45.564612443263" lon="11.926181947090466"><ele>21.0</ele><time>2026-04-10T09:52:17.002Z</time></trkpt><trkpt lat="45.56467725123402" lon="11.926214271553048"><ele>21.0</ele><time>2026-04-10T09:52:18.002Z</time></trkpt><trkpt lat="45.56474095589698" lon="11.926234561209034"><ele>21.0</ele><time>2026-04-10T09:52:19.002Z</time></trkpt><trkpt lat="45.564810670778904" lon="11.926250493810182"><ele>21.0</ele><time>2026-04-10T09:52:20.002Z</time></trkpt><trkpt lat="45.5648831323158" lon="11.926240313387511"><ele>21.0</ele><time>2026-04-10T09:52:21.002Z</time></trkpt><trkpt lat="45.56494882372963" lon="11.926251823809421"><ele>21.0</ele><time>2026-04-10T09:52:22.002Z</time></trkpt><trkpt lat="45.56501098570677" lon="11.926286356357336"><ele>21.0</ele><time>2026-04-10T09:52:23.002Z</time></trkpt><trkpt lat="45.56507347741732" lon="11.926319513728494"><ele>21.0</ele><time>2026-04-10T09:52:24.002Z</time></trkpt><trkpt lat="45.56513896117461" lon="11.926345442545204"><ele>21.0</ele><time>2026-04-10T09:52:25.002Z</time></trkpt><trkpt lat="45.56520099100301" lon="11.926372412122381"><ele>21.0</ele><time>2026-04-10T09:52:26.002Z</time></trkpt><trkpt lat="45.56526817196902" lon="11.926394904049232"><ele>21.0</ele><time>2026-04-10T09:52:27.002Z</time></trkpt><trkpt lat="45.56533332657047" lon="11.926407363222737"><ele>21.0</ele><time>2026-04-10T09:52:28.002Z</time></trkpt><trkpt lat="45.565400729282494" lon="11.926422761671502"><ele>21.0</ele><time>2026-04-10T09:52:29.002Z</time></trkpt><trkpt lat="45.56546736325823" lon="11.92643658049894"><ele>21.0</ele><time>2026-04-10T09:52:30.002Z</time></trkpt><trkpt lat="45.565535271715" lon="11.926454631504704"><ele>21.0</ele><time>2026-04-10T09:52:31Z</time></trkpt><trkpt lat="45.56560179948801" lon="11.926471623510082"><ele>21.0</ele><time>2026-04-10T09:52:32Z</time></trkpt><trkpt lat="45.5656648758326" lon="11.926492249752025"><ele>21.0</ele><time>2026-04-10T09:52:33Z</time></trkpt><trkpt lat="45.565729556671165" lon="11.926512487306576"><ele>21.0</ele><time>2026-04-10T09:52:34Z</time></trkpt><trkpt lat="45.56579541205626" lon="11.926529653121367"><ele>21.0</ele><time>2026-04-10T09:52:35Z</time></trkpt><trkpt lat="45.565862554413464" lon="11.926550343355144"><ele>21.0</ele><time>2026-04-10T09:52:36Z</time></trkpt><trkpt lat="45.5659292890895" lon="11.92656809819666"><ele>21.0</ele><time>2026-04-10T09:52:37Z</time></trkpt><trkpt lat="45.56599421748373" lon="11.926595980830655"><ele>21.0</ele><time>2026-04-10T09:52:38Z</time></trkpt><trkpt lat="45.56605816071208" lon="11.926628448799605"><ele>21.0</ele><time>2026-04-10T09:52:39Z</time></trkpt><trkpt lat="45.566120602055854" lon="11.926648710012717"><ele>21.0</ele><time>2026-04-10T09:52:40Z</time></trkpt><trkpt lat="45.566185528374525" lon="11.926669072152631"><ele>21.0</ele><time>2026-04-10T09:52:41Z</time></trkpt><trkpt lat="45.56624933745695" lon="11.926693016614486"><ele>21.0</ele><time>2026-04-10T09:52:42Z</time></trkpt><trkpt lat="45.56631323248556" lon="11.926717706717174"><ele>21.0</ele><time>2026-04-10T09:52:43Z</time></trkpt><trkpt lat="45.566378719180896" lon="11.926741624536325"><ele>21.0</ele><time>2026-04-10T09:52:44Z</time></trkpt><trkpt lat="45.5664493407739" lon="11.926766734297834"><ele>21.0</ele><time>2026-04-10T09:52:45Z</time></trkpt><trkpt lat="45.56651591135723" lon="11.92679258518531"><ele>21.0</ele><time>2026-04-10T09:52:46Z</time></trkpt><trkpt lat="45.566579939332904" lon="11.926817130908665"><ele>21.0</ele><time>2026-04-10T09:52:47Z</time></trkpt><trkpt lat="45.566644276103126" lon="11.926846892524994"><ele>21.0</ele><time>2026-04-10T09:52:48Z</time></trkpt><trkpt lat="45.56671120278986" lon="11.926875500959943"><ele>21.0</ele><time>2026-04-10T09:52:49Z</time></trkpt><trkpt lat="45.5667792522328" lon="11.926901023815617"><ele>21.0</ele><time>2026-04-10T09:52:50Z</time></trkpt><trkpt lat="45.566846746896026" lon="11.926922528586108"><ele>21.0</ele><time>2026-04-10T09:52:51Z</time></trkpt><trkpt lat="45.566910630392684" lon="11.926944885568627"><ele>21.0</ele><time>2026-04-10T09:52:52Z</time></trkpt><trkpt lat="45.56697683840135" lon="11.926967614978762"><ele>21.0</ele><time>2026-04-10T09:52:53Z</time></trkpt><trkpt lat="45.56703930797701" lon="11.926992927325548"><ele>21.0</ele><time>2026-04-10T09:52:54Z</time></trkpt><trkpt lat="45.56710537676701" lon="11.927022845055694"><ele>21.0</ele><time>2026-04-10T09:52:55Z</time></trkpt><trkpt lat="45.56717497992707" lon="11.92704785527388"><ele>21.0</ele><time>2026-04-10T09:52:56Z</time></trkpt><trkpt lat="45.567245143141925" lon="11.927066620926283"><ele>21.142857142857142</ele><time>2026-04-10T09:52:57Z</time></trkpt><trkpt lat="45.567310403113595" lon="11.927089514801684"><ele>21.285714285714285</ele><time>2026-04-10T09:52:58Z</time></trkpt><trkpt lat="45.5673752546328" lon="11.92711504482612"><ele>21.42857142857143</ele><time>2026-04-10T09:52:59Z</time></trkpt><trkpt lat="45.567438210345045" lon="11.927145790693883"><ele>21.57142857142857</ele><time>2026-04-10T09:53:00Z</time></trkpt><trkpt lat="45.56750401889908" lon="11.927176039560097"><ele>21.714285714285715</ele><time>2026-04-10T09:53:01Z</time></trkpt><trkpt lat="45.567568695308545" lon="11.927202115716458"><ele>21.857142857142858</ele><time>2026-04-10T09:53:02Z</time></trkpt><trkpt lat="45.56763623208686" lon="11.927226276856937"><ele>22.0</ele><time>2026-04-10T09:53:03Z</time></trkpt><trkpt lat="45.567701256499305" lon="11.927248506072706"><ele>22.0</ele><time>2026-04-10T09:53:04Z</time></trkpt><trkpt lat="45.56776382542603" lon="11.927267422171884"><ele>22.0</ele><time>2026-04-10T09:53:05Z</time></trkpt><trkpt lat="45.56782658746094" lon="11.927297264059115"><ele>22.0</ele><time>2026-04-10T09:53:06Z</time></trkpt><trkpt lat="45.56788943513699" lon="11.927328097427619"><ele>22.0</ele><time>2026-04-10T09:53:07Z</time></trkpt><trkpt lat="45.56795376949544" lon="11.927352642999207"><ele>22.0</ele><time>2026-04-10T09:53:08Z</time></trkpt><trkpt lat="45.56801685665566" lon="11.927372612885877"><ele>22.0</ele><time>2026-04-10T09:53:09Z</time></trkpt><trkpt lat="45.56808061421765" lon="11.927400339407148"><ele>22.0</ele><time>2026-04-10T09:53:10Z</time></trkpt><trkpt lat="45.568142656838894" lon="11.927425392873031"><ele>22.0</ele><time>2026-04-10T09:53:11.001Z</time></trkpt><trkpt lat="45.56820567037716" lon="11.927452742071218"><ele>22.0</ele><time>2026-04-10T09:53:12.001Z</time></trkpt><trkpt lat="45.568265392736706" lon="11.92748167060474"><ele>22.0</ele><time>2026-04-10T09:53:13.001Z</time></trkpt><trkpt lat="45.56832726135228" lon="11.927504787738316"><ele>22.0</ele><time>2026-04-10T09:53:14.001Z</time></trkpt><trkpt lat="45.56838930865298" lon="11.927533265329298"><ele>22.0</ele><time>2026-04-10T09:53:15.001Z</time></trkpt><trkpt lat="45.56845248684126" lon="11.92756244892182"><ele>22.0</ele><time>2026-04-10T09:53:16.001Z</time></trkpt><trkpt lat="45.56851595521397" lon="11.927591319471693"><ele>22.0</ele><time>2026-04-10T09:53:17.001Z</time></trkpt><trkpt lat="45.56857949048094" lon="11.927616891190684"><ele>22.0</ele><time>2026-04-10T09:53:18.001Z</time></trkpt><trkpt lat="45.56864341647423" lon="11.92764170650061"><ele>22.0</ele><time>2026-04-10T09:53:19.001Z</time></trkpt><trkpt lat="45.56870873965122" lon="11.927667441083619"><ele>22.0</ele><time>2026-04-10T09:53:20.001Z</time></trkpt><trkpt lat="45.56877513686533" lon="11.927690147156877"><ele>22.0</ele><time>2026-04-10T09:53:21.001Z</time></trkpt><trkpt lat="45.568898032969095" lon="11.927739335498002"><ele>22.0</ele><time>2026-04-10T09:53:23.001Z</time></trkpt><trkpt lat="45.568962936464644" lon="11.927767930572486"><ele>22.0</ele><time>2026-04-10T09:53:24.001Z</time></trkpt><trkpt lat="45.56902672899387" lon="11.927799963060869"><ele>22.0</ele><time>2026-04-10T09:53:25.001Z</time></trkpt><trkpt lat="45.56909096591705" lon="11.927831708991317"><ele>22.0</ele><time>2026-04-10T09:53:26.001Z</time></trkpt><trkpt lat="45.569157805472926" lon="11.927859268698406"><ele>22.0</ele><time>2026-04-10T09:53:27.001Z</time></trkpt><trkpt lat="45.56922270021468" lon="11.92788767790846"><ele>22.0</ele><time>2026-04-10T09:53:28.001Z</time></trkpt><trkpt lat="45.569283201894265" lon="11.927913918167626"><ele>22.0</ele><time>2026-04-10T09:53:29.001Z</time></trkpt><trkpt lat="45.56934813492518" lon="11.927947624647743"><ele>22.0</ele><time>2026-04-10T09:53:30.001Z</time></trkpt><trkpt lat="45.56941271208532" lon="11.927974422221244"><ele>22.0</ele><time>2026-04-10T09:53:31.001Z</time></trkpt><trkpt lat="45.569477425791554" lon="11.927997831799475"><ele>21.857142857142858</ele><time>2026-04-10T09:53:32.001Z</time></trkpt><trkpt lat="45.56954243646635" lon="11.928022247619616"><ele>21.714285714285715</ele><time>2026-04-10T09:53:33.001Z</time></trkpt><trkpt lat="45.569605099326054" lon="11.928043550846162"><ele>21.57142857142857</ele><time>2026-04-10T09:53:34.001Z</time></trkpt><trkpt lat="45.56966617570701" lon="11.928067805200342"><ele>21.42857142857143</ele><time>2026-04-10T09:53:35.001Z</time></trkpt><trkpt lat="45.569728293355496" lon="11.928091739279129"><ele>21.285714285714285</ele><time>2026-04-10T09:53:36.001Z</time></trkpt><trkpt lat="45.56979063033784" lon="11.928118965437669"><ele>21.142857142857142</ele><time>2026-04-10T09:53:37.001Z</time></trkpt><trkpt lat="45.569854374464654" lon="11.928148427138796"><ele>21.0</ele><time>2026-04-10T09:53:38.001Z</time></trkpt><trkpt lat="45.569914240736814" lon="11.928180386359784"><ele>21.0</ele><time>2026-04-10T09:53:39.001Z</time></trkpt><trkpt lat="45.56997713108712" lon="11.928201814581453"><ele>21.0</ele><time>2026-04-10T09:53:40.001Z</time></trkpt><trkpt lat="45.570041189165835" lon="11.928226166926981"><ele>21.0</ele><time>2026-04-10T09:53:41.001Z</time></trkpt><trkpt lat="45.57010685163257" lon="11.928250224621758"><ele>21.0</ele><time>2026-04-10T09:53:42.001Z</time></trkpt><trkpt lat="45.57017099215189" lon="11.92827861546399"><ele>21.0</ele><time>2026-04-10T09:53:43.001Z</time></trkpt><trkpt lat="45.570234688660555" lon="11.92830692347212"><ele>21.0</ele><time>2026-04-10T09:53:44.001Z</time></trkpt><trkpt lat="45.570301134681245" lon="11.928339996625983"><ele>21.0</ele><time>2026-04-10T09:53:45.001Z</time></trkpt><trkpt lat="45.57036252935074" lon="11.928366808310633"><ele>21.0</ele><time>2026-04-10T09:53:46.001Z</time></trkpt><trkpt lat="45.570426698269685" lon="11.928386098381994"><ele>21.0</ele><time>2026-04-10T09:53:47.001Z</time></trkpt><trkpt lat="45.570492755701395" lon="11.928407578304824"><ele>21.0</ele><time>2026-04-10T09:53:48.001Z</time></trkpt><trkpt lat="45.57056066618508" lon="11.92843545176352"><ele>21.0</ele><time>2026-04-10T09:53:49.001Z</time></trkpt><trkpt lat="45.57062380794746" lon="11.928458972482344"><ele>21.0</ele><time>2026-04-10T09:53:50.002Z</time></trkpt><trkpt lat="45.570687993889564" lon="11.9284897244815"><ele>21.0</ele><time>2026-04-10T09:53:51.002Z</time></trkpt><trkpt lat="45.5707510150692" lon="11.92851763910724"><ele>21.0</ele><time>2026-04-10T09:53:52.002Z</time></trkpt><trkpt lat="45.57081470315119" lon="11.928547685944904"><ele>21.0</ele><time>2026-04-10T09:53:53.002Z</time></trkpt><trkpt lat="45.57087742482868" lon="11.928584769205477"><ele>21.0</ele><time>2026-04-10T09:53:54.002Z</time></trkpt><trkpt lat="45.570941435189994" lon="11.928620894182076"><ele>21.0</ele><time>2026-04-10T09:53:55.002Z</time></trkpt><trkpt lat="45.57100501282036" lon="11.928659558655076"><ele>21.0</ele><time>2026-04-10T09:53:56.002Z</time></trkpt><trkpt lat="45.57106827428875" lon="11.928699117932306"><ele>21.0</ele><time>2026-04-10T09:53:57.002Z</time></trkpt><trkpt lat="45.57113007399821" lon="11.928742919649109"><ele>21.0</ele><time>2026-04-10T09:53:58.002Z</time></trkpt><trkpt lat="45.57124624661886" lon="11.928828895070753"><ele>21.0</ele><time>2026-04-10T09:54:00.002Z</time></trkpt><trkpt lat="45.5713108765623" lon="11.92887023527299"><ele>21.0</ele><time>2026-04-10T09:54:01.002Z</time></trkpt><trkpt lat="45.57141159592105" lon="11.928781400005096"><ele>21.0</ele><time>2026-04-10T09:54:02.002Z</time></trkpt><trkpt lat="45.57147126615338" lon="11.92882015012884"><ele>21.0</ele><time>2026-04-10T09:54:03.002Z</time></trkpt><trkpt lat="45.57152777883445" lon="11.92886047530443"><ele>21.0</ele><time>2026-04-10T09:54:04.002Z</time></trkpt><trkpt lat="45.571587296907985" lon="11.928902944559653"><ele>21.0</ele><time>2026-04-10T09:54:05.002Z</time></trkpt><trkpt lat="45.5716940026713" lon="11.928979083945773"><ele>21.0</ele><time>2026-04-10T09:54:07.002Z</time></trkpt><trkpt lat="45.57175470068148" lon="11.929171399246577"><ele>21.0</ele><time>2026-04-10T09:54:09.002Z</time></trkpt><trkpt lat="45.571854875570104" lon="11.929226809320214"><ele>21.0</ele><time>2026-04-10T09:54:11.002Z</time></trkpt><trkpt lat="45.571965751718366" lon="11.929280604410135"><ele>21.0</ele><time>2026-04-10T09:54:13.002Z</time></trkpt><trkpt lat="45.57202118697099" lon="11.929326360083401"><ele>21.0</ele><time>2026-04-10T09:54:14.002Z</time></trkpt><trkpt lat="45.57211611958877" lon="11.929413677144847"><ele>21.6</ele><time>2026-04-10T09:54:16.002Z</time></trkpt><trkpt lat="45.57222603065512" lon="11.929418680761714"><ele>22.200000000000003</ele><time>2026-04-10T09:54:18.002Z</time></trkpt><trkpt lat="45.57229948562807" lon="11.92933086413943"><ele>22.799999999999997</ele><time>2026-04-10T09:54:20.002Z</time></trkpt><trkpt lat="45.57235959858082" lon="11.929371707959943"><ele>23.4</ele><time>2026-04-10T09:54:22.002Z</time></trkpt><trkpt lat="45.57245492538093" lon="11.929451852795617"><ele>24.0</ele><time>2026-04-10T09:54:25.002Z</time></trkpt><trkpt lat="45.572558412297816" lon="11.929493195125165"><ele>24.0</ele><time>2026-04-10T09:54:27.002Z</time></trkpt><trkpt lat="45.57267030496058" lon="11.929513457078164"><ele>24.0</ele><time>2026-04-10T09:54:29.003Z</time></trkpt><trkpt lat="45.57278333844238" lon="11.929515210399144"><ele>24.0</ele><time>2026-04-10T09:54:31.003Z</time></trkpt><trkpt lat="45.572897857508934" lon="11.929498518971034"><ele>24.0</ele><time>2026-04-10T09:54:33.003Z</time></trkpt><trkpt lat="45.57296145815462" lon="11.92948084403439"><ele>24.0</ele><time>2026-04-10T09:54:34.003Z</time></trkpt><trkpt lat="45.573062794863624" lon="11.929429469913664"><ele>23.4</ele><time>2026-04-10T09:54:36.003Z</time></trkpt><trkpt lat="45.57314578044263" lon="11.929377248276664"><ele>22.799999999999997</ele><time>2026-04-10T09:54:38Z</time></trkpt><trkpt lat="45.57325953755044" lon="11.929357556535807"><ele>22.200000000000003</ele><time>2026-04-10T09:54:40Z</time></trkpt><trkpt lat="45.573321825277596" lon="11.929448108096794"><ele>21.6</ele><time>2026-04-10T09:54:41Z</time></trkpt><trkpt lat="45.57341269333939" lon="11.929427921373783"><ele>21.0</ele><time>2026-04-10T09:54:43Z</time></trkpt><trkpt lat="45.57347983388979" lon="11.929416831028075"><ele>21.0</ele><time>2026-04-10T09:54:45Z</time></trkpt><trkpt lat="45.573558259373115" lon="11.929411311123799"><ele>21.0</ele><time>2026-04-10T09:54:48Z</time></trkpt><trkpt lat="45.573648934179275" lon="11.929418286683385"><ele>21.0</ele><time>2026-04-10T09:54:51Z</time></trkpt><trkpt lat="45.573712981332065" lon="11.929505175272299"><ele>21.0</ele><time>2026-04-10T09:54:55Z</time></trkpt><trkpt lat="45.573757898258854" lon="11.929586488845562"><ele>21.0</ele><time>2026-04-10T09:54:57Z</time></trkpt><trkpt lat="45.57378882457924" lon="11.929666906958595"><ele>21.0</ele><time>2026-04-10T09:54:59Z</time></trkpt><trkpt lat="45.57381636370728" lon="11.929780356845612"><ele>21.333333333333332</ele><time>2026-04-10T09:55:01Z</time></trkpt><trkpt lat="45.57382337090865" lon="11.929881203303127"><ele>21.666666666666668</ele><time>2026-04-10T09:55:03Z</time></trkpt><trkpt lat="45.573951375340584" lon="11.929916209939972"><ele>22.0</ele><time>2026-04-10T09:55:07Z</time></trkpt><trkpt lat="45.574041294654755" lon="11.92992144369122"><ele>22.333333333333336</ele><time>2026-04-10T09:55:09Z</time></trkpt><trkpt lat="45.57411180387815" lon="11.929927367182696"><ele>22.666666666666668</ele><time>2026-04-10T09:55:11Z</time></trkpt><trkpt lat="45.574174844011324" lon="11.929936371466184"><ele>23.0</ele><time>2026-04-10T09:55:14Z</time></trkpt><trkpt lat="45.574084003293336" lon="11.929958021368337"><ele>23.0</ele><time>2026-04-10T09:55:18.001Z</time></trkpt><trkpt lat="45.57400307540274" lon="11.929939702459675"><ele>23.0</ele><time>2026-04-10T09:55:20.001Z</time></trkpt><trkpt lat="45.57393920512955" lon="11.929939222410669"><ele>23.0</ele><time>2026-04-10T09:55:23.001Z</time></trkpt><trkpt lat="45.57394098238598" lon="11.930153796177033"><ele>23.0</ele><time>2026-04-10T09:55:28.001Z</time></trkpt><trkpt lat="45.57394556241535" lon="11.930247280181419"><ele>23.0</ele><time>2026-04-10T09:55:29.001Z</time></trkpt><trkpt lat="45.57379544980528" lon="11.930313992273364"><ele>23.0</ele><time>2026-04-10T09:55:30.001Z</time></trkpt><trkpt lat="45.57379212309258" lon="11.93040621442342"><ele>23.0</ele><time>2026-04-10T09:55:32.001Z</time></trkpt><trkpt lat="45.57378865353558" lon="11.930502396425174"><ele>23.0</ele><time>2026-04-10T09:55:35.016Z</time></trkpt><trkpt lat="45.57378424884295" lon="11.93062450212745"><ele>23.0</ele><time>2026-04-10T09:55:38.017Z</time></trkpt><trkpt lat="45.57381092574966" lon="11.930872220557118"><ele>23.0</ele><time>2026-04-10T09:55:42.001Z</time></trkpt><trkpt lat="45.573848321414715" lon="11.930649540244227"><ele>23.0</ele><time>2026-04-10T09:55:43.001Z</time></trkpt><trkpt lat="45.57383206782031" lon="11.930761705480995"><ele>23.0</ele><time>2026-04-10T09:55:45.001Z</time></trkpt><trkpt lat="45.57390400807301" lon="11.93075012413595"><ele>23.0</ele><time>2026-04-10T09:55:48.001Z</time></trkpt><trkpt lat="45.57395687300342" lon="11.930799203042845"><ele>23.0</ele><time>2026-04-10T09:55:50.001Z</time></trkpt><trkpt lat="45.57403222741152" lon="11.930841381158984"><ele>23.0</ele><time>2026-04-10T09:55:53.002Z</time></trkpt><trkpt lat="45.573974015962406" lon="11.930775495578823"><ele>23.0</ele><time>2026-04-10T09:56:01.002Z</time></trkpt><trkpt lat="45.57388925076247" lon="11.930738661372235"><ele>23.0</ele><time>2026-04-10T09:56:04.002Z</time></trkpt><trkpt lat="45.573811397483176" lon="11.930704830639641"><ele>23.0</ele><time>2026-04-10T09:56:07.002Z</time></trkpt><trkpt lat="45.573748360680504" lon="11.930677438575291"><ele>23.0</ele><time>2026-04-10T09:56:11.002Z</time></trkpt><trkpt lat="45.57384126440518" lon="11.9306930291854"><ele>23.0</ele><time>2026-04-10T09:56:31.003Z</time></trkpt><trkpt lat="45.573908659733206" lon="11.930722315365506"><ele>23.0</ele><time>2026-04-10T09:56:33.003Z</time></trkpt><trkpt lat="45.573993064925915" lon="11.930758993160019"><ele>23.0</ele><time>2026-04-10T09:56:36.003Z</time></trkpt><trkpt lat="45.57409485121884" lon="11.930803223654461"><ele>23.0</ele><time>2026-04-10T09:56:38.003Z</time></trkpt><trkpt lat="45.57419704598373" lon="11.930847631712489"><ele>23.0</ele><time>2026-04-10T09:56:40.003Z</time></trkpt><trkpt lat="45.574312039452295" lon="11.930897601398692"><ele>23.0</ele><time>2026-04-10T09:56:42.003Z</time></trkpt><trkpt lat="45.57441836977465" lon="11.930943806607715"><ele>23.0</ele><time>2026-04-10T09:56:44Z</time></trkpt><trkpt lat="45.574482387930146" lon="11.930971625303451"><ele>23.0</ele><time>2026-04-10T09:56:45Z</time></trkpt><trkpt lat="45.57460086878282" lon="11.931023110309395"><ele>22.833333333333336</ele><time>2026-04-10T09:56:47Z</time></trkpt><trkpt lat="45.57466308385041" lon="11.931050145480606"><ele>22.666666666666668</ele><time>2026-04-10T09:56:48Z</time></trkpt><trkpt lat="45.574774697013794" lon="11.931098645647781"><ele>22.5</ele><time>2026-04-10T09:56:50Z</time></trkpt><trkpt lat="45.574839572287075" lon="11.931126836014531"><ele>22.333333333333332</ele><time>2026-04-10T09:56:51Z</time></trkpt><trkpt lat="45.574961873678134" lon="11.931179957090018"><ele>22.166666666666664</ele><time>2026-04-10T09:56:53Z</time></trkpt><trkpt lat="45.575022975636706" lon="11.931206387254532"><ele>22.0</ele><time>2026-04-10T09:56:54Z</time></trkpt><trkpt lat="45.57508757820832" lon="11.931234331652588"><ele>22.0</ele><time>2026-04-10T09:56:55Z</time></trkpt><trkpt lat="45.57515280671013" lon="11.931262546732407"><ele>22.0</ele><time>2026-04-10T09:56:56Z</time></trkpt><trkpt lat="45.57521924248087" lon="11.931291284103319"><ele>22.0</ele><time>2026-04-10T09:56:57Z</time></trkpt><trkpt lat="45.575285513032476" lon="11.931319949966273"><ele>22.0</ele><time>2026-04-10T09:56:58Z</time></trkpt><trkpt lat="45.57535066043194" lon="11.93134812996231"><ele>22.0</ele><time>2026-04-10T09:56:59Z</time></trkpt><trkpt lat="45.575411435286966" lon="11.931374418646872"><ele>22.0</ele><time>2026-04-10T09:57:00Z</time></trkpt><trkpt lat="45.575482254858485" lon="11.931405052265601"><ele>22.0</ele><time>2026-04-10T09:57:01Z</time></trkpt><trkpt lat="45.57554916886125" lon="11.931433996430597"><ele>22.0</ele><time>2026-04-10T09:57:02Z</time></trkpt><trkpt lat="45.57561310537786" lon="11.931461831613774"><ele>22.0</ele><time>2026-04-10T09:57:03Z</time></trkpt><trkpt lat="45.57567840764858" lon="11.93149073519656"><ele>22.0</ele><time>2026-04-10T09:57:04Z</time></trkpt><trkpt lat="45.575746430364596" lon="11.931520842918939"><ele>22.0</ele><time>2026-04-10T09:57:05Z</time></trkpt><trkpt lat="45.57581536353194" lon="11.931550672406253"><ele>22.0</ele><time>2026-04-10T09:57:06Z</time></trkpt><trkpt lat="45.57587894531452" lon="11.931578119847764"><ele>22.0</ele><time>2026-04-10T09:57:07Z</time></trkpt><trkpt lat="45.575947769137215" lon="11.931607830110792"><ele>22.0</ele><time>2026-04-10T09:57:08Z</time></trkpt><trkpt lat="45.57601410118916" lon="11.931636464803864"><ele>22.0</ele><time>2026-04-10T09:57:09Z</time></trkpt><trkpt lat="45.576076496576576" lon="11.931663400032651"><ele>22.0</ele><time>2026-04-10T09:57:10Z</time></trkpt><trkpt lat="45.57614241113872" lon="11.93169185449277"><ele>22.0</ele><time>2026-04-10T09:57:11Z</time></trkpt><trkpt lat="45.57620484021868" lon="11.931718804302546"><ele>22.0</ele><time>2026-04-10T09:57:12Z</time></trkpt><trkpt lat="45.57626751944515" lon="11.931745862099609"><ele>22.0</ele><time>2026-04-10T09:57:13Z</time></trkpt><trkpt lat="45.57633196156008" lon="11.931773680882598"><ele>22.0</ele><time>2026-04-10T09:57:14Z</time></trkpt><trkpt lat="45.5763963917398" lon="11.93180149455007"><ele>22.0</ele><time>2026-04-10T09:57:15Z</time></trkpt><trkpt lat="45.57645890178191" lon="11.931830110230269"><ele>22.0</ele><time>2026-04-10T09:57:16Z</time></trkpt><trkpt lat="45.576571645949336" lon="11.93188956950089"><ele>22.0</ele><time>2026-04-10T09:57:18.001Z</time></trkpt><trkpt lat="45.5766747732055" lon="11.931962864849371"><ele>22.0</ele><time>2026-04-10T09:57:20.001Z</time></trkpt><trkpt lat="45.57676344364506" lon="11.93204875918753"><ele>22.0</ele><time>2026-04-10T09:57:22.001Z</time></trkpt><trkpt lat="45.57685793365289" lon="11.932155623507695"><ele>22.0</ele><time>2026-04-10T09:57:24.001Z</time></trkpt><trkpt lat="45.57694858885186" lon="11.932330220976683"><ele>22.0</ele><time>2026-04-10T09:57:26.001Z</time></trkpt><trkpt lat="45.57706307303513" lon="11.932416425956442"><ele>22.0</ele><time>2026-04-10T09:57:27.001Z</time></trkpt><trkpt lat="45.57713318107616" lon="11.932445793791121"><ele>22.0</ele><time>2026-04-10T09:57:28.001Z</time></trkpt><trkpt lat="45.577217389931334" lon="11.932471127306265"><ele>22.0</ele><time>2026-04-10T09:57:29.001Z</time></trkpt><trkpt lat="45.577517278879185" lon="11.932355576067655"><ele>22.0</ele><time>2026-04-10T09:57:32.001Z</time></trkpt><trkpt lat="45.57757210705552" lon="11.932267157893886"><ele>22.0</ele><time>2026-04-10T09:57:33.001Z</time></trkpt><trkpt lat="45.57762102619057" lon="11.932431777530006"><ele>22.0</ele><time>2026-04-10T09:57:36.001Z</time></trkpt><trkpt lat="45.577728948633975" lon="11.93249962562754"><ele>22.0</ele><time>2026-04-10T09:57:38.001Z</time></trkpt><trkpt lat="45.577783571309425" lon="11.932549284232792"><ele>22.0</ele><time>2026-04-10T09:57:39.001Z</time></trkpt><trkpt lat="45.57784278881732" lon="11.932593144381398"><ele>22.0</ele><time>2026-04-10T09:57:40.001Z</time></trkpt><trkpt lat="45.57790024042151" lon="11.93264284090364"><ele>22.0</ele><time>2026-04-10T09:57:41.001Z</time></trkpt><trkpt lat="45.577957023688406" lon="11.932686687273911"><ele>22.0</ele><time>2026-04-10T09:57:42.001Z</time></trkpt><trkpt lat="45.57801476976306" lon="11.932735811113417"><ele>22.0</ele><time>2026-04-10T09:57:43.001Z</time></trkpt><trkpt lat="45.578070979482895" lon="11.932783697181842"><ele>22.0</ele><time>2026-04-10T09:57:44.001Z</time></trkpt><trkpt lat="45.57813077304338" lon="11.932834422550798"><ele>22.0</ele><time>2026-04-10T09:57:45.001Z</time></trkpt><trkpt lat="45.578186552333484" lon="11.932881679746094"><ele>22.0</ele><time>2026-04-10T09:57:46.001Z</time></trkpt><trkpt lat="45.57823990423497" lon="11.932934577649585"><ele>22.0</ele><time>2026-04-10T09:57:47.001Z</time></trkpt><trkpt lat="45.57829951114789" lon="11.932978140504385"><ele>22.0</ele><time>2026-04-10T09:57:48.001Z</time></trkpt><trkpt lat="45.57836252156004" lon="11.933022123474247"><ele>22.0</ele><time>2026-04-10T09:57:49.001Z</time></trkpt><trkpt lat="45.57841752030069" lon="11.933071068213614"><ele>22.0</ele><time>2026-04-10T09:57:50.001Z</time></trkpt><trkpt lat="45.5784765149879" lon="11.933127149367127"><ele>22.0</ele><time>2026-04-10T09:57:51.001Z</time></trkpt><trkpt lat="45.57853754695688" lon="11.933175147745045"><ele>22.0</ele><time>2026-04-10T09:57:52.001Z</time></trkpt><trkpt lat="45.57858835603598" lon="11.933230671507083"><ele>22.0</ele><time>2026-04-10T09:57:53.001Z</time></trkpt><trkpt lat="45.57866958346932" lon="11.933314646111318"><ele>21.666666666666664</ele><time>2026-04-10T09:57:55.002Z</time></trkpt><trkpt lat="45.57876268043194" lon="11.933412645831341"><ele>21.333333333333332</ele><time>2026-04-10T09:57:57.002Z</time></trkpt><trkpt lat="45.57881687610297" lon="11.933478204429917"><ele>21.0</ele><time>2026-04-10T09:57:58.002Z</time></trkpt><trkpt lat="45.57886692237465" lon="11.933544192340838"><ele>20.666666666666668</ele><time>2026-04-10T09:57:59.002Z</time></trkpt><trkpt lat="45.578923888174046" lon="11.933600959684062"><ele>20.333333333333336</ele><time>2026-04-10T09:58:00.002Z</time></trkpt><trkpt lat="45.57897799388261" lon="11.933662474388207"><ele>20.0</ele><time>2026-04-10T09:58:01.002Z</time></trkpt><trkpt lat="45.57903007950727" lon="11.933732180237271"><ele>20.0</ele><time>2026-04-10T09:58:02.002Z</time></trkpt><trkpt lat="45.57908631269618" lon="11.933791344887359"><ele>20.0</ele><time>2026-04-10T09:58:03.002Z</time></trkpt><trkpt lat="45.57914731822861" lon="11.933846304781682"><ele>20.0</ele><time>2026-04-10T09:58:04.002Z</time></trkpt><trkpt lat="45.57920808878439" lon="11.933902364319996"><ele>20.0</ele><time>2026-04-10T09:58:05.002Z</time></trkpt><trkpt lat="45.579262288389714" lon="11.933970629990364"><ele>20.0</ele><time>2026-04-10T09:58:06.002Z</time></trkpt><trkpt lat="45.57931894048848" lon="11.934027863100738"><ele>20.0</ele><time>2026-04-10T09:58:07.002Z</time></trkpt><trkpt lat="45.57937165411543" lon="11.934084917657273"><ele>20.0</ele><time>2026-04-10T09:58:08.002Z</time></trkpt><trkpt lat="45.579420164424924" lon="11.934152192949213"><ele>19.714285714285715</ele><time>2026-04-10T09:58:09.002Z</time></trkpt><trkpt lat="45.57947276614569" lon="11.934226145633133"><ele>19.42857142857143</ele><time>2026-04-10T09:58:10.002Z</time></trkpt><trkpt lat="45.57952750486366" lon="11.934291358676893"><ele>19.142857142857146</ele><time>2026-04-10T09:58:11.002Z</time></trkpt><trkpt lat="45.579582459383154" lon="11.934356660955304"><ele>18.857142857142858</ele><time>2026-04-10T09:58:12.002Z</time></trkpt><trkpt lat="45.57963562410969" lon="11.934418748454188"><ele>18.571428571428573</ele><time>2026-04-10T09:58:13.002Z</time></trkpt><trkpt lat="45.57968604637731" lon="11.934489366579573"><ele>18.28571428571429</ele><time>2026-04-10T09:58:14.002Z</time></trkpt><trkpt lat="45.57973615078635" lon="11.93455034617591"><ele>18.0</ele><time>2026-04-10T09:58:15.002Z</time></trkpt><trkpt lat="45.57978391603855" lon="11.934621864606628"><ele>18.571428571428573</ele><time>2026-04-10T09:58:16.002Z</time></trkpt><trkpt lat="45.57982931784272" lon="11.934694995857356"><ele>19.142857142857142</ele><time>2026-04-10T09:58:17.002Z</time></trkpt><trkpt lat="45.57987844867588" lon="11.934774154278541"><ele>19.714285714285715</ele><time>2026-04-10T09:58:18.002Z</time></trkpt><trkpt lat="45.57992188002817" lon="11.93484098535856"><ele>20.285714285714285</ele><time>2026-04-10T09:58:19.002Z</time></trkpt><trkpt lat="45.57997208423863" lon="11.93490441100262"><ele>20.857142857142858</ele><time>2026-04-10T09:58:20.002Z</time></trkpt><trkpt lat="45.580013776801614" lon="11.93497235262627"><ele>21.42857142857143</ele><time>2026-04-10T09:58:21.002Z</time></trkpt><trkpt lat="45.58006058218563" lon="11.93504853493478"><ele>22.0</ele><time>2026-04-10T09:58:22.002Z</time></trkpt><trkpt lat="45.58011066354901" lon="11.935117813271702"><ele>22.0</ele><time>2026-04-10T09:58:23.002Z</time></trkpt><trkpt lat="45.58016093734335" lon="11.935196794828132"><ele>22.0</ele><time>2026-04-10T09:58:24.002Z</time></trkpt><trkpt lat="45.58020641381784" lon="11.935261691818022"><ele>22.0</ele><time>2026-04-10T09:58:25.002Z</time></trkpt><trkpt lat="45.58025316592898" lon="11.935342085194913"><ele>22.0</ele><time>2026-04-10T09:58:26.002Z</time></trkpt><trkpt lat="45.58029821270234" lon="11.935417611207388"><ele>22.0</ele><time>2026-04-10T09:58:27.002Z</time></trkpt><trkpt lat="45.58034491346144" lon="11.935489111528268"><ele>22.0</ele><time>2026-04-10T09:58:28.002Z</time></trkpt><trkpt lat="45.58039144146866" lon="11.935560325881822"><ele>22.0</ele><time>2026-04-10T09:58:29.002Z</time></trkpt><trkpt lat="45.58043594471573" lon="11.935640472967162"><ele>22.0</ele><time>2026-04-10T09:58:30.002Z</time></trkpt><trkpt lat="45.58047958320864" lon="11.935712755637375"><ele>22.0</ele><time>2026-04-10T09:58:31.003Z</time></trkpt><trkpt lat="45.58052548930837" lon="11.93578799058153"><ele>22.0</ele><time>2026-04-10T09:58:32.003Z</time></trkpt><trkpt lat="45.580596214380144" lon="11.935944480162586"><ele>22.0</ele><time>2026-04-10T09:58:34.003Z</time></trkpt><trkpt lat="45.58063674459771" lon="11.936020660508492"><ele>22.0</ele><time>2026-04-10T09:58:35.003Z</time></trkpt><trkpt lat="45.58067938044419" lon="11.936090440831428"><ele>22.0</ele><time>2026-04-10T09:58:36.003Z</time></trkpt><trkpt lat="45.580730995833726" lon="11.936150777664272"><ele>22.166666666666664</ele><time>2026-04-10T09:58:37.003Z</time></trkpt><trkpt lat="45.5807898974033" lon="11.936216665514028"><ele>22.333333333333332</ele><time>2026-04-10T09:58:38.003Z</time></trkpt><trkpt lat="45.58085395496772" lon="11.936289064074607"><ele>22.5</ele><time>2026-04-10T09:58:39.003Z</time></trkpt><trkpt lat="45.58091770956737" lon="11.936367578716846"><ele>22.666666666666668</ele><time>2026-04-10T09:58:40.003Z</time></trkpt><trkpt lat="45.58099304034034" lon="11.93644669479847"><ele>22.833333333333336</ele><time>2026-04-10T09:58:41.003Z</time></trkpt><trkpt lat="45.581049203449815" lon="11.936558366081211"><ele>23.0</ele><time>2026-04-10T09:58:42.003Z</time></trkpt><trkpt lat="45.58111149140082" lon="11.936662829916868"><ele>22.666666666666668</ele><time>2026-04-10T09:58:43.003Z</time></trkpt><trkpt lat="45.58116270777208" lon="11.936764683849685"><ele>22.333333333333336</ele><time>2026-04-10T09:58:44.003Z</time></trkpt><trkpt lat="45.58121105067425" lon="11.936870570757758"><ele>22.0</ele><time>2026-04-10T09:58:45.003Z</time></trkpt><trkpt lat="45.58125768383047" lon="11.93697378726421"><ele>21.666666666666668</ele><time>2026-04-10T09:58:46.003Z</time></trkpt><trkpt lat="45.5813052112827" lon="11.937081445038219"><ele>21.333333333333332</ele><time>2026-04-10T09:58:47.003Z</time></trkpt><trkpt lat="45.581349876349385" lon="11.93719140944868"><ele>21.0</ele><time>2026-04-10T09:58:48.003Z</time></trkpt><trkpt lat="45.581396454891724" lon="11.937296443219164"><ele>21.0</ele><time>2026-04-10T09:58:49Z</time></trkpt><trkpt lat="45.58144402356538" lon="11.937396873231169"><ele>21.0</ele><time>2026-04-10T09:58:50Z</time></trkpt><trkpt lat="45.581489468767906" lon="11.93750175301776"><ele>21.0</ele><time>2026-04-10T09:58:51Z</time></trkpt><trkpt lat="45.58153230475081" lon="11.937604313215962"><ele>21.0</ele><time>2026-04-10T09:58:52Z</time></trkpt><trkpt lat="45.58156965391126" lon="11.93771076640047"><ele>21.0</ele><time>2026-04-10T09:58:53Z</time></trkpt><trkpt lat="45.581608920710984" lon="11.937811392911417"><ele>21.0</ele><time>2026-04-10T09:58:54Z</time></trkpt><trkpt lat="45.58164749873067" lon="11.937915474734046"><ele>21.333333333333332</ele><time>2026-04-10T09:58:55Z</time></trkpt><trkpt lat="45.58168888426267" lon="11.938011871083745"><ele>21.666666666666668</ele><time>2026-04-10T09:58:56Z</time></trkpt><trkpt lat="45.58172095515738" lon="11.938111453226101"><ele>22.0</ele><time>2026-04-10T09:58:57Z</time></trkpt><trkpt lat="45.58174646857374" lon="11.938199319926978"><ele>22.333333333333336</ele><time>2026-04-10T09:58:58Z</time></trkpt><trkpt lat="45.58180105709531" lon="11.938333524824857"><ele>22.666666666666668</ele><time>2026-04-10T09:59:00Z</time></trkpt><trkpt lat="45.58184215162571" lon="11.9384363692427"><ele>23.0</ele><time>2026-04-10T09:59:02Z</time></trkpt><trkpt lat="45.58185612783532" lon="11.938535325990788"><ele>23.166666666666668</ele><time>2026-04-10T09:59:04Z</time></trkpt><trkpt lat="45.58178843837665" lon="11.938626781446253"><ele>23.333333333333336</ele><time>2026-04-10T09:59:06Z</time></trkpt><trkpt lat="45.58169815526803" lon="11.938655500833052"><ele>23.5</ele><time>2026-04-10T09:59:08Z</time></trkpt><trkpt lat="45.58161979323574" lon="11.938712102903306"><ele>23.666666666666668</ele><time>2026-04-10T09:59:10Z</time></trkpt><trkpt lat="45.58160736971275" lon="11.93881928854591"><ele>23.833333333333332</ele><time>2026-04-10T09:59:12Z</time></trkpt><trkpt lat="45.58169207628417" lon="11.938813038318262"><ele>24.0</ele><time>2026-04-10T09:59:14Z</time></trkpt><trkpt lat="45.581757531265865" lon="11.938789553925819"><ele>24.0</ele><time>2026-04-10T09:59:16Z</time></trkpt><trkpt lat="45.58180760245647" lon="11.938844867286656"><ele>24.0</ele><time>2026-04-10T09:59:18Z</time></trkpt><trkpt lat="45.58184251662436" lon="11.938974436848342"><ele>24.0</ele><time>2026-04-10T09:59:20Z</time></trkpt><trkpt lat="45.58188746767802" lon="11.939133492928136"><ele>24.0</ele><time>2026-04-10T09:59:22Z</time></trkpt><trkpt lat="45.58191167536759" lon="11.939223912681845"><ele>24.0</ele><time>2026-04-10T09:59:23Z</time></trkpt><trkpt lat="45.581971534872515" lon="11.93937901000108"><ele>24.0</ele><time>2026-04-10T09:59:25.001Z</time></trkpt><trkpt lat="45.582002290695876" lon="11.939459886303984"><ele>24.0</ele><time>2026-04-10T09:59:26.001Z</time></trkpt><trkpt lat="45.582027726082586" lon="11.939549978078475"><ele>24.0</ele><time>2026-04-10T09:59:27.001Z</time></trkpt><trkpt lat="45.582081969119045" lon="11.939709137537292"><ele>24.0</ele><time>2026-04-10T09:59:29.001Z</time></trkpt><trkpt lat="45.58212282254345" lon="11.939876223227309"><ele>24.0</ele><time>2026-04-10T09:59:31.001Z</time></trkpt><trkpt lat="45.58216684945198" lon="11.940024489995416"><ele>23.799999999999997</ele><time>2026-04-10T09:59:33.001Z</time></trkpt><trkpt lat="45.582200868749005" lon="11.940142624366137"><ele>23.599999999999998</ele><time>2026-04-10T09:59:35.001Z</time></trkpt><trkpt lat="45.58224738139222" lon="11.940276337303509"><ele>23.4</ele><time>2026-04-10T09:59:37.001Z</time></trkpt><trkpt lat="45.582291348090116" lon="11.940429233395198"><ele>23.2</ele><time>2026-04-10T09:59:39.001Z</time></trkpt><trkpt lat="45.58233318054045" lon="11.940580272073891"><ele>23.0</ele><time>2026-04-10T09:59:41.001Z</time></trkpt><trkpt lat="45.58238220052051" lon="11.940713917242478"><ele>23.0</ele><time>2026-04-10T09:59:43.001Z</time></trkpt><trkpt lat="45.582407400386906" lon="11.940802825893359"><ele>23.0</ele><time>2026-04-10T09:59:44.001Z</time></trkpt><trkpt lat="45.58243358778992" lon="11.940885429916273"><ele>23.0</ele><time>2026-04-10T09:59:45.001Z</time></trkpt><trkpt lat="45.582457382065066" lon="11.940971971343465"><ele>23.0</ele><time>2026-04-10T09:59:46.001Z</time></trkpt><trkpt lat="45.58250384570005" lon="11.941142923068618"><ele>23.0</ele><time>2026-04-10T09:59:48.001Z</time></trkpt><trkpt lat="45.58255000250685" lon="11.941315366885675"><ele>23.0</ele><time>2026-04-10T09:59:50.001Z</time></trkpt><trkpt lat="45.58257534647456" lon="11.94140299559845"><ele>23.0</ele><time>2026-04-10T09:59:51.001Z</time></trkpt><trkpt lat="45.582603420099986" lon="11.94148932431077"><ele>23.0</ele><time>2026-04-10T09:59:52.001Z</time></trkpt><trkpt lat="45.58262981500154" lon="11.941578986461902"><ele>23.0</ele><time>2026-04-10T09:59:53.001Z</time></trkpt><trkpt lat="45.58265901473978" lon="11.941668971871511"><ele>23.0</ele><time>2026-04-10T09:59:54.001Z</time></trkpt><trkpt lat="45.582689494079744" lon="11.941749821495307"><ele>23.0</ele><time>2026-04-10T09:59:55.001Z</time></trkpt><trkpt lat="45.58270957874375" lon="11.941838512175195"><ele>23.0</ele><time>2026-04-10T09:59:56.001Z</time></trkpt><trkpt lat="45.58276144074899" lon="11.94201091932822"><ele>23.0</ele><time>2026-04-10T09:59:58.001Z</time></trkpt><trkpt lat="45.582785120986394" lon="11.94209916691894"><ele>23.0</ele><time>2026-04-10T09:59:59.001Z</time></trkpt><trkpt lat="45.58281431776785" lon="11.942186216607869"><ele>23.0</ele><time>2026-04-10T10:00:00.002Z</time></trkpt><trkpt lat="45.58284409643961" lon="11.942270064562353"><ele>23.0</ele><time>2026-04-10T10:00:01.002Z</time></trkpt><trkpt lat="45.582873084337734" lon="11.942353931444762"><ele>23.0</ele><time>2026-04-10T10:00:02.002Z</time></trkpt><trkpt lat="45.58289955659702" lon="11.942449660732253"><ele>23.0</ele><time>2026-04-10T10:00:03.002Z</time></trkpt><trkpt lat="45.58292795704305" lon="11.942543832451031"><ele>23.0</ele><time>2026-04-10T10:00:04.002Z</time></trkpt><trkpt lat="45.58295553640784" lon="11.942637372008083"><ele>23.0</ele><time>2026-04-10T10:00:05.002Z</time></trkpt><trkpt lat="45.58298880608782" lon="11.942723106024058"><ele>23.0</ele><time>2026-04-10T10:00:06.002Z</time></trkpt><trkpt lat="45.58301609171573" lon="11.9428191380151"><ele>23.0</ele><time>2026-04-10T10:00:07.002Z</time></trkpt><trkpt lat="45.583041841052015" lon="11.942915964491913"><ele>23.0</ele><time>2026-04-10T10:00:08.002Z</time></trkpt><trkpt lat="45.58306452588838" lon="11.943008642965603"><ele>23.0</ele><time>2026-04-10T10:00:09.002Z</time></trkpt><trkpt lat="45.58309534773482" lon="11.943102721174359"><ele>23.0</ele><time>2026-04-10T10:00:10.002Z</time></trkpt><trkpt lat="45.58312368962792" lon="11.943195313244173"><ele>23.0</ele><time>2026-04-10T10:00:11.002Z</time></trkpt><trkpt lat="45.58315358841608" lon="11.943282047451248"><ele>23.0</ele><time>2026-04-10T10:00:12.002Z</time></trkpt><trkpt lat="45.58318791400684" lon="11.943371124933103"><ele>23.0</ele><time>2026-04-10T10:00:13.002Z</time></trkpt><trkpt lat="45.583216514175014" lon="11.943466735097251"><ele>23.0</ele><time>2026-04-10T10:00:14.002Z</time></trkpt><trkpt lat="45.58324523677623" lon="11.943555815550308"><ele>23.0</ele><time>2026-04-10T10:00:15.002Z</time></trkpt><trkpt lat="45.583272618530344" lon="11.94364939555632"><ele>23.0</ele><time>2026-04-10T10:00:16.002Z</time></trkpt><trkpt lat="45.58329671557826" lon="11.943743307664585"><ele>23.0</ele><time>2026-04-10T10:00:17.002Z</time></trkpt><trkpt lat="45.58332234123933" lon="11.943841758151171"><ele>23.0</ele><time>2026-04-10T10:00:18.002Z</time></trkpt><trkpt lat="45.58334919107951" lon="11.94393547222369"><ele>22.857142857142858</ele><time>2026-04-10T10:00:19.002Z</time></trkpt><trkpt lat="45.58337485333965" lon="11.944021919792668"><ele>22.71428571428571</ele><time>2026-04-10T10:00:20.002Z</time></trkpt><trkpt lat="45.583419725129744" lon="11.944109755853239"><ele>22.57142857142857</ele><time>2026-04-10T10:00:21.002Z</time></trkpt><trkpt lat="45.58344374727861" lon="11.944210719618567"><ele>22.42857142857143</ele><time>2026-04-10T10:00:22.002Z</time></trkpt><trkpt lat="45.58347516193819" lon="11.94430809628534"><ele>22.285714285714285</ele><time>2026-04-10T10:00:23.002Z</time></trkpt><trkpt lat="45.58349516605657" lon="11.944399364488612"><ele>22.142857142857142</ele><time>2026-04-10T10:00:24.002Z</time></trkpt><trkpt lat="45.583521834105525" lon="11.944492039934874"><ele>22.0</ele><time>2026-04-10T10:00:25.002Z</time></trkpt><trkpt lat="45.58355173274428" lon="11.944587725069615"><ele>22.0</ele><time>2026-04-10T10:00:26.002Z</time></trkpt><trkpt lat="45.583584571326185" lon="11.944674235839127"><ele>22.0</ele><time>2026-04-10T10:00:27.002Z</time></trkpt><trkpt lat="45.58361514580792" lon="11.944768189600483"><ele>22.0</ele><time>2026-04-10T10:00:28.002Z</time></trkpt><trkpt lat="45.5836400310916" lon="11.944857768657446"><ele>22.0</ele><time>2026-04-10T10:00:29.002Z</time></trkpt><trkpt lat="45.58367654922757" lon="11.94495370200853"><ele>22.0</ele><time>2026-04-10T10:00:30.002Z</time></trkpt><trkpt lat="45.58370005268766" lon="11.945048300537508"><ele>22.0</ele><time>2026-04-10T10:00:31.002Z</time></trkpt><trkpt lat="45.58372336168632" lon="11.945143164417557"><ele>22.0</ele><time>2026-04-10T10:00:32.002Z</time></trkpt><trkpt lat="45.583744368712345" lon="11.945239975657177"><ele>22.0</ele><time>2026-04-10T10:00:33.002Z</time></trkpt><trkpt lat="45.583771716304824" lon="11.945331203031058"><ele>22.0</ele><time>2026-04-10T10:00:34.002Z</time></trkpt><trkpt lat="45.58380294721465" lon="11.94542315789761"><ele>22.0</ele><time>2026-04-10T10:00:35.002Z</time></trkpt><trkpt lat="45.583835793067195" lon="11.945515341849134"><ele>22.0</ele><time>2026-04-10T10:00:36.003Z</time></trkpt><trkpt lat="45.583870487952986" lon="11.945605426205052"><ele>22.0</ele><time>2026-04-10T10:00:37.003Z</time></trkpt><trkpt lat="45.583926161407426" lon="11.945772737265452"><ele>22.0</ele><time>2026-04-10T10:00:39.003Z</time></trkpt><trkpt lat="45.58394854601691" lon="11.945861159429493"><ele>22.142857142857142</ele><time>2026-04-10T10:00:40.003Z</time></trkpt><trkpt lat="45.58397601487882" lon="11.945947687996608"><ele>22.285714285714285</ele><time>2026-04-10T10:00:41.003Z</time></trkpt><trkpt lat="45.58401244144569" lon="11.946026980604481"><ele>22.42857142857143</ele><time>2026-04-10T10:00:42.003Z</time></trkpt><trkpt lat="45.584047281191545" lon="11.946104645271461"><ele>22.57142857142857</ele><time>2026-04-10T10:00:43.003Z</time></trkpt><trkpt lat="45.58406779203651" lon="11.946212774713873"><ele>22.71428571428571</ele><time>2026-04-10T10:00:44.003Z</time></trkpt><trkpt lat="45.584089987496164" lon="11.946310910507586"><ele>22.857142857142858</ele><time>2026-04-10T10:00:45.003Z</time></trkpt><trkpt lat="45.58411447056131" lon="11.946405021724397"><ele>23.0</ele><time>2026-04-10T10:00:46.003Z</time></trkpt><trkpt lat="45.584141131249176" lon="11.946503245341447"><ele>23.0</ele><time>2026-04-10T10:00:47.003Z</time></trkpt><trkpt lat="45.58417179817186" lon="11.946598149270585"><ele>23.0</ele><time>2026-04-10T10:00:48.003Z</time></trkpt><trkpt lat="45.58420538444729" lon="11.946697105693886"><ele>23.0</ele><time>2026-04-10T10:00:49.003Z</time></trkpt><trkpt lat="45.5842350863034" lon="11.946795099993432"><ele>23.0</ele><time>2026-04-10T10:00:50.003Z</time></trkpt><trkpt lat="45.5842589972399" lon="11.946892439181815"><ele>23.0</ele><time>2026-04-10T10:00:51.003Z</time></trkpt><trkpt lat="45.58428400038625" lon="11.946989297094555"><ele>23.0</ele><time>2026-04-10T10:00:52.003Z</time></trkpt><trkpt lat="45.58431755515279" lon="11.947084764841431"><ele>23.0</ele><time>2026-04-10T10:00:53.003Z</time></trkpt><trkpt lat="45.58434494462288" lon="11.947173091179724"><ele>22.799999999999997</ele><time>2026-04-10T10:00:54.003Z</time></trkpt><trkpt lat="45.58437011218684" lon="11.947267020048614"><ele>22.6</ele><time>2026-04-10T10:00:55Z</time></trkpt><trkpt lat="45.584400457866394" lon="11.947360526918569"><ele>22.4</ele><time>2026-04-10T10:00:56Z</time></trkpt><trkpt lat="45.584319598341224" lon="11.94755749700395"><ele>22.200000000000003</ele><time>2026-04-10T10:00:57Z</time></trkpt><trkpt lat="45.58435750545986" lon="11.947634943841397"><ele>22.0</ele><time>2026-04-10T10:00:58Z</time></trkpt><trkpt lat="45.58441885098868" lon="11.947799597426057"><ele>22.0</ele><time>2026-04-10T10:01:00Z</time></trkpt><trkpt lat="45.58444793527161" lon="11.947889889792195"><ele>22.0</ele><time>2026-04-10T10:01:01Z</time></trkpt><trkpt lat="45.584475931236646" lon="11.947979568783992"><ele>22.0</ele><time>2026-04-10T10:01:02Z</time></trkpt><trkpt lat="45.584502325527815" lon="11.948065067983348"><ele>22.0</ele><time>2026-04-10T10:01:03Z</time></trkpt><trkpt lat="45.58453154975527" lon="11.948159733865003"><ele>22.0</ele><time>2026-04-10T10:01:04Z</time></trkpt><trkpt lat="45.584557655316296" lon="11.948244940109568"><ele>22.0</ele><time>2026-04-10T10:01:05Z</time></trkpt><trkpt lat="45.5845836124267" lon="11.948330510796204"><ele>22.0</ele><time>2026-04-10T10:01:06Z</time></trkpt><trkpt lat="45.584626762028975" lon="11.948472302103967"><ele>22.0</ele><time>2026-04-10T10:01:08Z</time></trkpt><trkpt lat="45.584650752575946" lon="11.948556391258522"><ele>22.0</ele><time>2026-04-10T10:01:09Z</time></trkpt><trkpt lat="45.584675895567656" lon="11.948644520517252"><ele>22.0</ele><time>2026-04-10T10:01:10Z</time></trkpt><trkpt lat="45.5847099749797" lon="11.948729651831952"><ele>22.0</ele><time>2026-04-10T10:01:11Z</time></trkpt><trkpt lat="45.58475767312984" lon="11.948813774163629"><ele>22.0</ele><time>2026-04-10T10:01:12Z</time></trkpt><trkpt lat="45.58482870127868" lon="11.948946521116113"><ele>22.0</ele><time>2026-04-10T10:01:14Z</time></trkpt><trkpt lat="45.58488054562809" lon="11.94904341480481"><ele>22.0</ele><time>2026-04-10T10:01:16Z</time></trkpt><trkpt lat="45.584942448264584" lon="11.949018569115879"><ele>22.0</ele><time>2026-04-10T10:01:17Z</time></trkpt><trkpt lat="45.58493520382118" lon="11.949146393384497"><ele>22.0</ele><time>2026-04-10T10:01:19Z</time></trkpt><trkpt lat="45.58491645535677" lon="11.949261792044465"><ele>22.0</ele><time>2026-04-10T10:01:21Z</time></trkpt><trkpt lat="45.58489497068013" lon="11.94939403219366"><ele>22.0</ele><time>2026-04-10T10:01:23.001Z</time></trkpt><trkpt lat="45.58487253175765" lon="11.949532146735844"><ele>22.0</ele><time>2026-04-10T10:01:25.001Z</time></trkpt><trkpt lat="45.58485346081495" lon="11.949643782751169"><ele>21.5</ele><time>2026-04-10T10:01:27.001Z</time></trkpt><trkpt lat="45.58516539720129" lon="11.94988383626564"><ele>21.0</ele><time>2026-04-10T10:01:29.001Z</time></trkpt><trkpt lat="45.58521515958044" lon="11.950043900674197"><ele>21.0</ele><time>2026-04-10T10:01:31.001Z</time></trkpt><trkpt lat="45.58526998985613" lon="11.950203198522368"><ele>21.0</ele><time>2026-04-10T10:01:33.001Z</time></trkpt><trkpt lat="45.58531928521054" lon="11.95037187473905"><ele>21.0</ele><time>2026-04-10T10:01:35.001Z</time></trkpt><trkpt lat="45.58535020737681" lon="11.950459354239047"><ele>21.0</ele><time>2026-04-10T10:01:36.001Z</time></trkpt><trkpt lat="45.58537743181977" lon="11.95054404403272"><ele>21.0</ele><time>2026-04-10T10:01:37.001Z</time></trkpt><trkpt lat="45.58540326488252" lon="11.950630317970822"><ele>21.200000000000003</ele><time>2026-04-10T10:01:38.001Z</time></trkpt><trkpt lat="45.58544776645946" lon="11.950787997588545"><ele>21.400000000000002</ele><time>2026-04-10T10:01:40.001Z</time></trkpt><trkpt lat="45.585494039772826" lon="11.950936094745195"><ele>21.6</ele><time>2026-04-10T10:01:42.001Z</time></trkpt><trkpt lat="45.58552961722511" lon="11.951075410410255"><ele>21.8</ele><time>2026-04-10T10:01:44.001Z</time></trkpt><trkpt lat="45.58557853229936" lon="11.951207328506028"><ele>22.0</ele><time>2026-04-10T10:01:46.001Z</time></trkpt><trkpt lat="45.58560936823925" lon="11.951337724395598"><ele>22.0</ele><time>2026-04-10T10:01:48.001Z</time></trkpt><trkpt lat="45.58564487978078" lon="11.951457783525795"><ele>22.0</ele><time>2026-04-10T10:01:50.001Z</time></trkpt><trkpt lat="45.585694399052" lon="11.951597809119164"><ele>22.0</ele><time>2026-04-10T10:01:52.001Z</time></trkpt><trkpt lat="45.58574179571767" lon="11.951751687671754"><ele>22.0</ele><time>2026-04-10T10:01:54.001Z</time></trkpt><trkpt lat="45.5857895064614" lon="11.951914559387987"><ele>22.0</ele><time>2026-04-10T10:01:56.001Z</time></trkpt><trkpt lat="45.58584331444805" lon="11.952056237470755"><ele>22.0</ele><time>2026-04-10T10:01:58.001Z</time></trkpt><trkpt lat="45.58588931438816" lon="11.952211081662393"><ele>22.0</ele><time>2026-04-10T10:02:00.001Z</time></trkpt><trkpt lat="45.585939529462294" lon="11.952353688700018"><ele>22.0</ele><time>2026-04-10T10:02:02.002Z</time></trkpt><trkpt lat="45.58599677761028" lon="11.952510006092059"><ele>22.0</ele><time>2026-04-10T10:02:04.002Z</time></trkpt><trkpt lat="45.58604494448738" lon="11.952680384009177"><ele>22.0</ele><time>2026-04-10T10:02:06.002Z</time></trkpt><trkpt lat="45.58607541821378" lon="11.952763900737729"><ele>22.0</ele><time>2026-04-10T10:02:07.002Z</time></trkpt><trkpt lat="45.586117539411234" lon="11.952913084720093"><ele>22.0</ele><time>2026-04-10T10:02:09.002Z</time></trkpt><trkpt lat="45.58616126527147" lon="11.95307617326909"><ele>22.0</ele><time>2026-04-10T10:02:11.002Z</time></trkpt><trkpt lat="45.586204995729226" lon="11.953243315075401"><ele>22.0</ele><time>2026-04-10T10:02:13.002Z</time></trkpt><trkpt lat="45.58623231778296" lon="11.953324648221201"><ele>22.200000000000003</ele><time>2026-04-10T10:02:14.002Z</time></trkpt><trkpt lat="45.58627536738731" lon="11.953456378664908"><ele>22.4</ele><time>2026-04-10T10:02:16.002Z</time></trkpt><trkpt lat="45.58629846666546" lon="11.953540588560054"><ele>22.6</ele><time>2026-04-10T10:02:17.002Z</time></trkpt><trkpt lat="45.58634737190334" lon="11.95369538586792"><ele>22.799999999999997</ele><time>2026-04-10T10:02:19.002Z</time></trkpt><trkpt lat="45.586394675944774" lon="11.953833391999321"><ele>23.0</ele><time>2026-04-10T10:02:21.002Z</time></trkpt><trkpt lat="45.586415164325786" lon="11.953930201696002"><ele>23.0</ele><time>2026-04-10T10:02:22.002Z</time></trkpt><trkpt lat="45.58645915451604" lon="11.954098577137923"><ele>23.0</ele><time>2026-04-10T10:02:24.002Z</time></trkpt><trkpt lat="45.586512632329026" lon="11.954254440169322"><ele>23.0</ele><time>2026-04-10T10:02:26.002Z</time></trkpt><trkpt lat="45.58654513475625" lon="11.954336588577954"><ele>23.0</ele><time>2026-04-10T10:02:27.002Z</time></trkpt><trkpt lat="45.58658887114575" lon="11.954499498211558"><ele>23.0</ele><time>2026-04-10T10:02:29.002Z</time></trkpt><trkpt lat="45.58663541002598" lon="11.954670228830063"><ele>23.0</ele><time>2026-04-10T10:02:31.002Z</time></trkpt><trkpt lat="45.586660422432914" lon="11.954753144009553"><ele>23.0</ele><time>2026-04-10T10:02:32.002Z</time></trkpt><trkpt lat="45.58671976296521" lon="11.954906446220972"><ele>23.0</ele><time>2026-04-10T10:02:34.002Z</time></trkpt><trkpt lat="45.58674513868074" lon="11.954992144148456"><ele>23.0</ele><time>2026-04-10T10:02:35.002Z</time></trkpt><trkpt lat="45.586788313715125" lon="11.955150247683909"><ele>23.0</ele><time>2026-04-10T10:02:37.002Z</time></trkpt><trkpt lat="45.586832817778536" lon="11.95530405660091"><ele>23.0</ele><time>2026-04-10T10:02:39.003Z</time></trkpt><trkpt lat="45.58687821875078" lon="11.955466100506076"><ele>23.0</ele><time>2026-04-10T10:02:41.003Z</time></trkpt><trkpt lat="45.586908943808844" lon="11.955548574877033"><ele>23.0</ele><time>2026-04-10T10:02:42.003Z</time></trkpt><trkpt lat="45.58695119319341" lon="11.955694940552574"><ele>23.0</ele><time>2026-04-10T10:02:44.003Z</time></trkpt><trkpt lat="45.58699875232017" lon="11.955848010682766"><ele>23.0</ele><time>2026-04-10T10:02:46.003Z</time></trkpt><trkpt lat="45.58704698707503" lon="11.955999403898668"><ele>22.5</ele><time>2026-04-10T10:02:48.003Z</time></trkpt><trkpt lat="45.587076421701774" lon="11.956147220802768"><ele>22.0</ele><time>2026-04-10T10:02:50.003Z</time></trkpt><trkpt lat="45.587137203573015" lon="11.956304951594799"><ele>21.5</ele><time>2026-04-10T10:02:52.003Z</time></trkpt><trkpt lat="45.58723049113804" lon="11.956387603113082"><ele>21.0</ele><time>2026-04-10T10:02:54.003Z</time></trkpt><trkpt lat="45.587350625030126" lon="11.956354259550611"><ele>21.0</ele><time>2026-04-10T10:02:56.003Z</time></trkpt><trkpt lat="45.58746794555789" lon="11.956340168180844"><ele>21.0</ele><time>2026-04-10T10:02:58.003Z</time></trkpt><trkpt lat="45.58753557324523" lon="11.956334126332273"><ele>21.0</ele><time>2026-04-10T10:02:59.003Z</time></trkpt><trkpt lat="45.58759817831542" lon="11.956351522809651"><ele>21.0</ele><time>2026-04-10T10:03:00.003Z</time></trkpt><trkpt lat="45.58772110290693" lon="11.956334003627628"><ele>21.0</ele><time>2026-04-10T10:03:02Z</time></trkpt><trkpt lat="45.587808156728805" lon="11.956294554908109"><ele>21.200000000000003</ele><time>2026-04-10T10:03:04Z</time></trkpt><trkpt lat="45.58788969036374" lon="11.956176733381536"><ele>21.400000000000002</ele><time>2026-04-10T10:03:06Z</time></trkpt><trkpt lat="45.5879131508969" lon="11.956015474194194"><ele>21.6</ele><time>2026-04-10T10:03:08Z</time></trkpt><trkpt lat="45.58793240171006" lon="11.955883570547053"><ele>21.8</ele><time>2026-04-10T10:03:10Z</time></trkpt><trkpt lat="45.58794935379052" lon="11.955784395068804"><ele>22.0</ele><time>2026-04-10T10:03:12Z</time></trkpt><trkpt lat="45.58799289561966" lon="11.955710097893151"><ele>22.200000000000003</ele><time>2026-04-10T10:03:15Z</time></trkpt><trkpt lat="45.58798907299651" lon="11.955911106342977"><ele>22.4</ele><time>2026-04-10T10:03:18Z</time></trkpt><trkpt lat="45.58797245466829" lon="11.956040807180122"><ele>22.6</ele><time>2026-04-10T10:03:20Z</time></trkpt><trkpt lat="45.58796005707082" lon="11.956151494279247"><ele>22.799999999999997</ele><time>2026-04-10T10:03:22Z</time></trkpt><trkpt lat="45.587943271151495" lon="11.956302479618028"><ele>23.0</ele><time>2026-04-10T10:03:24Z</time></trkpt><trkpt lat="45.58792541874861" lon="11.956469295557968"><ele>23.0</ele><time>2026-04-10T10:03:26.001Z</time></trkpt><trkpt lat="45.58790870226783" lon="11.956620822908656"><ele>23.0</ele><time>2026-04-10T10:03:28.001Z</time></trkpt><trkpt lat="45.58789089022836" lon="11.956785529621879"><ele>23.0</ele><time>2026-04-10T10:03:30.001Z</time></trkpt><trkpt lat="45.58787468804878" lon="11.956934328368042"><ele>23.0</ele><time>2026-04-10T10:03:32.001Z</time></trkpt><trkpt lat="45.58785953186303" lon="11.957081729475394"><ele>23.0</ele><time>2026-04-10T10:03:34.001Z</time></trkpt><trkpt lat="45.587847438689934" lon="11.957208927936783"><ele>23.0</ele><time>2026-04-10T10:03:36.001Z</time></trkpt><trkpt lat="45.58783499871313" lon="11.957344948671134"><ele>23.0</ele><time>2026-04-10T10:03:38.001Z</time></trkpt><trkpt lat="45.58782365120885" lon="11.957469024186242"><ele>23.0</ele><time>2026-04-10T10:03:40.001Z</time></trkpt><trkpt lat="45.58781121204489" lon="11.95761150642319"><ele>23.0</ele><time>2026-04-10T10:03:42.001Z</time></trkpt><trkpt lat="45.5877997221922" lon="11.957749187253434"><ele>23.0</ele><time>2026-04-10T10:03:44.001Z</time></trkpt><trkpt lat="45.58778708055573" lon="11.957900668950655"><ele>22.75</ele><time>2026-04-10T10:03:46.001Z</time></trkpt><trkpt lat="45.58777290090439" lon="11.958058823141082"><ele>22.5</ele><time>2026-04-10T10:03:48.001Z</time></trkpt><trkpt lat="45.58775835020553" lon="11.958222055576725"><ele>22.25</ele><time>2026-04-10T10:03:50.001Z</time></trkpt><trkpt lat="45.58774361993974" lon="11.958387299081608"><ele>22.0</ele><time>2026-04-10T10:03:52.001Z</time></trkpt><trkpt lat="45.587830362174486" lon="11.958481241691453"><ele>21.666666666666664</ele><time>2026-04-10T10:03:53.001Z</time></trkpt><trkpt lat="45.58784731904533" lon="11.95863779221572"><ele>21.333333333333332</ele><time>2026-04-10T10:03:55.001Z</time></trkpt><trkpt lat="45.58802480026224" lon="11.958788370990936"><ele>21.0</ele><time>2026-04-10T10:03:57.001Z</time></trkpt><trkpt lat="45.58789789955943" lon="11.958844018881953"><ele>21.0</ele><time>2026-04-10T10:03:58.001Z</time></trkpt><trkpt lat="45.58794957275334" lon="11.958991734386457"><ele>21.0</ele><time>2026-04-10T10:04:00.001Z</time></trkpt><trkpt lat="45.58762555680878" lon="11.959280566289216"><ele>21.0</ele><time>2026-04-10T10:04:02.001Z</time></trkpt><trkpt lat="45.587601790138734" lon="11.959374689796196"><ele>21.0</ele><time>2026-04-10T10:04:05.001Z</time></trkpt><trkpt lat="45.58758333846763" lon="11.959610127992576"><ele>21.0</ele><time>2026-04-10T10:04:07.001Z</time></trkpt><trkpt lat="45.58758901288752" lon="11.959720140423858"><ele>21.0</ele><time>2026-04-10T10:04:08.002Z</time></trkpt><trkpt lat="45.58760280390625" lon="11.959891770207252"><ele>21.0</ele><time>2026-04-10T10:04:10.002Z</time></trkpt><trkpt lat="45.58761651595939" lon="11.960062419093436"><ele>21.0</ele><time>2026-04-10T10:04:12.002Z</time></trkpt><trkpt lat="45.58766378576694" lon="11.960229267587257"><ele>21.0</ele><time>2026-04-10T10:04:14.002Z</time></trkpt><trkpt lat="45.58773844501112" lon="11.960331252308439"><ele>21.0</ele><time>2026-04-10T10:04:16.002Z</time></trkpt><trkpt lat="45.58780155725592" lon="11.960458887775049"><ele>21.0</ele><time>2026-04-10T10:04:18.002Z</time></trkpt><trkpt lat="45.588454210274335" lon="11.960656025499558"><ele>21.285714285714285</ele><time>2026-04-10T10:04:20.002Z</time></trkpt><trkpt lat="45.58847670169962" lon="11.960746593106753"><ele>21.57142857142857</ele><time>2026-04-10T10:04:21.002Z</time></trkpt><trkpt lat="45.58850818897197" lon="11.960827179611812"><ele>21.857142857142858</ele><time>2026-04-10T10:04:22.002Z</time></trkpt><trkpt lat="45.58853103761729" lon="11.960916466739393"><ele>22.142857142857142</ele><time>2026-04-10T10:04:23.002Z</time></trkpt><trkpt lat="45.58855988772416" lon="11.961003080942431"><ele>22.428571428571427</ele><time>2026-04-10T10:04:24.002Z</time></trkpt><trkpt lat="45.58858920942183" lon="11.961101784626216"><ele>22.714285714285715</ele><time>2026-04-10T10:04:25.002Z</time></trkpt><trkpt lat="45.58862951018285" lon="11.961198851716906"><ele>23.0</ele><time>2026-04-10T10:04:26.002Z</time></trkpt><trkpt lat="45.58866357318359" lon="11.961305671398428"><ele>23.799999999999997</ele><time>2026-04-10T10:04:27.002Z</time></trkpt><trkpt lat="45.588686679986765" lon="11.96142591660321"><ele>24.6</ele><time>2026-04-10T10:04:28.002Z</time></trkpt><trkpt lat="45.58872394056994" lon="11.961540692089804"><ele>25.400000000000002</ele><time>2026-04-10T10:04:29.002Z</time></trkpt><trkpt lat="45.58876173858226" lon="11.961656385384652"><ele>26.200000000000003</ele><time>2026-04-10T10:04:30.002Z</time></trkpt><trkpt lat="45.58879814007871" lon="11.96177444735806"><ele>27.0</ele><time>2026-04-10T10:04:31.002Z</time></trkpt><trkpt lat="45.58883506027459" lon="11.961899230697789"><ele>27.0</ele><time>2026-04-10T10:04:32.002Z</time></trkpt><trkpt lat="45.58888079568558" lon="11.962018026795535"><ele>27.0</ele><time>2026-04-10T10:04:33.002Z</time></trkpt><trkpt lat="45.588913980150856" lon="11.962135067179995"><ele>27.0</ele><time>2026-04-10T10:04:34.002Z</time></trkpt><trkpt lat="45.58894651507429" lon="11.96224360390047"><ele>27.0</ele><time>2026-04-10T10:04:35.002Z</time></trkpt><trkpt lat="45.58897794900224" lon="11.962345953988418"><ele>27.0</ele><time>2026-04-10T10:04:36.002Z</time></trkpt><trkpt lat="45.58900511384865" lon="11.962450597793785"><ele>27.0</ele><time>2026-04-10T10:04:37.002Z</time></trkpt><trkpt lat="45.589029643232884" lon="11.962545407347724"><ele>26.666666666666668</ele><time>2026-04-10T10:04:38.002Z</time></trkpt><trkpt lat="45.58905592500571" lon="11.9626457698494"><ele>26.333333333333336</ele><time>2026-04-10T10:04:39.002Z</time></trkpt><trkpt lat="45.58908960569491" lon="11.962744085220352"><ele>26.0</ele><time>2026-04-10T10:04:40.002Z</time></trkpt><trkpt lat="45.5891417941304" lon="11.96291541370188"><ele>25.666666666666668</ele><time>2026-04-10T10:04:42.002Z</time></trkpt><trkpt lat="45.589168940662645" lon="11.96300474696178"><ele>25.333333333333336</ele><time>2026-04-10T10:04:43.002Z</time></trkpt><trkpt lat="45.58919751665947" lon="11.963097673410347"><ele>25.0</ele><time>2026-04-10T10:04:44.002Z</time></trkpt><trkpt lat="45.58922156748327" lon="11.963190323458702"><ele>25.000000000000004</ele><time>2026-04-10T10:04:45.002Z</time></trkpt><trkpt lat="45.5892508577792" lon="11.96328225406445"><ele>25.0</ele><time>2026-04-10T10:04:46.003Z</time></trkpt><trkpt lat="45.58927591076619" lon="11.963376079794775"><ele>25.0</ele><time>2026-04-10T10:04:47.003Z</time></trkpt><trkpt lat="45.589307694594496" lon="11.963464045798219"><ele>25.0</ele><time>2026-04-10T10:04:48.003Z</time></trkpt><trkpt lat="45.58933856836379" lon="11.963556084433858"><ele>25.0</ele><time>2026-04-10T10:04:49.003Z</time></trkpt><trkpt lat="45.589363912131596" lon="11.963648313495653"><ele>25.000000000000004</ele><time>2026-04-10T10:04:50.003Z</time></trkpt><trkpt lat="45.58939028383426" lon="11.96374510679147"><ele>25.0</ele><time>2026-04-10T10:04:51.003Z</time></trkpt><trkpt lat="45.589422846188526" lon="11.963835821359778"><ele>24.714285714285715</ele><time>2026-04-10T10:04:52.003Z</time></trkpt><trkpt lat="45.589452598415306" lon="11.963929090688946"><ele>24.42857142857143</ele><time>2026-04-10T10:04:53.003Z</time></trkpt><trkpt lat="45.58948308490892" lon="11.964021050160973"><ele>24.142857142857146</ele><time>2026-04-10T10:04:54.003Z</time></trkpt><trkpt lat="45.58951436968203" lon="11.964119391879404"><ele>23.857142857142858</ele><time>2026-04-10T10:04:55.003Z</time></trkpt><trkpt lat="45.58954592857664" lon="11.964212457493959"><ele>23.57142857142857</ele><time>2026-04-10T10:04:56.003Z</time></trkpt><trkpt lat="45.58956832170895" lon="11.964308776692144"><ele>23.28571428571429</ele><time>2026-04-10T10:04:57.003Z</time></trkpt><trkpt lat="45.58959619474335" lon="11.964405060227786"><ele>23.0</ele><time>2026-04-10T10:04:58.003Z</time></trkpt><trkpt lat="45.58962578364455" lon="11.964497387574594"><ele>23.0</ele><time>2026-04-10T10:04:59.003Z</time></trkpt><trkpt lat="45.58966130455826" lon="11.964590168661767"><ele>23.0</ele><time>2026-04-10T10:05:00.003Z</time></trkpt><trkpt lat="45.589689773856094" lon="11.964682728233742"><ele>23.0</ele><time>2026-04-10T10:05:01.003Z</time></trkpt><trkpt lat="45.58971778974303" lon="11.964775914251977"><ele>23.0</ele><time>2026-04-10T10:05:02.003Z</time></trkpt><trkpt lat="45.58974398105427" lon="11.96487142558656"><ele>23.0</ele><time>2026-04-10T10:05:03.003Z</time></trkpt><trkpt lat="45.5897759435959" lon="11.964965646102051"><ele>23.0</ele><time>2026-04-10T10:05:04.003Z</time></trkpt><trkpt lat="45.589808068186805" lon="11.965061954499673"><ele>23.0</ele><time>2026-04-10T10:05:05.003Z</time></trkpt><trkpt lat="45.589836995850966" lon="11.965156247324137"><ele>22.714285714285715</ele><time>2026-04-10T10:05:06.003Z</time></trkpt><trkpt lat="45.58986408923758" lon="11.9652504924736"><ele>22.428571428571427</ele><time>2026-04-10T10:05:07Z</time></trkpt><trkpt lat="45.589893195112225" lon="11.965344388936163"><ele>22.142857142857142</ele><time>2026-04-10T10:05:08Z</time></trkpt><trkpt lat="45.589921095412755" lon="11.965442171082431"><ele>21.857142857142858</ele><time>2026-04-10T10:05:09Z</time></trkpt><trkpt lat="45.5899453867787" lon="11.965540299500478"><ele>21.57142857142857</ele><time>2026-04-10T10:05:10Z</time></trkpt><trkpt lat="45.5899771384798" lon="11.965637588610312"><ele>21.285714285714285</ele><time>2026-04-10T10:05:11Z</time></trkpt><trkpt lat="45.59001028627511" lon="11.96573231484167"><ele>21.0</ele><time>2026-04-10T10:05:12Z</time></trkpt><trkpt lat="45.590040620979906" lon="11.965829474119422"><ele>21.142857142857142</ele><time>2026-04-10T10:05:13Z</time></trkpt><trkpt lat="45.590070059958265" lon="11.96592574260419"><ele>21.285714285714285</ele><time>2026-04-10T10:05:14Z</time></trkpt><trkpt lat="45.590099150582354" lon="11.966021936201534"><ele>21.42857142857143</ele><time>2026-04-10T10:05:15Z</time></trkpt><trkpt lat="45.590127878381615" lon="11.966114704110502"><ele>21.57142857142857</ele><time>2026-04-10T10:05:16Z</time></trkpt><trkpt lat="45.59015277699088" lon="11.966201495093625"><ele>21.714285714285715</ele><time>2026-04-10T10:05:17Z</time></trkpt><trkpt lat="45.59017971761729" lon="11.966293656500406"><ele>21.857142857142858</ele><time>2026-04-10T10:05:18Z</time></trkpt><trkpt lat="45.590205243731596" lon="11.966383260580225"><ele>22.0</ele><time>2026-04-10T10:05:19Z</time></trkpt><trkpt lat="45.59022898610038" lon="11.966473695578836"><ele>22.0</ele><time>2026-04-10T10:05:20Z</time></trkpt><trkpt lat="45.590256579633035" lon="11.966560107404005"><ele>22.0</ele><time>2026-04-10T10:05:21Z</time></trkpt><trkpt lat="45.5902889776504" lon="11.966643257809897"><ele>22.0</ele><time>2026-04-10T10:05:22Z</time></trkpt><trkpt lat="45.59030956285772" lon="11.966728865128346"><ele>22.0</ele><time>2026-04-10T10:05:23Z</time></trkpt><trkpt lat="45.590356415548094" lon="11.966864653237138"><ele>22.0</ele><time>2026-04-10T10:05:25Z</time></trkpt><trkpt lat="45.59038710711882" lon="11.96699111240598"><ele>22.0</ele><time>2026-04-10T10:05:27Z</time></trkpt><trkpt lat="45.59045293013618" lon="11.967105636466737"><ele>22.0</ele><time>2026-04-10T10:05:30Z</time></trkpt><trkpt lat="45.5904801735748" lon="11.967266502086593"><ele>22.0</ele><time>2026-04-10T10:05:32Z</time></trkpt><trkpt lat="45.590492713966704" lon="11.967355906287683"><ele>22.0</ele><time>2026-04-10T10:05:33Z</time></trkpt><trkpt lat="45.590526214488534" lon="11.967448354943107"><ele>22.0</ele><time>2026-04-10T10:05:34Z</time></trkpt><trkpt lat="45.59056161748054" lon="11.967523038256198"><ele>22.0</ele><time>2026-04-10T10:05:35Z</time></trkpt><trkpt lat="45.59059747337712" lon="11.967685609470822"><ele>22.0</ele><time>2026-04-10T10:05:37.001Z</time></trkpt><trkpt lat="45.590641693831735" lon="11.967819295494847"><ele>22.200000000000003</ele><time>2026-04-10T10:05:39.001Z</time></trkpt><trkpt lat="45.590685343614844" lon="11.967945672332188"><ele>22.4</ele><time>2026-04-10T10:05:41.001Z</time></trkpt><trkpt lat="45.59073026322713" lon="11.968070032610775"><ele>22.6</ele><time>2026-04-10T10:05:43.001Z</time></trkpt><trkpt lat="45.590775290396095" lon="11.96819865966614"><ele>22.799999999999997</ele><time>2026-04-10T10:05:45.001Z</time></trkpt><trkpt lat="45.59081337979494" lon="11.968348000413343"><ele>23.0</ele><time>2026-04-10T10:05:47.001Z</time></trkpt><trkpt lat="45.59083598986332" lon="11.968432645897906"><ele>23.0</ele><time>2026-04-10T10:05:48.001Z</time></trkpt><trkpt lat="45.590859864189" lon="11.968516221619454"><ele>23.0</ele><time>2026-04-10T10:05:49.001Z</time></trkpt><trkpt lat="45.590906351080335" lon="11.968680966648177"><ele>23.0</ele><time>2026-04-10T10:05:51.001Z</time></trkpt><trkpt lat="45.59095262381059" lon="11.968842154812886"><ele>23.0</ele><time>2026-04-10T10:05:53.001Z</time></trkpt><trkpt lat="45.591003271117046" lon="11.968994143124633"><ele>23.0</ele><time>2026-04-10T10:05:55.001Z</time></trkpt><trkpt lat="45.591041945829005" lon="11.969138966712013"><ele>23.0</ele><time>2026-04-10T10:05:57.001Z</time></trkpt><trkpt lat="45.59108043960147" lon="11.969278987201477"><ele>23.0</ele><time>2026-04-10T10:05:59.001Z</time></trkpt><trkpt lat="45.59112456262408" lon="11.969413175533251"><ele>23.0</ele><time>2026-04-10T10:06:01.001Z</time></trkpt><trkpt lat="45.591162726965464" lon="11.969558592747214"><ele>23.0</ele><time>2026-04-10T10:06:03.001Z</time></trkpt><trkpt lat="45.59122076870482" lon="11.969706774751675"><ele>23.0</ele><time>2026-04-10T10:06:05.001Z</time></trkpt><trkpt lat="45.59124554160477" lon="11.969794975429386"><ele>22.75</ele><time>2026-04-10T10:06:06.001Z</time></trkpt><trkpt lat="45.591296480767895" lon="11.969961770369707"><ele>22.5</ele><time>2026-04-10T10:06:08.001Z</time></trkpt><trkpt lat="45.59133633346482" lon="11.970132798909662"><ele>22.25</ele><time>2026-04-10T10:06:10.001Z</time></trkpt><trkpt lat="45.591390809071065" lon="11.970295341209718"><ele>22.0</ele><time>2026-04-10T10:06:12.001Z</time></trkpt><trkpt lat="45.59143638017731" lon="11.97045126303821"><ele>22.0</ele><time>2026-04-10T10:06:14.001Z</time></trkpt><trkpt lat="45.59148433883856" lon="11.97060686275603"><ele>22.0</ele><time>2026-04-10T10:06:16.002Z</time></trkpt><trkpt lat="45.59153378172774" lon="11.97075167464886"><ele>22.0</ele><time>2026-04-10T10:06:18.002Z</time></trkpt><trkpt lat="45.59157858356423" lon="11.97089733381844"><ele>22.0</ele><time>2026-04-10T10:06:20.002Z</time></trkpt><trkpt lat="45.591594546893454" lon="11.971009193237741"><ele>22.0</ele><time>2026-04-10T10:06:22.002Z</time></trkpt><trkpt lat="45.591643126099505" lon="11.971088023328615"><ele>22.0</ele><time>2026-04-10T10:06:24.002Z</time></trkpt><trkpt lat="45.59166937408393" lon="11.971211553743597"><ele>22.0</ele><time>2026-04-10T10:06:26.002Z</time></trkpt><trkpt lat="45.59171855095609" lon="11.971339293744533"><ele>22.0</ele><time>2026-04-10T10:06:28.002Z</time></trkpt><trkpt lat="45.591761759398885" lon="11.971482060662348"><ele>22.0</ele><time>2026-04-10T10:06:30.002Z</time></trkpt><trkpt lat="45.59180669034673" lon="11.971612857449328"><ele>22.0</ele><time>2026-04-10T10:06:32.002Z</time></trkpt><trkpt lat="45.59184907088141" lon="11.971756981333836"><ele>22.0</ele><time>2026-04-10T10:06:34.002Z</time></trkpt><trkpt lat="45.591895156518675" lon="11.971899633476964"><ele>22.0</ele><time>2026-04-10T10:06:36.002Z</time></trkpt><trkpt lat="45.59194094117083" lon="11.972039650912611"><ele>22.0</ele><time>2026-04-10T10:06:38.002Z</time></trkpt><trkpt lat="45.59198200836476" lon="11.972186592023077"><ele>22.0</ele><time>2026-04-10T10:06:40.002Z</time></trkpt><trkpt lat="45.59202316379172" lon="11.97231517241103"><ele>22.0</ele><time>2026-04-10T10:06:42.002Z</time></trkpt><trkpt lat="45.59207272544845" lon="11.97247003591336"><ele>21.666666666666664</ele><time>2026-04-10T10:06:44.002Z</time></trkpt><trkpt lat="45.59211266374408" lon="11.972635523030915"><ele>21.333333333333332</ele><time>2026-04-10T10:06:46.002Z</time></trkpt><trkpt lat="45.59213531584236" lon="11.972720538493085"><ele>21.0</ele><time>2026-04-10T10:06:47.002Z</time></trkpt><trkpt lat="45.59218061599079" lon="11.972870610705254"><ele>20.666666666666668</ele><time>2026-04-10T10:06:49.002Z</time></trkpt><trkpt lat="45.59219979512829" lon="11.972967588372564"><ele>20.333333333333336</ele><time>2026-04-10T10:06:50.002Z</time></trkpt><trkpt lat="45.59222660180929" lon="11.97305655937578"><ele>20.0</ele><time>2026-04-10T10:06:51.002Z</time></trkpt><trkpt lat="45.59228023711923" lon="11.973221662295142"><ele>20.333333333333336</ele><time>2026-04-10T10:06:53.002Z</time></trkpt><trkpt lat="45.592332470581354" lon="11.973385223636036"><ele>20.666666666666668</ele><time>2026-04-10T10:06:55.003Z</time></trkpt><trkpt lat="45.59236094440322" lon="11.97347002032035"><ele>21.0</ele><time>2026-04-10T10:06:56.003Z</time></trkpt><trkpt lat="45.59241089164246" lon="11.973636867438465"><ele>21.333333333333332</ele><time>2026-04-10T10:06:58.003Z</time></trkpt><trkpt lat="45.592437686816055" lon="11.973720071487424"><ele>21.666666666666664</ele><time>2026-04-10T10:06:59.003Z</time></trkpt><trkpt lat="45.59246667492796" lon="11.973800446485248"><ele>22.0</ele><time>2026-04-10T10:07:00.003Z</time></trkpt><trkpt lat="45.592491163445686" lon="11.973888318577655"><ele>22.0</ele><time>2026-04-10T10:07:01.003Z</time></trkpt><trkpt lat="45.59251895333028" lon="11.973971336911715"><ele>22.0</ele><time>2026-04-10T10:07:02.003Z</time></trkpt><trkpt lat="45.592561858531646" lon="11.974137739249405"><ele>22.0</ele><time>2026-04-10T10:07:04.003Z</time></trkpt><trkpt lat="45.592590599682055" lon="11.974222197721785"><ele>22.0</ele><time>2026-04-10T10:07:05.003Z</time></trkpt><trkpt lat="45.59264152695892" lon="11.974386904988911"><ele>22.0</ele><time>2026-04-10T10:07:07.003Z</time></trkpt><trkpt lat="45.59266614439996" lon="11.97447027987326"><ele>22.0</ele><time>2026-04-10T10:07:08.003Z</time></trkpt><trkpt lat="45.59269064940457" lon="11.97455960407154"><ele>22.0</ele><time>2026-04-10T10:07:09.003Z</time></trkpt><trkpt lat="45.592719324309506" lon="11.974641385910955"><ele>22.0</ele><time>2026-04-10T10:07:10.003Z</time></trkpt><trkpt lat="45.592770763354395" lon="11.974813293691088"><ele>22.0</ele><time>2026-04-10T10:07:12.003Z</time></trkpt><trkpt lat="45.59279913891567" lon="11.97490156792648"><ele>22.0</ele><time>2026-04-10T10:07:13Z</time></trkpt><trkpt lat="45.59283410721012" lon="11.974980431931538"><ele>22.0</ele><time>2026-04-10T10:07:14Z</time></trkpt><trkpt lat="45.59285756301881" lon="11.975066267457594"><ele>22.0</ele><time>2026-04-10T10:07:15Z</time></trkpt><trkpt lat="45.59288003524434" lon="11.975155410446936"><ele>22.200000000000003</ele><time>2026-04-10T10:07:16Z</time></trkpt><trkpt lat="45.59292770165651" lon="11.975323526653241"><ele>22.4</ele><time>2026-04-10T10:07:18Z</time></trkpt><trkpt lat="45.59295813266699" lon="11.975405276262979"><ele>22.6</ele><time>2026-04-10T10:07:19Z</time></trkpt><trkpt lat="45.592980498940264" lon="11.975492458622949"><ele>22.799999999999997</ele><time>2026-04-10T10:07:20Z</time></trkpt><trkpt lat="45.593036431148455" lon="11.97566429019621"><ele>23.0</ele><time>2026-04-10T10:07:22Z</time></trkpt><trkpt lat="45.59306414441033" lon="11.975750303149987"><ele>23.0</ele><time>2026-04-10T10:07:23Z</time></trkpt><trkpt lat="45.59312139755698" lon="11.975912435936571"><ele>23.0</ele><time>2026-04-10T10:07:25Z</time></trkpt><trkpt lat="45.593139964212114" lon="11.976000986761926"><ele>23.0</ele><time>2026-04-10T10:07:26Z</time></trkpt><trkpt lat="45.59316618979823" lon="11.976093301334892"><ele>23.0</ele><time>2026-04-10T10:07:27Z</time></trkpt><trkpt lat="45.59319324811223" lon="11.976184840683047"><ele>23.0</ele><time>2026-04-10T10:07:28Z</time></trkpt><trkpt lat="45.59324594043441" lon="11.976347863929696"><ele>23.0</ele><time>2026-04-10T10:07:30Z</time></trkpt><trkpt lat="45.59327011311422" lon="11.976441628774989"><ele>23.0</ele><time>2026-04-10T10:07:31Z</time></trkpt><trkpt lat="45.593297841332664" lon="11.976532139705458"><ele>23.0</ele><time>2026-04-10T10:07:32Z</time></trkpt><trkpt lat="45.593329478652784" lon="11.976637936209443"><ele>23.0</ele><time>2026-04-10T10:07:33Z</time></trkpt><trkpt lat="45.59337047205411" lon="11.976731781926794"><ele>23.0</ele><time>2026-04-10T10:07:34Z</time></trkpt><trkpt lat="45.59340959255899" lon="11.976826611472186"><ele>23.0</ele><time>2026-04-10T10:07:35Z</time></trkpt><trkpt lat="45.59343826654283" lon="11.976924758510258"><ele>23.0</ele><time>2026-04-10T10:07:36Z</time></trkpt><trkpt lat="45.5934416659515" lon="11.977035862402026"><ele>23.0</ele><time>2026-04-10T10:07:37Z</time></trkpt><trkpt lat="45.593479786046686" lon="11.977125015417128"><ele>23.0</ele><time>2026-04-10T10:07:38Z</time></trkpt><trkpt lat="45.593517093074425" lon="11.97723422338968"><ele>23.0</ele><time>2026-04-10T10:07:39Z</time></trkpt><trkpt lat="45.593546028746175" lon="11.97733226362752"><ele>23.0</ele><time>2026-04-10T10:07:40Z</time></trkpt><trkpt lat="45.59357739052814" lon="11.977418235098444"><ele>23.0</ele><time>2026-04-10T10:07:41Z</time></trkpt><trkpt lat="45.5936064347819" lon="11.977507983181242"><ele>23.0</ele><time>2026-04-10T10:07:42Z</time></trkpt><trkpt lat="45.593630318663244" lon="11.977598038413522"><ele>23.0</ele><time>2026-04-10T10:07:43Z</time></trkpt><trkpt lat="45.59366314452181" lon="11.977693103946743"><ele>23.0</ele><time>2026-04-10T10:07:44Z</time></trkpt><trkpt lat="45.593692408895606" lon="11.97778888285987"><ele>23.0</ele><time>2026-04-10T10:07:45.001Z</time></trkpt><trkpt lat="45.59372343763912" lon="11.977882858751709"><ele>23.0</ele><time>2026-04-10T10:07:46.001Z</time></trkpt><trkpt lat="45.59375076072576" lon="11.97796911834428"><ele>23.0</ele><time>2026-04-10T10:07:47.001Z</time></trkpt><trkpt lat="45.5937749660372" lon="11.978057030799402"><ele>23.0</ele><time>2026-04-10T10:07:48.001Z</time></trkpt><trkpt lat="45.59380072917208" lon="11.978147823697965"><ele>23.0</ele><time>2026-04-10T10:07:49.001Z</time></trkpt><trkpt lat="45.59382909971815" lon="11.97823464543702"><ele>23.0</ele><time>2026-04-10T10:07:50.001Z</time></trkpt><trkpt lat="45.593856175186126" lon="11.978334347334561"><ele>23.0</ele><time>2026-04-10T10:07:51.001Z</time></trkpt><trkpt lat="45.59388549496689" lon="11.978429577213111"><ele>23.0</ele><time>2026-04-10T10:07:52.001Z</time></trkpt><trkpt lat="45.593911444804924" lon="11.978512937366997"><ele>23.0</ele><time>2026-04-10T10:07:53.001Z</time></trkpt><trkpt lat="45.59393784070538" lon="11.978596760012529"><ele>23.0</ele><time>2026-04-10T10:07:54.001Z</time></trkpt><trkpt lat="45.593986103976256" lon="11.978754627951728"><ele>23.0</ele><time>2026-04-10T10:07:56.001Z</time></trkpt><trkpt lat="45.594013356472935" lon="11.978840068138833"><ele>23.0</ele><time>2026-04-10T10:07:57.001Z</time></trkpt><trkpt lat="45.59405633968076" lon="11.979000085886504"><ele>23.0</ele><time>2026-04-10T10:07:59.001Z</time></trkpt><trkpt lat="45.59410093278276" lon="11.979143645002136"><ele>23.0</ele><time>2026-04-10T10:08:01.001Z</time></trkpt><trkpt lat="45.59415117970899" lon="11.979272166959394"><ele>23.0</ele><time>2026-04-10T10:08:03.001Z</time></trkpt><trkpt lat="45.59416720748042" lon="11.979373121761862"><ele>23.0</ele><time>2026-04-10T10:08:07.001Z</time></trkpt><trkpt lat="45.59421898387499" lon="11.979486194137914"><ele>23.0</ele><time>2026-04-10T10:08:10.001Z</time></trkpt><trkpt lat="45.59425272289113" lon="11.979597790970512"><ele>23.0</ele><time>2026-04-10T10:08:12.001Z</time></trkpt><trkpt lat="45.594291465884076" lon="11.97973510239959"><ele>23.0</ele><time>2026-04-10T10:08:14.001Z</time></trkpt><trkpt lat="45.594336682563736" lon="11.979867493856037"><ele>23.0</ele><time>2026-04-10T10:08:16.001Z</time></trkpt><trkpt lat="45.59437325088795" lon="11.980002896231996"><ele>23.0</ele><time>2026-04-10T10:08:18.001Z</time></trkpt><trkpt lat="45.594421707208575" lon="11.980156240083476"><ele>23.0</ele><time>2026-04-10T10:08:20.001Z</time></trkpt><trkpt lat="45.594470645716314" lon="11.980319425671203"><ele>23.2</ele><time>2026-04-10T10:08:22.001Z</time></trkpt><trkpt lat="45.594516767802205" lon="11.980478915230623"><ele>23.4</ele><time>2026-04-10T10:08:24.001Z</time></trkpt><trkpt lat="45.59456165068274" lon="11.980641377347293"><ele>23.599999999999998</ele><time>2026-04-10T10:08:26.002Z</time></trkpt><trkpt lat="45.594611802500566" lon="11.980800146244098"><ele>23.799999999999997</ele><time>2026-04-10T10:08:28.002Z</time></trkpt><trkpt lat="45.594643527742036" lon="11.980880451248241"><ele>24.0</ele><time>2026-04-10T10:08:29.002Z</time></trkpt><trkpt lat="45.59468977832674" lon="11.981037098261764"><ele>24.0</ele><time>2026-04-10T10:08:31.002Z</time></trkpt><trkpt lat="45.594729931236536" lon="11.981147745721882"><ele>24.0</ele><time>2026-04-10T10:08:33.002Z</time></trkpt><trkpt lat="45.594772529404764" lon="11.981237541938205"><ele>24.0</ele><time>2026-04-10T10:08:39.002Z</time></trkpt><trkpt lat="45.594799772800656" lon="11.981394124685483"><ele>24.0</ele><time>2026-04-10T10:08:42.002Z</time></trkpt><trkpt lat="45.59484214445111" lon="11.981544784405969"><ele>24.0</ele><time>2026-04-10T10:08:44.002Z</time></trkpt><trkpt lat="45.59489587313955" lon="11.981704786094891"><ele>23.75</ele><time>2026-04-10T10:08:46.002Z</time></trkpt><trkpt lat="45.59502998873139" lon="11.981811589729105"><ele>23.5</ele><time>2026-04-10T10:08:48.002Z</time></trkpt><trkpt lat="45.59506689873002" lon="11.981960030849619"><ele>23.25</ele><time>2026-04-10T10:08:50.002Z</time></trkpt><trkpt lat="45.59510910895571" lon="11.982095539451452"><ele>23.0</ele><time>2026-04-10T10:08:52.002Z</time></trkpt><trkpt lat="45.59515810983189" lon="11.98224242822828"><ele>23.0</ele><time>2026-04-10T10:08:54.002Z</time></trkpt><trkpt lat="45.59520735318149" lon="11.982395232307105"><ele>23.0</ele><time>2026-04-10T10:08:56.002Z</time></trkpt><trkpt lat="45.5952583308495" lon="11.982559505784788"><ele>23.0</ele><time>2026-04-10T10:08:58.002Z</time></trkpt><trkpt lat="45.595310337861285" lon="11.982730805101058"><ele>23.0</ele><time>2026-04-10T10:09:00.002Z</time></trkpt><trkpt lat="45.595355915921864" lon="11.982887129999945"><ele>22.833333333333336</ele><time>2026-04-10T10:09:02.002Z</time></trkpt><trkpt lat="45.59540403707397" lon="11.983052177644742"><ele>22.666666666666668</ele><time>2026-04-10T10:09:04.002Z</time></trkpt><trkpt lat="45.595428787416544" lon="11.983137067064755"><ele>22.5</ele><time>2026-04-10T10:09:05.003Z</time></trkpt><trkpt lat="45.595454003709214" lon="11.983219659249217"><ele>22.333333333333332</ele><time>2026-04-10T10:09:06.003Z</time></trkpt><trkpt lat="45.5954820201241" lon="11.983311357236477"><ele>22.166666666666664</ele><time>2026-04-10T10:09:07.003Z</time></trkpt><trkpt lat="45.595530705772056" lon="11.983470705777693"><ele>22.0</ele><time>2026-04-10T10:09:09.003Z</time></trkpt><trkpt lat="45.59555718962092" lon="11.983557387989713"><ele>21.833333333333332</ele><time>2026-04-10T10:09:10.003Z</time></trkpt><trkpt lat="45.59558349495594" lon="11.983643485539497"><ele>21.666666666666664</ele><time>2026-04-10T10:09:11.003Z</time></trkpt><trkpt lat="45.5956127332328" lon="11.983739182710934"><ele>21.5</ele><time>2026-04-10T10:09:12.003Z</time></trkpt><trkpt lat="45.59564116504736" lon="11.983832240328452"><ele>21.333333333333332</ele><time>2026-04-10T10:09:13.003Z</time></trkpt><trkpt lat="45.59566850577746" lon="11.983921726700174"><ele>21.166666666666668</ele><time>2026-04-10T10:09:14.003Z</time></trkpt><trkpt lat="45.595698333430406" lon="11.984019353082887"><ele>21.0</ele><time>2026-04-10T10:09:15.003Z</time></trkpt><trkpt lat="45.5957505174972" lon="11.984190152226956"><ele>21.0</ele><time>2026-04-10T10:09:17.003Z</time></trkpt><trkpt lat="45.59577614995503" lon="11.984274047702675"><ele>21.0</ele><time>2026-04-10T10:09:18.003Z</time></trkpt><trkpt lat="45.59580100220541" lon="11.984358764722206"><ele>21.0</ele><time>2026-04-10T10:09:19.001Z</time></trkpt><trkpt lat="45.595845951950665" lon="11.98451352985365"><ele>21.0</ele><time>2026-04-10T10:09:21.001Z</time></trkpt><trkpt lat="45.59588805516667" lon="11.984658494544977"><ele>21.0</ele><time>2026-04-10T10:09:23.001Z</time></trkpt><trkpt lat="45.59593159333543" lon="11.98481064328463"><ele>21.0</ele><time>2026-04-10T10:09:25.001Z</time></trkpt><trkpt lat="45.595955311335985" lon="11.984896474061724"><ele>21.0</ele><time>2026-04-10T10:09:26.001Z</time></trkpt><trkpt lat="45.59599917265252" lon="11.985029952650471"><ele>21.0</ele><time>2026-04-10T10:09:28.001Z</time></trkpt><trkpt lat="45.5960533294296" lon="11.985126438556799"><ele>21.0</ele><time>2026-04-10T10:09:30.001Z</time></trkpt><trkpt lat="45.59614161111595" lon="11.98520584527747"><ele>21.0</ele><time>2026-04-10T10:09:33.001Z</time></trkpt><trkpt lat="45.59604175495886" lon="11.985454611960938"><ele>20.833333333333332</ele><time>2026-04-10T10:09:34.001Z</time></trkpt><trkpt lat="45.596086505646014" lon="11.985603857077962"><ele>20.666666666666668</ele><time>2026-04-10T10:09:36.001Z</time></trkpt><trkpt lat="45.59610787257533" lon="11.985689657607978"><ele>20.5</ele><time>2026-04-10T10:09:37.001Z</time></trkpt><trkpt lat="45.59615699872857" lon="11.985858254313275"><ele>20.333333333333336</ele><time>2026-04-10T10:09:39.001Z</time></trkpt><trkpt lat="45.596188137602354" lon="11.985943236141784"><ele>20.166666666666668</ele><time>2026-04-10T10:09:40.001Z</time></trkpt><trkpt lat="45.59621459530377" lon="11.986030737363604"><ele>20.0</ele><time>2026-04-10T10:09:41.001Z</time></trkpt><trkpt lat="45.59623728518299" lon="11.98612057722329"><ele>20.285714285714285</ele><time>2026-04-10T10:09:42.001Z</time></trkpt><trkpt lat="45.5962635444918" lon="11.986210996476933"><ele>20.571428571428573</ele><time>2026-04-10T10:09:43.001Z</time></trkpt><trkpt lat="45.596282192761876" lon="11.986304298111476"><ele>20.857142857142858</ele><time>2026-04-10T10:09:44.001Z</time></trkpt><trkpt lat="45.59631407273406" lon="11.986401514424223"><ele>21.142857142857142</ele><time>2026-04-10T10:09:45.001Z</time></trkpt><trkpt lat="45.596342068543215" lon="11.986491074946029"><ele>21.428571428571427</ele><time>2026-04-10T10:09:46.001Z</time></trkpt><trkpt lat="45.59637337778" lon="11.986585012886234"><ele>21.714285714285715</ele><time>2026-04-10T10:09:47.001Z</time></trkpt><trkpt lat="45.59640362570878" lon="11.986669413740387"><ele>22.0</ele><time>2026-04-10T10:09:48.001Z</time></trkpt><trkpt lat="45.59643554261357" lon="11.986756348465637"><ele>22.0</ele><time>2026-04-10T10:09:49.001Z</time></trkpt><trkpt lat="45.59646352405676" lon="11.986854007690752"><ele>22.0</ele><time>2026-04-10T10:09:50.001Z</time></trkpt><trkpt lat="45.596492929974886" lon="11.986939046399181"><ele>22.0</ele><time>2026-04-10T10:09:51.001Z</time></trkpt><trkpt lat="45.59651884439933" lon="11.98703868828084"><ele>22.0</ele><time>2026-04-10T10:09:52.001Z</time></trkpt><trkpt lat="45.596543311627705" lon="11.987135561178986"><ele>22.0</ele><time>2026-04-10T10:09:53.001Z</time></trkpt><trkpt lat="45.59656979982547" lon="11.98723459265378"><ele>22.0</ele><time>2026-04-10T10:09:54.001Z</time></trkpt><trkpt lat="45.59659996135588" lon="11.987322764356303"><ele>22.0</ele><time>2026-04-10T10:09:55.001Z</time></trkpt><trkpt lat="45.59663268812705" lon="11.987413524139665"><ele>22.0</ele><time>2026-04-10T10:09:56.001Z</time></trkpt><trkpt lat="45.59666587146091" lon="11.987511514141797"><ele>22.0</ele><time>2026-04-10T10:09:57.001Z</time></trkpt><trkpt lat="45.59669570853228" lon="11.987608228724708"><ele>22.0</ele><time>2026-04-10T10:09:58.001Z</time></trkpt><trkpt lat="45.5967245066023" lon="11.987707906866833"><ele>22.0</ele><time>2026-04-10T10:09:59.001Z</time></trkpt><trkpt lat="45.596749021056155" lon="11.98780912168979"><ele>22.0</ele><time>2026-04-10T10:10:00.001Z</time></trkpt><trkpt lat="45.596775186299496" lon="11.987910041776901"><ele>22.0</ele><time>2026-04-10T10:10:01.001Z</time></trkpt><trkpt lat="45.59681117165789" lon="11.988009595182168"><ele>22.0</ele><time>2026-04-10T10:10:02.001Z</time></trkpt><trkpt lat="45.59684363038227" lon="11.98810454571209"><ele>22.0</ele><time>2026-04-10T10:10:03.001Z</time></trkpt><trkpt lat="45.59687083256332" lon="11.98820649677669"><ele>22.0</ele><time>2026-04-10T10:10:04.001Z</time></trkpt><trkpt lat="45.59690006113712" lon="11.988308712679583"><ele>22.0</ele><time>2026-04-10T10:10:05.001Z</time></trkpt><trkpt lat="45.59693525618689" lon="11.988404121612417"><ele>22.0</ele><time>2026-04-10T10:10:06.001Z</time></trkpt><trkpt lat="45.59696474975253" lon="11.988503364523087"><ele>22.0</ele><time>2026-04-10T10:10:07.001Z</time></trkpt><trkpt lat="45.59699772051899" lon="11.98860279648881"><ele>22.333333333333332</ele><time>2026-04-10T10:10:08.001Z</time></trkpt><trkpt lat="45.59701915967808" lon="11.988705696137282"><ele>22.666666666666664</ele><time>2026-04-10T10:10:09.001Z</time></trkpt><trkpt lat="45.59704623166153" lon="11.988813177576962"><ele>23.0</ele><time>2026-04-10T10:10:10.001Z</time></trkpt><trkpt lat="45.59707662544428" lon="11.988906302100775"><ele>23.333333333333332</ele><time>2026-04-10T10:10:11.001Z</time></trkpt><trkpt lat="45.597106008160054" lon="11.989006271840237"><ele>23.666666666666668</ele><time>2026-04-10T10:10:12.001Z</time></trkpt><trkpt lat="45.59713852922036" lon="11.98909785556447"><ele>24.0</ele><time>2026-04-10T10:10:13.001Z</time></trkpt><trkpt lat="45.597170928338805" lon="11.989195475219576"><ele>24.0</ele><time>2026-04-10T10:10:14.001Z</time></trkpt><trkpt lat="45.597201307305994" lon="11.989293556525343"><ele>24.0</ele><time>2026-04-10T10:10:15.001Z</time></trkpt><trkpt lat="45.59722646598299" lon="11.98939421878321"><ele>24.0</ele><time>2026-04-10T10:10:16.001Z</time></trkpt><trkpt lat="45.5972564494185" lon="11.98949561108316"><ele>24.0</ele><time>2026-04-10T10:10:17.001Z</time></trkpt><trkpt lat="45.597281398449475" lon="11.989594675335205"><ele>24.0</ele><time>2026-04-10T10:10:18.001Z</time></trkpt><trkpt lat="45.59730888175894" lon="11.989694460812078"><ele>24.0</ele><time>2026-04-10T10:10:19.001Z</time></trkpt><trkpt lat="45.5973336729245" lon="11.989795519458314"><ele>23.999999999999996</ele><time>2026-04-10T10:10:20.001Z</time></trkpt><trkpt lat="45.597369036414754" lon="11.989890752939665"><ele>24.0</ele><time>2026-04-10T10:10:21.001Z</time></trkpt><trkpt lat="45.59740171813834" lon="11.989991977699205"><ele>24.0</ele><time>2026-04-10T10:10:22.001Z</time></trkpt><trkpt lat="45.59743305583241" lon="11.990084693262368"><ele>24.0</ele><time>2026-04-10T10:10:23.001Z</time></trkpt><trkpt lat="45.597463944675894" lon="11.990185983541426"><ele>24.0</ele><time>2026-04-10T10:10:24.001Z</time></trkpt><trkpt lat="45.59749452226423" lon="11.990278663797802"><ele>23.999999999999996</ele><time>2026-04-10T10:10:25.002Z</time></trkpt><trkpt lat="45.597520826806594" lon="11.990377398377731"><ele>24.0</ele><time>2026-04-10T10:10:26.002Z</time></trkpt><trkpt lat="45.597554177142314" lon="11.990471989486144"><ele>23.857142857142854</ele><time>2026-04-10T10:10:27.002Z</time></trkpt><trkpt lat="45.59758933425167" lon="11.990567263387613"><ele>23.714285714285715</ele><time>2026-04-10T10:10:28.002Z</time></trkpt><trkpt lat="45.597614309271826" lon="11.990663607013035"><ele>23.57142857142857</ele><time>2026-04-10T10:10:29.002Z</time></trkpt><trkpt lat="45.597646817307265" lon="11.99075838143556"><ele>23.428571428571427</ele><time>2026-04-10T10:10:30.002Z</time></trkpt><trkpt lat="45.59767517648245" lon="11.990851872307278"><ele>23.285714285714285</ele><time>2026-04-10T10:10:31.002Z</time></trkpt><trkpt lat="45.59770674270371" lon="11.990945035324103"><ele>23.142857142857142</ele><time>2026-04-10T10:10:32.002Z</time></trkpt><trkpt lat="45.59773783930927" lon="11.991039155984025"><ele>23.0</ele><time>2026-04-10T10:10:33.002Z</time></trkpt><trkpt lat="45.59776786869421" lon="11.991134429321544"><ele>23.0</ele><time>2026-04-10T10:10:34.002Z</time></trkpt><trkpt lat="45.59779343114446" lon="11.991232583330415"><ele>23.0</ele><time>2026-04-10T10:10:35.002Z</time></trkpt><trkpt lat="45.59782729554084" lon="11.991318608265065"><ele>23.0</ele><time>2026-04-10T10:10:36.002Z</time></trkpt><trkpt lat="45.59786207696394" lon="11.99141014468507"><ele>23.0</ele><time>2026-04-10T10:10:37.002Z</time></trkpt><trkpt lat="45.59788872426552" lon="11.991499162680588"><ele>23.0</ele><time>2026-04-10T10:10:38.002Z</time></trkpt><trkpt lat="45.59791586239909" lon="11.991590076808025"><ele>23.0</ele><time>2026-04-10T10:10:39.002Z</time></trkpt><trkpt lat="45.597943546946105" lon="11.991680539091513"><ele>23.0</ele><time>2026-04-10T10:10:40.002Z</time></trkpt><trkpt lat="45.5979714863428" lon="11.991765279403738"><ele>23.0</ele><time>2026-04-10T10:10:41.002Z</time></trkpt><trkpt lat="45.59799948623498" lon="11.99184740164742"><ele>23.0</ele><time>2026-04-10T10:10:42.002Z</time></trkpt><trkpt lat="45.59803368144921" lon="11.99192666138787"><ele>23.0</ele><time>2026-04-10T10:10:43.002Z</time></trkpt><trkpt lat="45.598066184278736" lon="11.992018546118812"><ele>23.0</ele><time>2026-04-10T10:10:44.002Z</time></trkpt><trkpt lat="45.598100119195884" lon="11.992102512515933"><ele>23.0</ele><time>2026-04-10T10:10:45.002Z</time></trkpt><trkpt lat="45.59812898582535" lon="11.992185577559946"><ele>23.0</ele><time>2026-04-10T10:10:46.002Z</time></trkpt><trkpt lat="45.59815273297538" lon="11.99227632844703"><ele>23.0</ele><time>2026-04-10T10:10:47.002Z</time></trkpt><trkpt lat="45.59817055930024" lon="11.992371052733153"><ele>23.0</ele><time>2026-04-10T10:10:48.002Z</time></trkpt><trkpt lat="45.59819677613623" lon="11.99245892989407"><ele>23.0</ele><time>2026-04-10T10:10:49.002Z</time></trkpt><trkpt lat="45.598225387156084" lon="11.992545839232214"><ele>23.0</ele><time>2026-04-10T10:10:50.002Z</time></trkpt><trkpt lat="45.59825561887817" lon="11.992626583748024"><ele>23.0</ele><time>2026-04-10T10:10:51.002Z</time></trkpt><trkpt lat="45.59828338923052" lon="11.992707543239453"><ele>23.0</ele><time>2026-04-10T10:10:52.002Z</time></trkpt><trkpt lat="45.598314351648625" lon="11.992789610859667"><ele>23.0</ele><time>2026-04-10T10:10:53.002Z</time></trkpt><trkpt lat="45.59833675520638" lon="11.992876233254929"><ele>23.0</ele><time>2026-04-10T10:10:54.002Z</time></trkpt><trkpt lat="45.59837797081989" lon="11.993059384213005"><ele>23.142857142857142</ele><time>2026-04-10T10:10:56.002Z</time></trkpt><trkpt lat="45.59840826915234" lon="11.993148324934193"><ele>23.285714285714285</ele><time>2026-04-10T10:10:57.002Z</time></trkpt><trkpt lat="45.59844189255201" lon="11.99323907876471"><ele>23.428571428571427</ele><time>2026-04-10T10:10:58.002Z</time></trkpt><trkpt lat="45.59847156210994" lon="11.993327993577289"><ele>23.57142857142857</ele><time>2026-04-10T10:10:59.002Z</time></trkpt><trkpt lat="45.59849853231065" lon="11.993418227031528"><ele>23.714285714285715</ele><time>2026-04-10T10:11:00.002Z</time></trkpt><trkpt lat="45.59852250262283" lon="11.993518877416232"><ele>23.857142857142854</ele><time>2026-04-10T10:11:01.002Z</time></trkpt><trkpt lat="45.59854954935988" lon="11.99361029475701"><ele>24.0</ele><time>2026-04-10T10:11:02.002Z</time></trkpt><trkpt lat="45.598575887011435" lon="11.99370750054361"><ele>23.999999999999996</ele><time>2026-04-10T10:11:03.002Z</time></trkpt><trkpt lat="45.59860496033853" lon="11.993796459722654"><ele>24.0</ele><time>2026-04-10T10:11:04.002Z</time></trkpt><trkpt lat="45.598638857077546" lon="11.993884651967877"><ele>24.0</ele><time>2026-04-10T10:11:05.002Z</time></trkpt><trkpt lat="45.5986720291853" lon="11.993987646736286"><ele>24.0</ele><time>2026-04-10T10:11:06.002Z</time></trkpt><trkpt lat="45.598692851015514" lon="11.994085454831493"><ele>24.0</ele><time>2026-04-10T10:11:07.003Z</time></trkpt><trkpt lat="45.59871773894429" lon="11.994181060655825"><ele>23.999999999999996</ele><time>2026-04-10T10:11:08.003Z</time></trkpt><trkpt lat="45.59875430319257" lon="11.994265784594152"><ele>24.0</ele><time>2026-04-10T10:11:09.003Z</time></trkpt><trkpt lat="45.598787018799676" lon="11.994355911642845"><ele>23.71428571428571</ele><time>2026-04-10T10:11:10.003Z</time></trkpt><trkpt lat="45.59881196920257" lon="11.994459733915749"><ele>23.428571428571427</ele><time>2026-04-10T10:11:11.003Z</time></trkpt><trkpt lat="45.598840046480284" lon="11.994561921862308"><ele>23.142857142857142</ele><time>2026-04-10T10:11:12.003Z</time></trkpt><trkpt lat="45.59887188919327" lon="11.994652864706266"><ele>22.857142857142854</ele><time>2026-04-10T10:11:13.003Z</time></trkpt><trkpt lat="45.59890064746328" lon="11.99474975233908"><ele>22.57142857142857</ele><time>2026-04-10T10:11:14.003Z</time></trkpt><trkpt lat="45.59892531216002" lon="11.994850286865697"><ele>22.285714285714285</ele><time>2026-04-10T10:11:15.003Z</time></trkpt><trkpt lat="45.59894609152523" lon="11.994941366459607"><ele>22.0</ele><time>2026-04-10T10:11:16.003Z</time></trkpt><trkpt lat="45.59897878398371" lon="11.995045005594802"><ele>22.0</ele><time>2026-04-10T10:11:17.003Z</time></trkpt><trkpt lat="45.59900669966634" lon="11.995145542493203"><ele>22.0</ele><time>2026-04-10T10:11:18.003Z</time></trkpt><trkpt lat="45.59903486757327" lon="11.995242887774749"><ele>22.0</ele><time>2026-04-10T10:11:19.003Z</time></trkpt><trkpt lat="45.59906274227362" lon="11.995339552979246"><ele>22.0</ele><time>2026-04-10T10:11:20.003Z</time></trkpt><trkpt lat="45.59909023039748" lon="11.995433503862671"><ele>22.0</ele><time>2026-04-10T10:11:21.003Z</time></trkpt><trkpt lat="45.59912123344476" lon="11.995523537875368"><ele>22.0</ele><time>2026-04-10T10:11:22.003Z</time></trkpt><trkpt lat="45.59914229753039" lon="11.995610331266715"><ele>22.0</ele><time>2026-04-10T10:11:23.003Z</time></trkpt><trkpt lat="45.59916981317304" lon="11.995698269873719"><ele>21.8</ele><time>2026-04-10T10:11:24.003Z</time></trkpt><trkpt lat="45.59921967062877" lon="11.995861601935022"><ele>21.6</ele><time>2026-04-10T10:11:26.001Z</time></trkpt><trkpt lat="45.59926775027761" lon="11.996003148657802"><ele>21.400000000000002</ele><time>2026-04-10T10:11:28.001Z</time></trkpt><trkpt lat="45.599292084773204" lon="11.996087312802603"><ele>21.200000000000003</ele><time>2026-04-10T10:11:29.001Z</time></trkpt><trkpt lat="45.599313777910545" lon="11.996177531986758"><ele>21.0</ele><time>2026-04-10T10:11:30.001Z</time></trkpt><trkpt lat="45.59937367642057" lon="11.996345964697662"><ele>21.0</ele><time>2026-04-10T10:11:32.001Z</time></trkpt><trkpt lat="45.59941805062079" lon="11.996502936500027"><ele>21.0</ele><time>2026-04-10T10:11:34.001Z</time></trkpt><trkpt lat="45.59946524465646" lon="11.996649598366147"><ele>21.0</ele><time>2026-04-10T10:11:36.001Z</time></trkpt><trkpt lat="45.59950457003946" lon="11.996798392819256"><ele>21.0</ele><time>2026-04-10T10:11:38.001Z</time></trkpt><trkpt lat="45.59956429841035" lon="11.996943901655786"><ele>21.166666666666668</ele><time>2026-04-10T10:11:40.001Z</time></trkpt><trkpt lat="45.59959048394354" lon="11.997032002188137"><ele>21.333333333333332</ele><time>2026-04-10T10:11:41.001Z</time></trkpt><trkpt lat="45.59963527366741" lon="11.9972011297989"><ele>21.5</ele><time>2026-04-10T10:11:43.001Z</time></trkpt><trkpt lat="45.599685110807386" lon="11.997361206144303"><ele>21.666666666666664</ele><time>2026-04-10T10:11:45.001Z</time></trkpt><trkpt lat="45.599714665033346" lon="11.997448703134129"><ele>21.833333333333332</ele><time>2026-04-10T10:11:46.001Z</time></trkpt><trkpt lat="45.59973953069334" lon="11.997533422831197"><ele>22.0</ele><time>2026-04-10T10:11:47.001Z</time></trkpt><trkpt lat="45.59978467707921" lon="11.997703691677698"><ele>22.333333333333332</ele><time>2026-04-10T10:11:49.001Z</time></trkpt><trkpt lat="45.599813638685376" lon="11.997789307487494"><ele>22.666666666666664</ele><time>2026-04-10T10:11:50.001Z</time></trkpt><trkpt lat="45.599865202515076" lon="11.997957205083072"><ele>23.0</ele><time>2026-04-10T10:11:52.001Z</time></trkpt><trkpt lat="45.59989328170364" lon="11.998047283789045"><ele>23.333333333333332</ele><time>2026-04-10T10:11:53.001Z</time></trkpt><trkpt lat="45.59991799060829" lon="11.99813406166896"><ele>23.666666666666668</ele><time>2026-04-10T10:11:54.001Z</time></trkpt><trkpt lat="45.59994372460349" lon="11.998225673175954"><ele>24.0</ele><time>2026-04-10T10:11:55.001Z</time></trkpt><trkpt lat="45.59997316424786" lon="11.998317227171045"><ele>23.4</ele><time>2026-04-10T10:11:56.001Z</time></trkpt><trkpt lat="45.59999924019558" lon="11.998399839354928"><ele>22.799999999999997</ele><time>2026-04-10T10:11:57.001Z</time></trkpt><trkpt lat="45.600043581677504" lon="11.998560834548037"><ele>22.200000000000003</ele><time>2026-04-10T10:11:59.001Z</time></trkpt><trkpt lat="45.60008755584584" lon="11.998709745978504"><ele>21.6</ele><time>2026-04-10T10:12:01.001Z</time></trkpt><trkpt lat="45.600114545936336" lon="11.998802628307857"><ele>21.0</ele><time>2026-04-10T10:12:02.001Z</time></trkpt><trkpt lat="45.60015818273944" lon="11.998957476092855"><ele>21.0</ele><time>2026-04-10T10:12:04.001Z</time></trkpt><trkpt lat="45.60018756543528" lon="11.999044766785133"><ele>21.0</ele><time>2026-04-10T10:12:05.001Z</time></trkpt><trkpt lat="45.60023928961996" lon="11.999201868295431"><ele>21.0</ele><time>2026-04-10T10:12:07.001Z</time></trkpt><trkpt lat="45.60028943102557" lon="11.999357021066995"><ele>21.0</ele><time>2026-04-10T10:12:09.001Z</time></trkpt><trkpt lat="45.60031785449736" lon="11.999442087891417"><ele>21.0</ele><time>2026-04-10T10:12:10.001Z</time></trkpt><trkpt lat="45.600343538928065" lon="11.999525735397281"><ele>21.0</ele><time>2026-04-10T10:12:11.001Z</time></trkpt><trkpt lat="45.60036098632512" lon="11.999617197281786"><ele>21.166666666666668</ele><time>2026-04-10T10:12:12.001Z</time></trkpt><trkpt lat="45.600404081492094" lon="11.999777245590963"><ele>21.333333333333332</ele><time>2026-04-10T10:12:14.001Z</time></trkpt><trkpt lat="45.60045680173962" lon="11.999898677732828"><ele>21.5</ele><time>2026-04-10T10:12:16.001Z</time></trkpt><trkpt lat="45.60047550056864" lon="11.999989113187855"><ele>21.666666666666664</ele><time>2026-04-10T10:12:19.001Z</time></trkpt><trkpt lat="45.60050656585618" lon="12.000082588173548"><ele>21.833333333333332</ele><time>2026-04-10T10:12:24.001Z</time></trkpt><trkpt lat="45.60054198934353" lon="12.000175079593594"><ele>22.0</ele><time>2026-04-10T10:12:26.001Z</time></trkpt><trkpt lat="45.60057207055817" lon="12.000305331620424"><ele>22.0</ele><time>2026-04-10T10:12:28.001Z</time></trkpt><trkpt lat="45.60061505095545" lon="12.000448462347029"><ele>22.0</ele><time>2026-04-10T10:12:30.002Z</time></trkpt><trkpt lat="45.60066066253088" lon="12.000593384783693"><ele>22.0</ele><time>2026-04-10T10:12:32.002Z</time></trkpt><trkpt lat="45.60070399879146" lon="12.000743368988918"><ele>22.0</ele><time>2026-04-10T10:12:34.002Z</time></trkpt><trkpt lat="45.60075526680892" lon="12.000899296201158"><ele>22.200000000000003</ele><time>2026-04-10T10:12:36.002Z</time></trkpt><trkpt lat="45.600800626697314" lon="12.001061367639247"><ele>22.4</ele><time>2026-04-10T10:12:38.002Z</time></trkpt><trkpt lat="45.60085027200077" lon="12.001220682582511"><ele>22.6</ele><time>2026-04-10T10:12:40.002Z</time></trkpt><trkpt lat="45.60087932470756" lon="12.001302325942618"><ele>22.799999999999997</ele><time>2026-04-10T10:12:41.002Z</time></trkpt><trkpt lat="45.6009266610279" lon="12.001474457102852"><ele>23.0</ele><time>2026-04-10T10:12:43.002Z</time></trkpt><trkpt lat="45.60097962414482" lon="12.001632518594448"><ele>22.833333333333336</ele><time>2026-04-10T10:12:45.002Z</time></trkpt><trkpt lat="45.60102967906645" lon="12.001799142005266"><ele>22.666666666666668</ele><time>2026-04-10T10:12:47.002Z</time></trkpt><trkpt lat="45.60105680764378" lon="12.001885078236182"><ele>22.5</ele><time>2026-04-10T10:12:48.002Z</time></trkpt><trkpt lat="45.60108624935427" lon="12.001969262560749"><ele>22.333333333333332</ele><time>2026-04-10T10:12:49.002Z</time></trkpt><trkpt lat="45.60110897017975" lon="12.00206201865961"><ele>22.166666666666664</ele><time>2026-04-10T10:12:50.002Z</time></trkpt><trkpt lat="45.60113092742289" lon="12.00214861739653"><ele>22.0</ele><time>2026-04-10T10:12:51.002Z</time></trkpt><trkpt lat="45.60115771439107" lon="12.002235860867101"><ele>22.0</ele><time>2026-04-10T10:12:52.002Z</time></trkpt><trkpt lat="45.60118199305536" lon="12.002321858615922"><ele>22.0</ele><time>2026-04-10T10:12:53.002Z</time></trkpt><trkpt lat="45.60121082871887" lon="12.002402475660627"><ele>22.0</ele><time>2026-04-10T10:12:54.002Z</time></trkpt><trkpt lat="45.60123796063351" lon="12.002489190789682"><ele>22.0</ele><time>2026-04-10T10:12:55.002Z</time></trkpt><trkpt lat="45.60126368249582" lon="12.002573131780856"><ele>22.0</ele><time>2026-04-10T10:12:56.002Z</time></trkpt><trkpt lat="45.60131074484685" lon="12.002739616690057"><ele>22.0</ele><time>2026-04-10T10:12:58.002Z</time></trkpt><trkpt lat="45.60133366025554" lon="12.00282901554616"><ele>22.0</ele><time>2026-04-10T10:12:59.002Z</time></trkpt><trkpt lat="45.601358519286656" lon="12.002918841056497"><ele>22.0</ele><time>2026-04-10T10:13:00.002Z</time></trkpt><trkpt lat="45.60138280228831" lon="12.003001885449667"><ele>22.0</ele><time>2026-04-10T10:13:01.002Z</time></trkpt><trkpt lat="45.60142035466429" lon="12.00308560286047"><ele>22.0</ele><time>2026-04-10T10:13:02.002Z</time></trkpt><trkpt lat="45.60143505807285" lon="12.003175948738344"><ele>22.0</ele><time>2026-04-10T10:13:03.002Z</time></trkpt><trkpt lat="45.601454353705755" lon="12.003264729892665"><ele>22.0</ele><time>2026-04-10T10:13:04.002Z</time></trkpt><trkpt lat="45.60148470632982" lon="12.003349204444183"><ele>22.0</ele><time>2026-04-10T10:13:05.002Z</time></trkpt><trkpt lat="45.60151771508853" lon="12.003431897236455"><ele>22.166666666666664</ele><time>2026-04-10T10:13:06.002Z</time></trkpt><trkpt lat="45.60154705705303" lon="12.003517183916383"><ele>22.333333333333332</ele><time>2026-04-10T10:13:07.002Z</time></trkpt><trkpt lat="45.60157434755647" lon="12.003600262954766"><ele>22.5</ele><time>2026-04-10T10:13:08.002Z</time></trkpt><trkpt lat="45.6016033422975" lon="12.003684958706168"><ele>22.666666666666668</ele><time>2026-04-10T10:13:09.002Z</time></trkpt><trkpt lat="45.60165223920061" lon="12.003850433170149"><ele>22.833333333333336</ele><time>2026-04-10T10:13:11.002Z</time></trkpt><trkpt lat="45.60169252368875" lon="12.004007320724353"><ele>23.0</ele><time>2026-04-10T10:13:13.002Z</time></trkpt><trkpt lat="45.60175893130614" lon="12.004209634552597"><ele>23.25</ele><time>2026-04-10T10:13:16.003Z</time></trkpt><trkpt lat="45.601805612378726" lon="12.004356807164525"><ele>23.5</ele><time>2026-04-10T10:13:18.003Z</time></trkpt><trkpt lat="45.60184605940656" lon="12.004508134224274"><ele>23.75</ele><time>2026-04-10T10:13:20.003Z</time></trkpt><trkpt lat="45.6018930504318" lon="12.004658797924561"><ele>24.0</ele><time>2026-04-10T10:13:22.003Z</time></trkpt><trkpt lat="45.60194732025946" lon="12.00480363806484"><ele>24.0</ele><time>2026-04-10T10:13:24.003Z</time></trkpt><trkpt lat="45.60198717414495" lon="12.00492993000755"><ele>24.0</ele><time>2026-04-10T10:13:26.003Z</time></trkpt><trkpt lat="45.60202490935681" lon="12.00508956330322"><ele>24.0</ele><time>2026-04-10T10:13:28.003Z</time></trkpt><trkpt lat="45.602078134856185" lon="12.005251835213372"><ele>24.0</ele><time>2026-04-10T10:13:30.003Z</time></trkpt><trkpt lat="45.6021131535511" lon="12.005327781767672"><ele>24.0</ele><time>2026-04-10T10:13:31Z</time></trkpt><trkpt lat="45.602137356956426" lon="12.005411135497665"><ele>23.666666666666668</ele><time>2026-04-10T10:13:32Z</time></trkpt><trkpt lat="45.602154885712885" lon="12.005497862381484"><ele>23.333333333333332</ele><time>2026-04-10T10:13:33Z</time></trkpt><trkpt lat="45.602168871201634" lon="12.005588947041975"><ele>23.0</ele><time>2026-04-10T10:13:34Z</time></trkpt><trkpt lat="45.60219501889531" lon="12.005678114916387"><ele>22.666666666666664</ele><time>2026-04-10T10:13:35Z</time></trkpt><trkpt lat="45.602228560653025" lon="12.005761469015367"><ele>22.333333333333332</ele><time>2026-04-10T10:13:36Z</time></trkpt><trkpt lat="45.60227427508978" lon="12.005915381213898"><ele>22.0</ele><time>2026-04-10T10:13:38Z</time></trkpt><trkpt lat="45.60233108816836" lon="12.006071514228402"><ele>22.0</ele><time>2026-04-10T10:13:40Z</time></trkpt><trkpt lat="45.60237396323828" lon="12.00623287562177"><ele>22.0</ele><time>2026-04-10T10:13:42Z</time></trkpt><trkpt lat="45.60242158467332" lon="12.0063868983587"><ele>22.0</ele><time>2026-04-10T10:13:44Z</time></trkpt><trkpt lat="45.60245147921606" lon="12.006469452454393"><ele>22.0</ele><time>2026-04-10T10:13:45Z</time></trkpt><trkpt lat="45.60250410434592" lon="12.006632030820183"><ele>22.0</ele><time>2026-04-10T10:13:47Z</time></trkpt><trkpt lat="45.60252127137971" lon="12.006723166444964"><ele>22.142857142857142</ele><time>2026-04-10T10:13:48Z</time></trkpt><trkpt lat="45.602545519098015" lon="12.006808844314968"><ele>22.285714285714285</ele><time>2026-04-10T10:13:49Z</time></trkpt><trkpt lat="45.602569734164184" lon="12.006899728303502"><ele>22.42857142857143</ele><time>2026-04-10T10:13:50Z</time></trkpt><trkpt lat="45.60259222192288" lon="12.006986368067155"><ele>22.57142857142857</ele><time>2026-04-10T10:13:51Z</time></trkpt><trkpt lat="45.60262012949724" lon="12.00707115672162"><ele>22.71428571428571</ele><time>2026-04-10T10:13:52Z</time></trkpt><trkpt lat="45.60264956981996" lon="12.007155229911284"><ele>22.857142857142858</ele><time>2026-04-10T10:13:53Z</time></trkpt><trkpt lat="45.602676562879154" lon="12.007248232061416"><ele>23.0</ele><time>2026-04-10T10:13:54Z</time></trkpt><trkpt lat="45.60270388770107" lon="12.007334621245711"><ele>23.0</ele><time>2026-04-10T10:13:55Z</time></trkpt><trkpt lat="45.602734414862304" lon="12.007423939147845"><ele>23.0</ele><time>2026-04-10T10:13:56Z</time></trkpt><trkpt lat="45.602763541668445" lon="12.007512780651897"><ele>23.0</ele><time>2026-04-10T10:13:57Z</time></trkpt><trkpt lat="45.6027871696635" lon="12.0076032377361"><ele>23.0</ele><time>2026-04-10T10:13:58Z</time></trkpt><trkpt lat="45.602815463949334" lon="12.007691789335334"><ele>23.0</ele><time>2026-04-10T10:13:59Z</time></trkpt><trkpt lat="45.60284360701794" lon="12.007779017690273"><ele>23.0</ele><time>2026-04-10T10:14:00Z</time></trkpt><trkpt lat="45.602869240589904" lon="12.00787263095755"><ele>23.0</ele><time>2026-04-10T10:14:01Z</time></trkpt><trkpt lat="45.602903874427525" lon="12.007961200097403"><ele>23.166666666666668</ele><time>2026-04-10T10:14:02.001Z</time></trkpt><trkpt lat="45.60295216493356" lon="12.008133972588382"><ele>23.333333333333336</ele><time>2026-04-10T10:14:04.001Z</time></trkpt><trkpt lat="45.602967418794066" lon="12.00823450236353"><ele>23.5</ele><time>2026-04-10T10:14:05.001Z</time></trkpt><trkpt lat="45.60299211097708" lon="12.008334608313916"><ele>23.666666666666668</ele><time>2026-04-10T10:14:06.001Z</time></trkpt><trkpt lat="45.603025841523504" lon="12.0084381928872"><ele>23.833333333333332</ele><time>2026-04-10T10:14:07.001Z</time></trkpt><trkpt lat="45.60306653904779" lon="12.008529199315069"><ele>24.0</ele><time>2026-04-10T10:14:08.001Z</time></trkpt><trkpt lat="45.603098617701846" lon="12.008621470316738"><ele>23.833333333333332</ele><time>2026-04-10T10:14:09.001Z</time></trkpt><trkpt lat="45.603130180296205" lon="12.008706141483202"><ele>23.666666666666668</ele><time>2026-04-10T10:14:10.001Z</time></trkpt><trkpt lat="45.603157748054066" lon="12.008787240074913"><ele>23.5</ele><time>2026-04-10T10:14:11.001Z</time></trkpt><trkpt lat="45.6032153213987" lon="12.008934342319979"><ele>23.333333333333336</ele><time>2026-04-10T10:14:13.001Z</time></trkpt><trkpt lat="45.603237702956264" lon="12.009021014178476"><ele>23.166666666666668</ele><time>2026-04-10T10:14:14.001Z</time></trkpt><trkpt lat="45.6032603363098" lon="12.009127285950788"><ele>23.0</ele><time>2026-04-10T10:14:15.001Z</time></trkpt><trkpt lat="45.60327351395018" lon="12.009238317691873"><ele>23.0</ele><time>2026-04-10T10:14:16.001Z</time></trkpt><trkpt lat="45.60329507350839" lon="12.009347900071146"><ele>23.0</ele><time>2026-04-10T10:14:17.001Z</time></trkpt><trkpt lat="45.603328132348985" lon="12.009454551483362"><ele>23.0</ele><time>2026-04-10T10:14:18.001Z</time></trkpt><trkpt lat="45.60337727000064" lon="12.009567175315626"><ele>23.0</ele><time>2026-04-10T10:14:19.001Z</time></trkpt><trkpt lat="45.603420549776835" lon="12.00967562294679"><ele>23.0</ele><time>2026-04-10T10:14:20.001Z</time></trkpt><trkpt lat="45.60345514928296" lon="12.009778777643946"><ele>23.0</ele><time>2026-04-10T10:14:21.001Z</time></trkpt><trkpt lat="45.6034856956328" lon="12.00987171397993"><ele>23.0</ele><time>2026-04-10T10:14:22.001Z</time></trkpt><trkpt lat="45.60352211417246" lon="12.009957798548987"><ele>23.0</ele><time>2026-04-10T10:14:23.001Z</time></trkpt><trkpt lat="45.603549895316995" lon="12.01004203294228"><ele>23.0</ele><time>2026-04-10T10:14:24.001Z</time></trkpt><trkpt lat="45.603584192269516" lon="12.010121159177393"><ele>23.0</ele><time>2026-04-10T10:14:25.001Z</time></trkpt><trkpt lat="45.60364072292486" lon="12.010264087161131"><ele>23.0</ele><time>2026-04-10T10:14:27.001Z</time></trkpt><trkpt lat="45.6036555807197" lon="12.010363689738782"><ele>23.0</ele><time>2026-04-10T10:14:28.001Z</time></trkpt><trkpt lat="45.60370835510332" lon="12.01052220635584"><ele>23.0</ele><time>2026-04-10T10:14:30.001Z</time></trkpt><trkpt lat="45.60376587897523" lon="12.010667524285001"><ele>23.0</ele><time>2026-04-10T10:14:32.001Z</time></trkpt><trkpt lat="45.60381980034863" lon="12.010826887529037"><ele>23.0</ele><time>2026-04-10T10:14:34.001Z</time></trkpt><trkpt lat="45.60384743195137" lon="12.01092020137799"><ele>23.0</ele><time>2026-04-10T10:14:35.001Z</time></trkpt><trkpt lat="45.60387140083963" lon="12.011013210708317"><ele>23.0</ele><time>2026-04-10T10:14:36.001Z</time></trkpt><trkpt lat="45.603910862220246" lon="12.011092382142664"><ele>23.0</ele><time>2026-04-10T10:14:37.001Z</time></trkpt><trkpt lat="45.60394005715449" lon="12.011174595964002"><ele>23.0</ele><time>2026-04-10T10:14:38.001Z</time></trkpt><trkpt lat="45.60396610812289" lon="12.011267317158492"><ele>23.0</ele><time>2026-04-10T10:14:39.001Z</time></trkpt><trkpt lat="45.60399778062334" lon="12.011361057491506"><ele>23.0</ele><time>2026-04-10T10:14:40.001Z</time></trkpt><trkpt lat="45.60402946751905" lon="12.011449416292697"><ele>23.0</ele><time>2026-04-10T10:14:41.001Z</time></trkpt><trkpt lat="45.604059042802085" lon="12.011540527218097"><ele>23.0</ele><time>2026-04-10T10:14:42.001Z</time></trkpt><trkpt lat="45.60408791946065" lon="12.01163461767196"><ele>23.0</ele><time>2026-04-10T10:14:43.001Z</time></trkpt><trkpt lat="45.60411801183671" lon="12.01172697924556"><ele>23.0</ele><time>2026-04-10T10:14:44.001Z</time></trkpt><trkpt lat="45.60414430057387" lon="12.011820566555924"><ele>23.0</ele><time>2026-04-10T10:14:45.001Z</time></trkpt><trkpt lat="45.604174408381525" lon="12.01190188079845"><ele>23.0</ele><time>2026-04-10T10:14:46.001Z</time></trkpt><trkpt lat="45.60420521670686" lon="12.011998334921419"><ele>23.0</ele><time>2026-04-10T10:14:47.001Z</time></trkpt><trkpt lat="45.60423494174118" lon="12.01209158969303"><ele>23.0</ele><time>2026-04-10T10:14:48.001Z</time></trkpt><trkpt lat="45.604270137056076" lon="12.012177331718908"><ele>23.0</ele><time>2026-04-10T10:14:49.001Z</time></trkpt><trkpt lat="45.60430482271189" lon="12.012260801306882"><ele>23.0</ele><time>2026-04-10T10:14:50.002Z</time></trkpt><trkpt lat="45.604335700054115" lon="12.012355817690313"><ele>23.0</ele><time>2026-04-10T10:14:51.002Z</time></trkpt><trkpt lat="45.604367652643525" lon="12.012446058011397"><ele>23.0</ele><time>2026-04-10T10:14:52.002Z</time></trkpt><trkpt lat="45.604398538641796" lon="12.012537391150337"><ele>23.0</ele><time>2026-04-10T10:14:53.002Z</time></trkpt><trkpt lat="45.60442465552072" lon="12.012624684298359"><ele>23.0</ele><time>2026-04-10T10:14:54.002Z</time></trkpt><trkpt lat="45.60446083852757" lon="12.01271817483356"><ele>23.0</ele><time>2026-04-10T10:14:55.002Z</time></trkpt><trkpt lat="45.60448987375935" lon="12.012810616721323"><ele>23.0</ele><time>2026-04-10T10:14:56.002Z</time></trkpt><trkpt lat="45.60452054310425" lon="12.012905401720348"><ele>23.0</ele><time>2026-04-10T10:14:57.002Z</time></trkpt><trkpt lat="45.6045547064352" lon="12.013001922959141"><ele>23.0</ele><time>2026-04-10T10:14:58.002Z</time></trkpt><trkpt lat="45.60459426244934" lon="12.013098939360011"><ele>23.0</ele><time>2026-04-10T10:14:59.002Z</time></trkpt><trkpt lat="45.604623177426774" lon="12.013208757243559"><ele>23.0</ele><time>2026-04-10T10:15:00.002Z</time></trkpt><trkpt lat="45.60464526258579" lon="12.013309359656285"><ele>23.0</ele><time>2026-04-10T10:15:01.002Z</time></trkpt><trkpt lat="45.60468661491519" lon="12.01340917033917"><ele>23.0</ele><time>2026-04-10T10:15:02.002Z</time></trkpt><trkpt lat="45.60472376647801" lon="12.013502279686133"><ele>23.0</ele><time>2026-04-10T10:15:03.002Z</time></trkpt><trkpt lat="45.60475142282961" lon="12.013592414511553"><ele>23.0</ele><time>2026-04-10T10:15:04.002Z</time></trkpt><trkpt lat="45.60477835584067" lon="12.013687735564856"><ele>23.0</ele><time>2026-04-10T10:15:05.002Z</time></trkpt><trkpt lat="45.6048099945095" lon="12.013770201938186"><ele>23.0</ele><time>2026-04-10T10:15:06.002Z</time></trkpt><trkpt lat="45.604844527028" lon="12.013850388087803"><ele>23.0</ele><time>2026-04-10T10:15:07.002Z</time></trkpt><trkpt lat="45.604880022448405" lon="12.013928914576315"><ele>23.0</ele><time>2026-04-10T10:15:08.002Z</time></trkpt><trkpt lat="45.604905568733315" lon="12.014016751437746"><ele>23.0</ele><time>2026-04-10T10:15:09.002Z</time></trkpt><trkpt lat="45.60493584457543" lon="12.014100803675385"><ele>23.0</ele><time>2026-04-10T10:15:10.002Z</time></trkpt><trkpt lat="45.60496242023032" lon="12.014190211537008"><ele>23.0</ele><time>2026-04-10T10:15:11.002Z</time></trkpt><trkpt lat="45.604994040567796" lon="12.014281650044"><ele>23.0</ele><time>2026-04-10T10:15:12.002Z</time></trkpt><trkpt lat="45.60502065080959" lon="12.014376060629425"><ele>23.0</ele><time>2026-04-10T10:15:13.002Z</time></trkpt><trkpt lat="45.60504595052259" lon="12.014468927767885"><ele>23.0</ele><time>2026-04-10T10:15:14.002Z</time></trkpt><trkpt lat="45.60507529768482" lon="12.014559989717696"><ele>23.0</ele><time>2026-04-10T10:15:15.002Z</time></trkpt><trkpt lat="45.6051063215713" lon="12.014652533315594"><ele>23.0</ele><time>2026-04-10T10:15:16.002Z</time></trkpt><trkpt lat="45.60513735431105" lon="12.014744463185384"><ele>23.0</ele><time>2026-04-10T10:15:17.002Z</time></trkpt><trkpt lat="45.60517166111678" lon="12.01483605293172"><ele>23.0</ele><time>2026-04-10T10:15:18.002Z</time></trkpt><trkpt lat="45.6052036864179" lon="12.01492904577064"><ele>23.142857142857142</ele><time>2026-04-10T10:15:19.002Z</time></trkpt><trkpt lat="45.60523749859117" lon="12.015019508741048"><ele>23.285714285714285</ele><time>2026-04-10T10:15:20.002Z</time></trkpt><trkpt lat="45.60526544417212" lon="12.015111701725258"><ele>23.428571428571427</ele><time>2026-04-10T10:15:21.002Z</time></trkpt><trkpt lat="45.60529441249658" lon="12.015205338605364"><ele>23.57142857142857</ele><time>2026-04-10T10:15:22.002Z</time></trkpt><trkpt lat="45.60532795048712" lon="12.015292999074418"><ele>23.714285714285715</ele><time>2026-04-10T10:15:23.002Z</time></trkpt><trkpt lat="45.605359596869754" lon="12.015388629085047"><ele>23.857142857142854</ele><time>2026-04-10T10:15:24.002Z</time></trkpt><trkpt lat="45.605391026412214" lon="12.015482713877125"><ele>24.0</ele><time>2026-04-10T10:15:25.002Z</time></trkpt><trkpt lat="45.60542263020237" lon="12.015573952595735"><ele>23.71428571428571</ele><time>2026-04-10T10:15:26.002Z</time></trkpt><trkpt lat="45.605455926168226" lon="12.015665106433874"><ele>23.428571428571427</ele><time>2026-04-10T10:15:27.002Z</time></trkpt><trkpt lat="45.605488791190396" lon="12.015755873831248"><ele>23.142857142857142</ele><time>2026-04-10T10:15:28.002Z</time></trkpt><trkpt lat="45.605522779276114" lon="12.015847940759311"><ele>22.857142857142854</ele><time>2026-04-10T10:15:29.002Z</time></trkpt><trkpt lat="45.60555530940512" lon="12.015937539514688"><ele>22.57142857142857</ele><time>2026-04-10T10:15:30.002Z</time></trkpt><trkpt lat="45.60558207072736" lon="12.016035910118624"><ele>22.285714285714285</ele><time>2026-04-10T10:15:31.002Z</time></trkpt><trkpt lat="45.60561667905689" lon="12.016125993953159"><ele>22.0</ele><time>2026-04-10T10:15:32.002Z</time></trkpt><trkpt lat="45.6056457229212" lon="12.016214392449543"><ele>22.0</ele><time>2026-04-10T10:15:33.002Z</time></trkpt><trkpt lat="45.60567666574995" lon="12.016314305045865"><ele>22.0</ele><time>2026-04-10T10:15:34.002Z</time></trkpt><trkpt lat="45.605704603696275" lon="12.01640654204302"><ele>22.0</ele><time>2026-04-10T10:15:35.002Z</time></trkpt><trkpt lat="45.60577207021298" lon="12.016569742183297"><ele>22.0</ele><time>2026-04-10T10:15:37Z</time></trkpt><trkpt lat="45.605807639986224" lon="12.016658791831743"><ele>22.0</ele><time>2026-04-10T10:15:38Z</time></trkpt><trkpt lat="45.60584073623579" lon="12.016749977905022"><ele>22.0</ele><time>2026-04-10T10:15:39Z</time></trkpt><trkpt lat="45.60586636014697" lon="12.0168480024833"><ele>22.142857142857142</ele><time>2026-04-10T10:15:40Z</time></trkpt><trkpt lat="45.60589242318542" lon="12.016933342717145"><ele>22.285714285714285</ele><time>2026-04-10T10:15:41Z</time></trkpt><trkpt lat="45.60592232253138" lon="12.017030660397289"><ele>22.42857142857143</ele><time>2026-04-10T10:15:42Z</time></trkpt><trkpt lat="45.605949894884176" lon="12.017125860961361"><ele>22.57142857142857</ele><time>2026-04-10T10:15:43Z</time></trkpt><trkpt lat="45.60598756694237" lon="12.017214894967136"><ele>22.71428571428571</ele><time>2026-04-10T10:15:44Z</time></trkpt><trkpt lat="45.60601636323332" lon="12.01730569674913"><ele>22.857142857142858</ele><time>2026-04-10T10:15:45Z</time></trkpt><trkpt lat="45.60604431889691" lon="12.01740013053705"><ele>23.0</ele><time>2026-04-10T10:15:46Z</time></trkpt><trkpt lat="45.606074349196135" lon="12.017492036902098"><ele>23.0</ele><time>2026-04-10T10:15:47Z</time></trkpt><trkpt lat="45.606111183751224" lon="12.01757802363916"><ele>23.0</ele><time>2026-04-10T10:15:48Z</time></trkpt><trkpt lat="45.606135952828936" lon="12.017674404852727"><ele>23.0</ele><time>2026-04-10T10:15:49Z</time></trkpt><trkpt lat="45.60616843655082" lon="12.017763789379325"><ele>23.0</ele><time>2026-04-10T10:15:50Z</time></trkpt><trkpt lat="45.60620274226308" lon="12.017845697523658"><ele>23.0</ele><time>2026-04-10T10:15:51Z</time></trkpt><trkpt lat="45.60623264082285" lon="12.017934400876479"><ele>23.0</ele><time>2026-04-10T10:15:52Z</time></trkpt><trkpt lat="45.60626172562285" lon="12.018029684119293"><ele>23.0</ele><time>2026-04-10T10:15:53Z</time></trkpt><trkpt lat="45.60628808213508" lon="12.018113614321136"><ele>23.0</ele><time>2026-04-10T10:15:54Z</time></trkpt><trkpt lat="45.60632572211204" lon="12.018201234112947"><ele>23.0</ele><time>2026-04-10T10:15:55Z</time></trkpt><trkpt lat="45.60635677201032" lon="12.018296713412845"><ele>23.0</ele><time>2026-04-10T10:15:56Z</time></trkpt><trkpt lat="45.606382650172456" lon="12.018384933457993"><ele>23.0</ele><time>2026-04-10T10:15:57Z</time></trkpt><trkpt lat="45.60641290111732" lon="12.018470199584064"><ele>23.0</ele><time>2026-04-10T10:15:58Z</time></trkpt><trkpt lat="45.6064419094037" lon="12.018564343845961"><ele>23.0</ele><time>2026-04-10T10:15:59Z</time></trkpt><trkpt lat="45.606471577667506" lon="12.018652939389058"><ele>23.0</ele><time>2026-04-10T10:16:00Z</time></trkpt><trkpt lat="45.60650691501346" lon="12.018738977037154"><ele>23.0</ele><time>2026-04-10T10:16:01Z</time></trkpt><trkpt lat="45.606533672705" lon="12.01882919402183"><ele>23.0</ele><time>2026-04-10T10:16:02Z</time></trkpt><trkpt lat="45.606566212814045" lon="12.018915865606118"><ele>23.0</ele><time>2026-04-10T10:16:03Z</time></trkpt><trkpt lat="45.60660151665493" lon="12.019007868614066"><ele>23.0</ele><time>2026-04-10T10:16:04Z</time></trkpt><trkpt lat="45.60663330693868" lon="12.01909368499466"><ele>23.0</ele><time>2026-04-10T10:16:05Z</time></trkpt><trkpt lat="45.60665791664561" lon="12.019181273322634"><ele>23.0</ele><time>2026-04-10T10:16:06Z</time></trkpt><trkpt lat="45.60668309988046" lon="12.019271197309724"><ele>23.0</ele><time>2026-04-10T10:16:07Z</time></trkpt><trkpt lat="45.60670421698101" lon="12.019357685396102"><ele>23.0</ele><time>2026-04-10T10:16:08Z</time></trkpt><trkpt lat="45.6067339425081" lon="12.019439342385336"><ele>23.0</ele><time>2026-04-10T10:16:09Z</time></trkpt><trkpt lat="45.60676713743142" lon="12.019525294617345"><ele>23.0</ele><time>2026-04-10T10:16:10Z</time></trkpt><trkpt lat="45.606795938409384" lon="12.019607853231463"><ele>23.0</ele><time>2026-04-10T10:16:11Z</time></trkpt><trkpt lat="45.60685644298432" lon="12.019746701598729"><ele>23.0</ele><time>2026-04-10T10:16:13Z</time></trkpt><trkpt lat="45.606886018517656" lon="12.019830931226691"><ele>23.0</ele><time>2026-04-10T10:16:14Z</time></trkpt><trkpt lat="45.60691346390632" lon="12.0199204663785"><ele>23.0</ele><time>2026-04-10T10:16:15Z</time></trkpt><trkpt lat="45.606935188159326" lon="12.020010896568948"><ele>23.0</ele><time>2026-04-10T10:16:16Z</time></trkpt><trkpt lat="45.60695937239641" lon="12.020104323268257"><ele>23.0</ele><time>2026-04-10T10:16:17Z</time></trkpt><trkpt lat="45.60698782237754" lon="12.020185162134"><ele>23.0</ele><time>2026-04-10T10:16:18.001Z</time></trkpt><trkpt lat="45.60704232443286" lon="12.020323855580616"><ele>23.0</ele><time>2026-04-10T10:16:20.001Z</time></trkpt><trkpt lat="45.60715483921382" lon="12.020353412804182"><ele>23.0</ele><time>2026-04-10T10:16:21.001Z</time></trkpt><trkpt lat="45.60717329666248" lon="12.020453014502444"><ele>23.0</ele><time>2026-04-10T10:16:23.001Z</time></trkpt><trkpt lat="45.607190121747664" lon="12.020543809144334"><ele>23.0</ele><time>2026-04-10T10:16:27.001Z</time></trkpt></trkseg><trkseg><trkpt lat="45.606020999232506" lon="12.017358247754643"><ele>23.0</ele><time>2026-04-10T10:19:14.002Z</time></trkpt><trkpt lat="45.60598174118372" lon="12.017231064159269"><ele>23.0</ele><time>2026-04-10T10:19:16.002Z</time></trkpt><trkpt lat="45.605657870716335" lon="12.016276164968005"><ele>22.75</ele><time>2026-04-10T10:19:29.002Z</time></trkpt><trkpt lat="45.605600741107004" lon="12.016135343774277"><ele>22.5</ele><time>2026-04-10T10:19:31.002Z</time></trkpt><trkpt lat="45.605551548438925" lon="12.015979897647599"><ele>22.25</ele><time>2026-04-10T10:19:33.002Z</time></trkpt><trkpt lat="45.60550990561998" lon="12.015822392485832"><ele>22.0</ele><time>2026-04-10T10:19:35.002Z</time></trkpt><trkpt lat="45.60545963328766" lon="12.015667353132327"><ele>22.0</ele><time>2026-04-10T10:19:37.002Z</time></trkpt><trkpt lat="45.60540446755195" lon="12.015514731967743"><ele>22.0</ele><time>2026-04-10T10:19:39.002Z</time></trkpt><trkpt lat="45.60535219424692" lon="12.01536761308309"><ele>22.0</ele><time>2026-04-10T10:19:41Z</time></trkpt><trkpt lat="45.6053068366037" lon="12.015227735948697"><ele>22.0</ele><time>2026-04-10T10:19:43Z</time></trkpt><trkpt lat="45.60525781729503" lon="12.015088961176557"><ele>22.25</ele><time>2026-04-10T10:19:45Z</time></trkpt><trkpt lat="45.605201909328095" lon="12.014939253067592"><ele>22.5</ele><time>2026-04-10T10:19:47Z</time></trkpt><trkpt lat="45.605155847333016" lon="12.01479179428541"><ele>22.75</ele><time>2026-04-10T10:19:49Z</time></trkpt><trkpt lat="45.605111358251754" lon="12.014646616844466"><ele>23.0</ele><time>2026-04-10T10:19:51Z</time></trkpt><trkpt lat="45.60505800405533" lon="12.014505016078216"><ele>23.0</ele><time>2026-04-10T10:19:53Z</time></trkpt><trkpt lat="45.60501264586487" lon="12.014356173957315"><ele>23.0</ele><time>2026-04-10T10:19:55Z</time></trkpt><trkpt lat="45.604964346292554" lon="12.014207729312222"><ele>23.0</ele><time>2026-04-10T10:19:57Z</time></trkpt><trkpt lat="45.60491497085257" lon="12.01405868380806"><ele>23.0</ele><time>2026-04-10T10:19:59Z</time></trkpt><trkpt lat="45.604861054818855" lon="12.013918850194491"><ele>23.0</ele><time>2026-04-10T10:20:01Z</time></trkpt><trkpt lat="45.604807441008774" lon="12.013762166040951"><ele>23.0</ele><time>2026-04-10T10:20:03Z</time></trkpt><trkpt lat="45.604755567735126" lon="12.013617999407229"><ele>23.0</ele><time>2026-04-10T10:20:05Z</time></trkpt><trkpt lat="45.60470495449063" lon="12.013465851262593"><ele>23.0</ele><time>2026-04-10T10:20:07Z</time></trkpt><trkpt lat="45.60465253831614" lon="12.01331691917372"><ele>23.0</ele><time>2026-04-10T10:20:09Z</time></trkpt><trkpt lat="45.60460316548745" lon="12.013154870579706"><ele>23.0</ele><time>2026-04-10T10:20:11Z</time></trkpt><trkpt lat="45.60457807217431" lon="12.013071832294175"><ele>23.0</ele><time>2026-04-10T10:20:12Z</time></trkpt><trkpt lat="45.60451929650993" lon="12.012919440971885"><ele>23.0</ele><time>2026-04-10T10:20:14Z</time></trkpt><trkpt lat="45.604471132799716" lon="12.012764725483928"><ele>23.0</ele><time>2026-04-10T10:20:16Z</time></trkpt><trkpt lat="45.60441547426771" lon="12.012611157663931"><ele>23.0</ele><time>2026-04-10T10:20:18Z</time></trkpt><trkpt lat="45.60436287092267" lon="12.012462203355302"><ele>23.0</ele><time>2026-04-10T10:20:20Z</time></trkpt><trkpt lat="45.604307348644944" lon="12.012330818299109"><ele>23.0</ele><time>2026-04-10T10:20:22Z</time></trkpt><trkpt lat="45.604259076905436" lon="12.012174112427587"><ele>23.0</ele><time>2026-04-10T10:20:24.001Z</time></trkpt><trkpt lat="45.604231114776006" lon="12.01209226866339"><ele>23.0</ele><time>2026-04-10T10:20:25.001Z</time></trkpt><trkpt lat="45.60420188107865" lon="12.012006473630365"><ele>23.0</ele><time>2026-04-10T10:20:26.001Z</time></trkpt><trkpt lat="45.60417375991166" lon="12.0119187799546"><ele>23.0</ele><time>2026-04-10T10:20:27.001Z</time></trkpt><trkpt lat="45.6041502140545" lon="12.011828298144986"><ele>23.0</ele><time>2026-04-10T10:20:28.001Z</time></trkpt><trkpt lat="45.60356396603408" lon="12.010060147207346"><ele>22.0</ele><time>2026-04-10T10:20:59.001Z</time></trkpt><trkpt lat="45.60309063783783" lon="12.008623235817542"><ele>22.0</ele><time>2026-04-10T10:26:39.001Z</time></trkpt><trkpt lat="45.60303611655444" lon="12.008472159287443"><ele>22.0</ele><time>2026-04-10T10:26:41.001Z</time></trkpt><trkpt lat="45.60298706006587" lon="12.008306434311823"><ele>22.0</ele><time>2026-04-10T10:26:43.001Z</time></trkpt><trkpt lat="45.60296488240581" lon="12.008221739850635"><ele>22.0</ele><time>2026-04-10T10:26:44.001Z</time></trkpt><trkpt lat="45.60293656788159" lon="12.00806837253826"><ele>22.0</ele><time>2026-04-10T10:26:46.001Z</time></trkpt><trkpt lat="45.602897701164025" lon="12.007948742928201"><ele>22.200000000000003</ele><time>2026-04-10T10:26:48.001Z</time></trkpt><trkpt lat="45.602857590228666" lon="12.00783419702845"><ele>22.4</ele><time>2026-04-10T10:26:50.001Z</time></trkpt><trkpt lat="45.602827324064386" lon="12.007702212897907"><ele>22.6</ele><time>2026-04-10T10:26:52.001Z</time></trkpt><trkpt lat="45.60278393295775" lon="12.007559568482966"><ele>22.799999999999997</ele><time>2026-04-10T10:26:54.001Z</time></trkpt><trkpt lat="45.60274194072882" lon="12.007406930249733"><ele>23.0</ele><time>2026-04-10T10:26:56.001Z</time></trkpt><trkpt lat="45.60269128954492" lon="12.007250581471475"><ele>23.0</ele><time>2026-04-10T10:26:58.001Z</time></trkpt><trkpt lat="45.602641080090045" lon="12.007090014253388"><ele>23.0</ele><time>2026-04-10T10:27:00.001Z</time></trkpt><trkpt lat="45.602587689597904" lon="12.006935936359692"><ele>23.0</ele><time>2026-04-10T10:27:02.001Z</time></trkpt><trkpt lat="45.60253725959057" lon="12.006779940432764"><ele>23.0</ele><time>2026-04-10T10:27:04.001Z</time></trkpt><trkpt lat="45.60248852666593" lon="12.006618707560664"><ele>22.75</ele><time>2026-04-10T10:27:06.001Z</time></trkpt><trkpt lat="45.60244092291211" lon="12.006452699746026"><ele>22.5</ele><time>2026-04-10T10:27:08.001Z</time></trkpt><trkpt lat="45.60239112923717" lon="12.006288861278032"><ele>22.25</ele><time>2026-04-10T10:27:10.001Z</time></trkpt><trkpt lat="45.60233746833293" lon="12.006130118868718"><ele>22.0</ele><time>2026-04-10T10:27:12.001Z</time></trkpt><trkpt lat="45.60229230000155" lon="12.00597152317155"><ele>21.400000000000002</ele><time>2026-04-10T10:27:14.001Z</time></trkpt><trkpt lat="45.60224851360294" lon="12.00581693281572"><ele>20.8</ele><time>2026-04-10T10:27:16.001Z</time></trkpt><trkpt lat="45.6021971508936" lon="12.00566823585255"><ele>20.2</ele><time>2026-04-10T10:27:18.001Z</time></trkpt><trkpt lat="45.60217061890607" lon="12.005586584980978"><ele>19.6</ele><time>2026-04-10T10:27:19.001Z</time></trkpt><trkpt lat="45.60212113929948" lon="12.005429235044492"><ele>19.0</ele><time>2026-04-10T10:27:21.002Z</time></trkpt><trkpt lat="45.60207447165547" lon="12.005267753212056"><ele>19.0</ele><time>2026-04-10T10:27:23.002Z</time></trkpt><trkpt lat="45.60202820983542" lon="12.005106548229225"><ele>19.0</ele><time>2026-04-10T10:27:25.002Z</time></trkpt><trkpt lat="45.60197875717426" lon="12.00496360406137"><ele>19.0</ele><time>2026-04-10T10:27:27.002Z</time></trkpt><trkpt lat="45.600466437718495" lon="12.000036063420056"><ele>19.4</ele><time>2026-04-10T10:28:29Z</time></trkpt><trkpt lat="45.60043847672806" lon="11.999900314901058"><ele>19.799999999999997</ele><time>2026-04-10T10:28:31Z</time></trkpt><trkpt lat="45.60039568281853" lon="11.999740716936513"><ele>20.200000000000003</ele><time>2026-04-10T10:28:33Z</time></trkpt><trkpt lat="45.600350171200944" lon="11.999585223315336"><ele>20.6</ele><time>2026-04-10T10:28:35Z</time></trkpt><trkpt lat="45.600318590961" lon="11.999500736521703"><ele>21.0</ele><time>2026-04-10T10:28:36Z</time></trkpt><trkpt lat="45.60029235152726" lon="11.999411830659707"><ele>21.0</ele><time>2026-04-10T10:28:37Z</time></trkpt><trkpt lat="45.60026585237083" lon="11.999324603310646"><ele>21.0</ele><time>2026-04-10T10:28:38Z</time></trkpt><trkpt lat="45.60023613854272" lon="11.999241657975436"><ele>21.0</ele><time>2026-04-10T10:28:39Z</time></trkpt><trkpt lat="45.60017864194494" lon="11.999081306556182"><ele>21.0</ele><time>2026-04-10T10:28:41Z</time></trkpt><trkpt lat="45.600158818141765" lon="11.99898497136771"><ele>21.0</ele><time>2026-04-10T10:28:42Z</time></trkpt><trkpt lat="45.6001313517391" lon="11.998891006763667"><ele>21.0</ele><time>2026-04-10T10:28:43Z</time></trkpt><trkpt lat="45.60010133211627" lon="11.998801138414192"><ele>21.0</ele><time>2026-04-10T10:28:44Z</time></trkpt><trkpt lat="45.600078297119246" lon="11.99870649072609"><ele>21.0</ele><time>2026-04-10T10:28:45Z</time></trkpt><trkpt lat="45.600052672487024" lon="11.998618249328992"><ele>21.0</ele><time>2026-04-10T10:28:46Z</time></trkpt><trkpt lat="45.60002005650665" lon="11.99853166350347"><ele>21.0</ele><time>2026-04-10T10:28:47Z</time></trkpt><trkpt lat="45.599990441581866" lon="11.998446384989407"><ele>21.0</ele><time>2026-04-10T10:28:48Z</time></trkpt><trkpt lat="45.59996155922511" lon="11.998353933723022"><ele>21.0</ele><time>2026-04-10T10:28:49Z</time></trkpt><trkpt lat="45.59993245153729" lon="11.998255889380511"><ele>21.0</ele><time>2026-04-10T10:28:50Z</time></trkpt><trkpt lat="45.59991078986804" lon="11.998159615020722"><ele>21.142857142857142</ele><time>2026-04-10T10:28:51Z</time></trkpt><trkpt lat="45.599884944958404" lon="11.998073460354234"><ele>21.285714285714285</ele><time>2026-04-10T10:28:52Z</time></trkpt><trkpt lat="45.5998573041744" lon="11.997983464441951"><ele>21.42857142857143</ele><time>2026-04-10T10:28:53Z</time></trkpt><trkpt lat="45.599826892878816" lon="11.997896423140089"><ele>21.57142857142857</ele><time>2026-04-10T10:28:54Z</time></trkpt><trkpt lat="45.599799709936285" lon="11.997805626826006"><ele>21.714285714285715</ele><time>2026-04-10T10:28:55Z</time></trkpt><trkpt lat="45.59977506927306" lon="11.997721802130998"><ele>21.857142857142858</ele><time>2026-04-10T10:28:56Z</time></trkpt><trkpt lat="45.59974398621147" lon="11.997631383608512"><ele>22.0</ele><time>2026-04-10T10:28:57.001Z</time></trkpt><trkpt lat="45.59970117498507" lon="11.997475878444952"><ele>22.0</ele><time>2026-04-10T10:28:59.001Z</time></trkpt><trkpt lat="45.599651804504944" lon="11.997314468805222"><ele>22.0</ele><time>2026-04-10T10:29:01.001Z</time></trkpt><trkpt lat="45.599629173376755" lon="11.99722906317428"><ele>22.0</ele><time>2026-04-10T10:29:02.001Z</time></trkpt><trkpt lat="45.59957980529559" lon="11.997075103877851"><ele>22.0</ele><time>2026-04-10T10:29:04.001Z</time></trkpt><trkpt lat="45.59952483384807" lon="11.996920102612833"><ele>22.0</ele><time>2026-04-10T10:29:06.001Z</time></trkpt><trkpt lat="45.59948234698078" lon="11.996753143414818"><ele>21.8</ele><time>2026-04-10T10:29:08.001Z</time></trkpt><trkpt lat="45.59944522504966" lon="11.996612641008479"><ele>21.6</ele><time>2026-04-10T10:29:10.001Z</time></trkpt><trkpt lat="45.59940705855551" lon="11.99653249082063"><ele>21.400000000000002</ele><time>2026-04-10T10:29:11.001Z</time></trkpt><trkpt lat="45.59937712295155" lon="11.996452543745969"><ele>21.200000000000003</ele><time>2026-04-10T10:29:12.001Z</time></trkpt><trkpt lat="45.599331575076576" lon="11.996286738619077"><ele>21.0</ele><time>2026-04-10T10:29:14.001Z</time></trkpt><trkpt lat="45.599287146801856" lon="11.996138407741874"><ele>21.0</ele><time>2026-04-10T10:29:16.001Z</time></trkpt><trkpt lat="45.59924466738349" lon="11.99599284830366"><ele>21.0</ele><time>2026-04-10T10:29:18.001Z</time></trkpt><trkpt lat="45.59918693292234" lon="11.995829883709964"><ele>21.0</ele><time>2026-04-10T10:29:20.001Z</time></trkpt><trkpt lat="45.599153296263225" lon="11.995738933485493"><ele>21.0</ele><time>2026-04-10T10:29:21.001Z</time></trkpt><trkpt lat="45.5991288530628" lon="11.995642809299385"><ele>21.0</ele><time>2026-04-10T10:29:22.001Z</time></trkpt><trkpt lat="45.59909913412243" lon="11.995547518081237"><ele>21.166666666666668</ele><time>2026-04-10T10:29:23.001Z</time></trkpt><trkpt lat="45.59907235487536" lon="11.995453109988189"><ele>21.333333333333332</ele><time>2026-04-10T10:29:24.001Z</time></trkpt><trkpt lat="45.59904393104984" lon="11.995360712631289"><ele>21.5</ele><time>2026-04-10T10:29:25.001Z</time></trkpt><trkpt lat="45.599021730600185" lon="11.995264637562068"><ele>21.666666666666664</ele><time>2026-04-10T10:29:26.001Z</time></trkpt><trkpt lat="45.598995912761154" lon="11.995167655772715"><ele>21.833333333333332</ele><time>2026-04-10T10:29:27.001Z</time></trkpt><trkpt lat="45.59896450404309" lon="11.995075327817176"><ele>22.0</ele><time>2026-04-10T10:29:28.001Z</time></trkpt><trkpt lat="45.59694139689668" lon="11.988538408228722"><ele>22.0</ele><time>2026-04-10T10:30:39Z</time></trkpt><trkpt lat="45.596903463424816" lon="11.988387909303222"><ele>22.0</ele><time>2026-04-10T10:30:41Z</time></trkpt><trkpt lat="45.596863832188994" lon="11.988248824766366"><ele>22.0</ele><time>2026-04-10T10:30:43Z</time></trkpt><trkpt lat="45.59683828266967" lon="11.988125686758204"><ele>22.0</ele><time>2026-04-10T10:30:45Z</time></trkpt><trkpt lat="45.59679638796959" lon="11.987971485569373"><ele>22.0</ele><time>2026-04-10T10:30:47Z</time></trkpt><trkpt lat="45.59676972590202" lon="11.987882587601689"><ele>22.0</ele><time>2026-04-10T10:30:48Z</time></trkpt><trkpt lat="45.59673736453822" lon="11.987799859403014"><ele>22.0</ele><time>2026-04-10T10:30:49Z</time></trkpt><trkpt lat="45.59671202550151" lon="11.987711682836549"><ele>22.0</ele><time>2026-04-10T10:30:50Z</time></trkpt><trkpt lat="45.59668614963572" lon="11.987619047137319"><ele>22.0</ele><time>2026-04-10T10:30:51Z</time></trkpt><trkpt lat="45.596662163013555" lon="11.98752923497191"><ele>22.0</ele><time>2026-04-10T10:30:52Z</time></trkpt><trkpt lat="45.59663562697522" lon="11.987440224640038"><ele>22.0</ele><time>2026-04-10T10:30:53Z</time></trkpt><trkpt lat="45.59660991342316" lon="11.98734557833331"><ele>22.0</ele><time>2026-04-10T10:30:54Z</time></trkpt><trkpt lat="45.596578194950645" lon="11.987260198899412"><ele>22.0</ele><time>2026-04-10T10:30:55Z</time></trkpt><trkpt lat="45.5965524791764" lon="11.987170443399721"><ele>22.0</ele><time>2026-04-10T10:30:56Z</time></trkpt><trkpt lat="45.59652649116297" lon="11.987076927412074"><ele>22.0</ele><time>2026-04-10T10:30:57Z</time></trkpt><trkpt lat="45.59649351601955" lon="11.986989001006036"><ele>22.0</ele><time>2026-04-10T10:30:58Z</time></trkpt><trkpt lat="45.596470590472535" lon="11.986898824870902"><ele>22.0</ele><time>2026-04-10T10:30:59Z</time></trkpt><trkpt lat="45.59644507796805" lon="11.986807476285268"><ele>22.0</ele><time>2026-04-10T10:31:00Z</time></trkpt><trkpt lat="45.59641854640055" lon="11.98672020866831"><ele>22.0</ele><time>2026-04-10T10:31:01Z</time></trkpt><trkpt lat="45.59638413006926" lon="11.986634563858763"><ele>22.142857142857142</ele><time>2026-04-10T10:31:02Z</time></trkpt><trkpt lat="45.59635919668105" lon="11.986546761320048"><ele>22.285714285714285</ele><time>2026-04-10T10:31:03Z</time></trkpt><trkpt lat="45.59633170652424" lon="11.986462819810917"><ele>22.42857142857143</ele><time>2026-04-10T10:31:04.001Z</time></trkpt><trkpt lat="45.596302029121304" lon="11.98637516489039"><ele>22.57142857142857</ele><time>2026-04-10T10:31:05.001Z</time></trkpt><trkpt lat="45.596280891565016" lon="11.986284113494039"><ele>22.71428571428571</ele><time>2026-04-10T10:31:06.001Z</time></trkpt><trkpt lat="45.596252652289735" lon="11.9861986862662"><ele>22.857142857142858</ele><time>2026-04-10T10:31:07.001Z</time></trkpt><trkpt lat="45.59622382612601" lon="11.986110204903667"><ele>23.0</ele><time>2026-04-10T10:31:08.001Z</time></trkpt><trkpt lat="45.59619624118504" lon="11.986028582407112"><ele>23.0</ele><time>2026-04-10T10:31:09.001Z</time></trkpt><trkpt lat="45.59617153585593" lon="11.98593526535474"><ele>23.0</ele><time>2026-04-10T10:31:10.001Z</time></trkpt><trkpt lat="45.59614924879016" lon="11.985847328372289"><ele>23.0</ele><time>2026-04-10T10:31:11.001Z</time></trkpt><trkpt lat="45.596122444109824" lon="11.98575615946067"><ele>23.0</ele><time>2026-04-10T10:31:12.001Z</time></trkpt><trkpt lat="45.59609311637928" lon="11.985668534954833"><ele>23.0</ele><time>2026-04-10T10:31:13.001Z</time></trkpt><trkpt lat="45.59606007981033" lon="11.985578774709207"><ele>23.0</ele><time>2026-04-10T10:31:14.001Z</time></trkpt><trkpt lat="45.59603670832798" lon="11.985482405679273"><ele>23.0</ele><time>2026-04-10T10:31:15.001Z</time></trkpt><trkpt lat="45.596010433512966" lon="11.985390629891905"><ele>22.714285714285715</ele><time>2026-04-10T10:31:16.001Z</time></trkpt><trkpt lat="45.59597918472131" lon="11.985304592106408"><ele>22.428571428571427</ele><time>2026-04-10T10:31:17.001Z</time></trkpt><trkpt lat="45.59595686514989" lon="11.985211048877721"><ele>22.142857142857142</ele><time>2026-04-10T10:31:18.001Z</time></trkpt><trkpt lat="45.595928982712714" lon="11.985119110468114"><ele>21.857142857142858</ele><time>2026-04-10T10:31:19.001Z</time></trkpt><trkpt lat="45.59589824757491" lon="11.985035544817624"><ele>21.57142857142857</ele><time>2026-04-10T10:31:20.001Z</time></trkpt><trkpt lat="45.595871108797" lon="11.984943024552466"><ele>21.285714285714285</ele><time>2026-04-10T10:31:21.001Z</time></trkpt><trkpt lat="45.59584741861591" lon="11.984855448240062"><ele>21.0</ele><time>2026-04-10T10:31:22.001Z</time></trkpt><trkpt lat="45.595819690203804" lon="11.984768241663296"><ele>21.0</ele><time>2026-04-10T10:31:23.001Z</time></trkpt><trkpt lat="45.59578792492717" lon="11.9846814924921"><ele>21.0</ele><time>2026-04-10T10:31:24.001Z</time></trkpt><trkpt lat="45.595764783951005" lon="11.98459053702406"><ele>21.0</ele><time>2026-04-10T10:31:25.001Z</time></trkpt><trkpt lat="45.59573609543309" lon="11.984502835235745"><ele>21.0</ele><time>2026-04-10T10:31:26.001Z</time></trkpt><trkpt lat="45.595710825829606" lon="11.984416738007877"><ele>21.0</ele><time>2026-04-10T10:31:27.001Z</time></trkpt><trkpt lat="45.59568335656849" lon="11.98433351287879"><ele>21.0</ele><time>2026-04-10T10:31:28.001Z</time></trkpt><trkpt lat="45.594391058955345" lon="11.980086792093184"><ele>21.4</ele><time>2026-04-10T10:32:29Z</time></trkpt><trkpt lat="45.59434755826993" lon="11.979931710517675"><ele>21.8</ele><time>2026-04-10T10:32:31Z</time></trkpt><trkpt lat="45.59430449605932" lon="11.9797932511064"><ele>22.2</ele><time>2026-04-10T10:32:33Z</time></trkpt><trkpt lat="45.59425964296615" lon="11.979636053526772"><ele>22.599999999999998</ele><time>2026-04-10T10:32:35Z</time></trkpt><trkpt lat="45.59420867966798" lon="11.97953068399508"><ele>23.0</ele><time>2026-04-10T10:32:37Z</time></trkpt><trkpt lat="45.594192693167145" lon="11.979443031343227"><ele>23.0</ele><time>2026-04-10T10:32:44Z</time></trkpt><trkpt lat="45.5940872343549" lon="11.979429887459997"><ele>23.0</ele><time>2026-04-10T10:32:47Z</time></trkpt><trkpt lat="45.59403359622705" lon="11.97930117605727"><ele>23.0</ele><time>2026-04-10T10:32:49Z</time></trkpt><trkpt lat="45.59399609632" lon="11.979165424966109"><ele>23.0</ele><time>2026-04-10T10:32:51Z</time></trkpt><trkpt lat="45.59395829887639" lon="11.97902620338888"><ele>23.0</ele><time>2026-04-10T10:32:53Z</time></trkpt><trkpt lat="45.59393504406562" lon="11.978940547585424"><ele>23.0</ele><time>2026-04-10T10:32:54Z</time></trkpt><trkpt lat="45.5938913569092" lon="11.978779632020597"><ele>23.0</ele><time>2026-04-10T10:32:56Z</time></trkpt><trkpt lat="45.59386854647079" lon="11.978693020105725"><ele>23.0</ele><time>2026-04-10T10:32:57Z</time></trkpt><trkpt lat="45.59389729984415" lon="11.978511286277362"><ele>23.0</ele><time>2026-04-10T10:32:59Z</time></trkpt><trkpt lat="45.593847783152384" lon="11.978381057131772"><ele>23.0</ele><time>2026-04-10T10:33:01.001Z</time></trkpt><trkpt lat="45.59381488889019" lon="11.978237502254574"><ele>23.0</ele><time>2026-04-10T10:33:03.001Z</time></trkpt><trkpt lat="45.59377473280646" lon="11.978096063732833"><ele>23.0</ele><time>2026-04-10T10:33:05.001Z</time></trkpt><trkpt lat="45.593730109061326" lon="11.977936352319363"><ele>23.0</ele><time>2026-04-10T10:33:07.001Z</time></trkpt><trkpt lat="45.593679866568316" lon="11.977776269025497"><ele>23.0</ele><time>2026-04-10T10:33:09.001Z</time></trkpt><trkpt lat="45.59364847036658" lon="11.977682044230901"><ele>23.0</ele><time>2026-04-10T10:33:10.001Z</time></trkpt><trkpt lat="45.59362242211061" lon="11.977590837631194"><ele>22.857142857142858</ele><time>2026-04-10T10:33:11.001Z</time></trkpt><trkpt lat="45.593604693626425" lon="11.97748652513574"><ele>22.71428571428571</ele><time>2026-04-10T10:33:12.001Z</time></trkpt><trkpt lat="45.59357903099539" lon="11.977398302896574"><ele>22.57142857142857</ele><time>2026-04-10T10:33:13.001Z</time></trkpt><trkpt lat="45.59354765686349" lon="11.977310711235887"><ele>22.42857142857143</ele><time>2026-04-10T10:33:14.001Z</time></trkpt><trkpt lat="45.593518038032784" lon="11.977211524195859"><ele>22.285714285714285</ele><time>2026-04-10T10:33:15.001Z</time></trkpt><trkpt lat="45.593485412467935" lon="11.977118039702939"><ele>22.142857142857142</ele><time>2026-04-10T10:33:16.001Z</time></trkpt><trkpt lat="45.5934551090371" lon="11.977034545202855"><ele>22.0</ele><time>2026-04-10T10:33:17.001Z</time></trkpt><trkpt lat="45.593427467279895" lon="11.976951569533695"><ele>22.0</ele><time>2026-04-10T10:33:18.001Z</time></trkpt><trkpt lat="45.593402425471076" lon="11.976858142527243"><ele>22.0</ele><time>2026-04-10T10:33:19.001Z</time></trkpt><trkpt lat="45.59337375067942" lon="11.976772702475841"><ele>22.0</ele><time>2026-04-10T10:33:20.001Z</time></trkpt><trkpt lat="45.59332610026354" lon="11.976599680617872"><ele>22.0</ele><time>2026-04-10T10:33:22.001Z</time></trkpt><trkpt lat="45.593298385145616" lon="11.976517554069606"><ele>22.0</ele><time>2026-04-10T10:33:23.001Z</time></trkpt><trkpt lat="45.59327547697492" lon="11.97643014224754"><ele>22.0</ele><time>2026-04-10T10:33:24.001Z</time></trkpt><trkpt lat="45.593235267462944" lon="11.976287171163744"><ele>22.5</ele><time>2026-04-10T10:33:26.001Z</time></trkpt><trkpt lat="45.59319212103806" lon="11.97613837617751"><ele>23.0</ele><time>2026-04-10T10:33:28.001Z</time></trkpt><trkpt lat="45.59158619699833" lon="11.970917037228316"><ele>22.75</ele><time>2026-04-10T10:34:29Z</time></trkpt><trkpt lat="45.59154984294118" lon="11.970789957509341"><ele>22.5</ele><time>2026-04-10T10:34:31Z</time></trkpt><trkpt lat="45.59149815931262" lon="11.970621879241738"><ele>22.25</ele><time>2026-04-10T10:34:33Z</time></trkpt><trkpt lat="45.591449529421766" lon="11.970457976146843"><ele>22.0</ele><time>2026-04-10T10:34:35Z</time></trkpt><trkpt lat="45.5914023597091" lon="11.970295923128607"><ele>22.0</ele><time>2026-04-10T10:34:37Z</time></trkpt><trkpt lat="45.59135702724857" lon="11.970151451860906"><ele>22.0</ele><time>2026-04-10T10:34:39Z</time></trkpt><trkpt lat="45.591308862734955" lon="11.96998852158643"><ele>22.0</ele><time>2026-04-10T10:34:41Z</time></trkpt><trkpt lat="45.59128025384141" lon="11.969901789561945"><ele>22.0</ele><time>2026-04-10T10:34:42Z</time></trkpt><trkpt lat="45.591262085438686" lon="11.969813508624545"><ele>22.0</ele><time>2026-04-10T10:34:43Z</time></trkpt><trkpt lat="45.591238129711364" lon="11.969728071025392"><ele>22.0</ele><time>2026-04-10T10:34:44Z</time></trkpt><trkpt lat="45.59121215981504" lon="11.969638554563168"><ele>22.0</ele><time>2026-04-10T10:34:45Z</time></trkpt><trkpt lat="45.59118532958286" lon="11.969556843061524"><ele>22.0</ele><time>2026-04-10T10:34:46Z</time></trkpt><trkpt lat="45.59113283186738" lon="11.969407520323884"><ele>22.0</ele><time>2026-04-10T10:34:48Z</time></trkpt><trkpt lat="45.59108572272092" lon="11.969235680021404"><ele>22.0</ele><time>2026-04-10T10:34:50Z</time></trkpt><trkpt lat="45.59105709498338" lon="11.969153660246597"><ele>22.0</ele><time>2026-04-10T10:34:51Z</time></trkpt><trkpt lat="45.59102916015558" lon="11.969066537541229"><ele>22.0</ele><time>2026-04-10T10:34:52Z</time></trkpt><trkpt lat="45.591002646863714" lon="11.968969179915565"><ele>22.166666666666664</ele><time>2026-04-10T10:34:53Z</time></trkpt><trkpt lat="45.59097890870712" lon="11.96888081363183"><ele>22.333333333333332</ele><time>2026-04-10T10:34:54Z</time></trkpt><trkpt lat="45.59094985964355" lon="11.968795440100157"><ele>22.5</ele><time>2026-04-10T10:34:55Z</time></trkpt><trkpt lat="45.590920973168174" lon="11.968705592185295"><ele>22.666666666666668</ele><time>2026-04-10T10:34:56Z</time></trkpt><trkpt lat="45.590890236933156" lon="11.968620407725115"><ele>22.833333333333336</ele><time>2026-04-10T10:34:57Z</time></trkpt><trkpt lat="45.590839790073716" lon="11.968462247441353"><ele>23.0</ele><time>2026-04-10T10:34:59Z</time></trkpt><trkpt lat="45.59078656536102" lon="11.968300140472918"><ele>23.0</ele><time>2026-04-10T10:35:01Z</time></trkpt><trkpt lat="45.59073444265393" lon="11.96814164718389"><ele>23.0</ele><time>2026-04-10T10:35:03.001Z</time></trkpt><trkpt lat="45.59070967833711" lon="11.968051574334813"><ele>23.0</ele><time>2026-04-10T10:35:04.001Z</time></trkpt><trkpt lat="45.5906852220197" lon="11.967965845215263"><ele>23.0</ele><time>2026-04-10T10:35:05.001Z</time></trkpt><trkpt lat="45.5906607281578" lon="11.967871807806562"><ele>23.0</ele><time>2026-04-10T10:35:06.001Z</time></trkpt><trkpt lat="45.59062948032135" lon="11.96777637678996"><ele>23.0</ele><time>2026-04-10T10:35:07.001Z</time></trkpt><trkpt lat="45.59059416288139" lon="11.967687487264316"><ele>23.0</ele><time>2026-04-10T10:35:08.001Z</time></trkpt><trkpt lat="45.59056713088876" lon="11.967586832996975"><ele>23.0</ele><time>2026-04-10T10:35:09.001Z</time></trkpt><trkpt lat="45.590541604979194" lon="11.967486705921953"><ele>23.0</ele><time>2026-04-10T10:35:10.001Z</time></trkpt><trkpt lat="45.590524313300115" lon="11.967396371268762"><ele>23.0</ele><time>2026-04-10T10:35:11.001Z</time></trkpt><trkpt lat="45.59047347519667" lon="11.967281559443935"><ele>23.0</ele><time>2026-04-10T10:35:13.001Z</time></trkpt><trkpt lat="45.59043618439185" lon="11.967124036502918"><ele>23.0</ele><time>2026-04-10T10:35:15.001Z</time></trkpt><trkpt lat="45.590472532697916" lon="11.967041933550394"><ele>22.799999999999997</ele><time>2026-04-10T10:35:16.001Z</time></trkpt><trkpt lat="45.590474788815186" lon="11.966864899843415"><ele>22.6</ele><time>2026-04-10T10:35:18.001Z</time></trkpt><trkpt lat="45.59047599995538" lon="11.966769863536651"><ele>22.4</ele><time>2026-04-10T10:35:19.001Z</time></trkpt><trkpt lat="45.59048166754423" lon="11.966589548301537"><ele>22.200000000000003</ele><time>2026-04-10T10:35:21.001Z</time></trkpt><trkpt lat="45.59048573194204" lon="11.966492673745744"><ele>22.0</ele><time>2026-04-10T10:35:22.001Z</time></trkpt><trkpt lat="45.59048947108743" lon="11.9663959447718"><ele>22.0</ele><time>2026-04-10T10:35:23.001Z</time></trkpt><trkpt lat="45.59049392111457" lon="11.96630475185312"><ele>22.0</ele><time>2026-04-10T10:35:24.001Z</time></trkpt><trkpt lat="45.59050263549665" lon="11.966120959050103"><ele>22.0</ele><time>2026-04-10T10:35:26.001Z</time></trkpt><trkpt lat="45.5905069272514" lon="11.966030442634445"><ele>22.0</ele><time>2026-04-10T10:35:27.001Z</time></trkpt><trkpt lat="45.59006135328273" lon="11.965895121809798"><ele>23.0</ele><time>2026-04-10T10:35:28.001Z</time></trkpt><trkpt lat="45.58825610048411" lon="11.959978272980106"><ele>23.0</ele><time>2026-04-10T10:36:29Z</time></trkpt><trkpt lat="45.588223484791875" lon="11.959892979215239"><ele>23.0</ele><time>2026-04-10T10:36:30Z</time></trkpt><trkpt lat="45.588191279658936" lon="11.959796013647956"><ele>23.0</ele><time>2026-04-10T10:36:31Z</time></trkpt><trkpt lat="45.588166618274066" lon="11.9596998400373"><ele>23.0</ele><time>2026-04-10T10:36:32Z</time></trkpt><trkpt lat="45.588141644770616" lon="11.95960473644717"><ele>23.0</ele><time>2026-04-10T10:36:33Z</time></trkpt><trkpt lat="45.588118362104495" lon="11.959510085419458"><ele>23.0</ele><time>2026-04-10T10:36:34Z</time></trkpt><trkpt lat="45.58809091522494" lon="11.959412083050708"><ele>23.0</ele><time>2026-04-10T10:36:35Z</time></trkpt><trkpt lat="45.58806367844417" lon="11.959321542186505"><ele>23.0</ele><time>2026-04-10T10:36:36Z</time></trkpt><trkpt lat="45.588038413809834" lon="11.9592308238299"><ele>23.0</ele><time>2026-04-10T10:36:37Z</time></trkpt><trkpt lat="45.58801082328915" lon="11.959137663107512"><ele>23.0</ele><time>2026-04-10T10:36:38Z</time></trkpt><trkpt lat="45.58798298086062" lon="11.959054626884681"><ele>23.0</ele><time>2026-04-10T10:36:39Z</time></trkpt><trkpt lat="45.58796209966603" lon="11.958966730467953"><ele>23.0</ele><time>2026-04-10T10:36:40Z</time></trkpt><trkpt lat="45.58792879801303" lon="11.958888659554752"><ele>23.0</ele><time>2026-04-10T10:36:41Z</time></trkpt><trkpt lat="45.587869069062265" lon="11.958715217187256"><ele>22.833333333333336</ele><time>2026-04-10T10:36:43Z</time></trkpt><trkpt lat="45.587844200069895" lon="11.95852091643163"><ele>22.666666666666668</ele><time>2026-04-10T10:36:45Z</time></trkpt><trkpt lat="45.58783907598299" lon="11.958403713907742"><ele>22.5</ele><time>2026-04-10T10:36:46Z</time></trkpt><trkpt lat="45.587833154316094" lon="11.958294080380698"><ele>22.333333333333332</ele><time>2026-04-10T10:36:47Z</time></trkpt><trkpt lat="45.58782779055808" lon="11.958184531273405"><ele>22.166666666666664</ele><time>2026-04-10T10:36:48Z</time></trkpt><trkpt lat="45.58782374259539" lon="11.958077894134336"><ele>22.0</ele><time>2026-04-10T10:36:49Z</time></trkpt><trkpt lat="45.58782989639487" lon="11.95797256903598"><ele>22.0</ele><time>2026-04-10T10:36:50Z</time></trkpt><trkpt lat="45.58784669350506" lon="11.957860256337081"><ele>22.0</ele><time>2026-04-10T10:36:51Z</time></trkpt><trkpt lat="45.58785954002249" lon="11.957771051488775"><ele>22.0</ele><time>2026-04-10T10:36:52Z</time></trkpt><trkpt lat="45.58786938548325" lon="11.957676610220986"><ele>22.0</ele><time>2026-04-10T10:36:53Z</time></trkpt><trkpt lat="45.58788461882207" lon="11.957576178470383"><ele>22.0</ele><time>2026-04-10T10:36:54Z</time></trkpt><trkpt lat="45.587893247121386" lon="11.957475807247347"><ele>22.0</ele><time>2026-04-10T10:36:55Z</time></trkpt><trkpt lat="45.58789340665722" lon="11.957376436477311"><ele>22.0</ele><time>2026-04-10T10:36:56Z</time></trkpt><trkpt lat="45.5878917299288" lon="11.957286124858243"><ele>22.200000000000003</ele><time>2026-04-10T10:36:57Z</time></trkpt><trkpt lat="45.5878992903547" lon="11.957114481078786"><ele>22.4</ele><time>2026-04-10T10:36:59Z</time></trkpt><trkpt lat="45.58791569148426" lon="11.95702226039675"><ele>22.6</ele><time>2026-04-10T10:37:00Z</time></trkpt><trkpt lat="45.58791916279439" lon="11.956922451346113"><ele>22.799999999999997</ele><time>2026-04-10T10:37:01Z</time></trkpt><trkpt lat="45.587953272940624" lon="11.956743756866473"><ele>23.0</ele><time>2026-04-10T10:37:03.001Z</time></trkpt><trkpt lat="45.58798331922313" lon="11.956559679006189"><ele>23.0</ele><time>2026-04-10T10:37:05.001Z</time></trkpt><trkpt lat="45.587974098018805" lon="11.956470137840927"><ele>23.0</ele><time>2026-04-10T10:37:06.001Z</time></trkpt><trkpt lat="45.587986069305465" lon="11.956296226279502"><ele>23.0</ele><time>2026-04-10T10:37:08.001Z</time></trkpt><trkpt lat="45.588001768077895" lon="11.956147296354475"><ele>23.0</ele><time>2026-04-10T10:37:10.001Z</time></trkpt><trkpt lat="45.588012252838745" lon="11.95605083632764"><ele>23.0</ele><time>2026-04-10T10:37:12.001Z</time></trkpt><trkpt lat="45.58612042468016" lon="11.952950767475313"><ele>22.833333333333336</ele><time>2026-04-10T10:38:29.002Z</time></trkpt><trkpt lat="45.586079180825834" lon="11.952846286021515"><ele>22.666666666666668</ele><time>2026-04-10T10:38:30.002Z</time></trkpt><trkpt lat="45.58605539543214" lon="11.952745642993408"><ele>22.5</ele><time>2026-04-10T10:38:31.002Z</time></trkpt><trkpt lat="45.58602333957992" lon="11.95264996179118"><ele>22.333333333333332</ele><time>2026-04-10T10:38:32.002Z</time></trkpt><trkpt lat="45.58598952296018" lon="11.952554033592296"><ele>22.166666666666664</ele><time>2026-04-10T10:38:33.003Z</time></trkpt><trkpt lat="45.5859524642992" lon="11.952451520460308"><ele>22.0</ele><time>2026-04-10T10:38:34.003Z</time></trkpt><trkpt lat="45.58593288814619" lon="11.952365809408427"><ele>22.0</ele><time>2026-04-10T10:38:35Z</time></trkpt><trkpt lat="45.585905729466965" lon="11.95226586916526"><ele>22.0</ele><time>2026-04-10T10:38:36Z</time></trkpt><trkpt lat="45.585875910221304" lon="11.952170827047675"><ele>22.0</ele><time>2026-04-10T10:38:37Z</time></trkpt><trkpt lat="45.585848397432564" lon="11.952070591570312"><ele>22.0</ele><time>2026-04-10T10:38:38Z</time></trkpt><trkpt lat="45.58581667643342" lon="11.951977620873853"><ele>22.0</ele><time>2026-04-10T10:38:39Z</time></trkpt><trkpt lat="45.58578417760495" lon="11.951887401198686"><ele>22.0</ele><time>2026-04-10T10:38:40Z</time></trkpt><trkpt lat="45.585751809189425" lon="11.951785485086754"><ele>22.0</ele><time>2026-04-10T10:38:41Z</time></trkpt><trkpt lat="45.5857262085521" lon="11.951688705327358"><ele>22.0</ele><time>2026-04-10T10:38:42Z</time></trkpt><trkpt lat="45.58570397298125" lon="11.951588387887417"><ele>22.0</ele><time>2026-04-10T10:38:43Z</time></trkpt><trkpt lat="45.58567162106482" lon="11.951496206516026"><ele>22.0</ele><time>2026-04-10T10:38:44Z</time></trkpt><trkpt lat="45.58564529371444" lon="11.951398646118754"><ele>22.0</ele><time>2026-04-10T10:38:45Z</time></trkpt><trkpt lat="45.585612923168874" lon="11.951300389036104"><ele>22.0</ele><time>2026-04-10T10:38:46Z</time></trkpt><trkpt lat="45.58558696436785" lon="11.951203507381003"><ele>22.0</ele><time>2026-04-10T10:38:47Z</time></trkpt><trkpt lat="45.58555087568604" lon="11.951104289407636"><ele>22.0</ele><time>2026-04-10T10:38:48Z</time></trkpt><trkpt lat="45.58551974944732" lon="11.951008384913294"><ele>22.0</ele><time>2026-04-10T10:38:49Z</time></trkpt><trkpt lat="45.585495656878486" lon="11.95091120720408"><ele>22.0</ele><time>2026-04-10T10:38:50Z</time></trkpt><trkpt lat="45.58546585953714" lon="11.95081590781049"><ele>22.0</ele><time>2026-04-10T10:38:51Z</time></trkpt><trkpt lat="45.5854347230226" lon="11.950712563629425"><ele>22.0</ele><time>2026-04-10T10:38:52Z</time></trkpt><trkpt lat="45.58540534213203" lon="11.950616995003767"><ele>22.0</ele><time>2026-04-10T10:38:53Z</time></trkpt><trkpt lat="45.58537956514356" lon="11.950521774260197"><ele>22.0</ele><time>2026-04-10T10:38:54Z</time></trkpt><trkpt lat="45.58534415620838" lon="11.95042645210828"><ele>22.0</ele><time>2026-04-10T10:38:55Z</time></trkpt><trkpt lat="45.585315954045406" lon="11.950328153567119"><ele>21.857142857142858</ele><time>2026-04-10T10:38:56Z</time></trkpt><trkpt lat="45.58528720753192" lon="11.950235466066447"><ele>21.714285714285715</ele><time>2026-04-10T10:38:57Z</time></trkpt><trkpt lat="45.58525574111614" lon="11.950143398799721"><ele>21.57142857142857</ele><time>2026-04-10T10:38:58Z</time></trkpt><trkpt lat="45.585225653847665" lon="11.950057312299457"><ele>21.42857142857143</ele><time>2026-04-10T10:38:59Z</time></trkpt><trkpt lat="45.58519441042123" lon="11.949966802881363"><ele>21.285714285714285</ele><time>2026-04-10T10:39:00Z</time></trkpt><trkpt lat="45.585167477627564" lon="11.949874687025856"><ele>21.142857142857142</ele><time>2026-04-10T10:39:01Z</time></trkpt><trkpt lat="45.585142699766706" lon="11.949786977700603"><ele>21.0</ele><time>2026-04-10T10:39:02Z</time></trkpt><trkpt lat="45.58511714062086" lon="11.94969514116129"><ele>21.0</ele><time>2026-04-10T10:39:03Z</time></trkpt><trkpt lat="45.58508926316539" lon="11.949599383867186"><ele>21.0</ele><time>2026-04-10T10:39:04Z</time></trkpt><trkpt lat="45.58503322931067" lon="11.949435323633484"><ele>21.0</ele><time>2026-04-10T10:39:06.001Z</time></trkpt><trkpt lat="45.5850123895202" lon="11.949346340888752"><ele>21.0</ele><time>2026-04-10T10:39:07.001Z</time></trkpt><trkpt lat="45.58498640667747" lon="11.949235941071004"><ele>21.0</ele><time>2026-04-10T10:39:09.001Z</time></trkpt><trkpt lat="45.584940077458555" lon="11.949130119281905"><ele>21.0</ele><time>2026-04-10T10:39:12.001Z</time></trkpt><trkpt lat="45.58490777562955" lon="11.94899615873522"><ele>21.200000000000003</ele><time>2026-04-10T10:39:14.001Z</time></trkpt><trkpt lat="45.58486014182148" lon="11.94885381395226"><ele>21.400000000000002</ele><time>2026-04-10T10:39:16.001Z</time></trkpt><trkpt lat="45.58481154494432" lon="11.948706646674351"><ele>21.6</ele><time>2026-04-10T10:39:18.001Z</time></trkpt><trkpt lat="45.58478935029305" lon="11.948614425962754"><ele>21.8</ele><time>2026-04-10T10:39:19.001Z</time></trkpt><trkpt lat="45.58476505767734" lon="11.948530054101745"><ele>22.0</ele><time>2026-04-10T10:39:20.001Z</time></trkpt><trkpt lat="45.584718334106306" lon="11.948381339445358"><ele>22.0</ele><time>2026-04-10T10:39:22.001Z</time></trkpt><trkpt lat="45.584639038522205" lon="11.948333905876096"><ele>22.0</ele><time>2026-04-10T10:39:23.001Z</time></trkpt><trkpt lat="45.58461253926495" lon="11.948246547762327"><ele>22.0</ele><time>2026-04-10T10:39:24.001Z</time></trkpt><trkpt lat="45.58456720581078" lon="11.948098534873836"><ele>22.0</ele><time>2026-04-10T10:39:26.001Z</time></trkpt><trkpt lat="45.584541285577345" lon="11.948014571857108"><ele>22.0</ele><time>2026-04-10T10:39:27.001Z</time></trkpt><trkpt lat="45.58451550270722" lon="11.947931053405465"><ele>22.0</ele><time>2026-04-10T10:39:28.001Z</time></trkpt><trkpt lat="45.583033146731275" lon="11.942820584754537"><ele>22.142857142857142</ele><time>2026-04-10T10:40:29.002Z</time></trkpt><trkpt lat="45.58300572311718" lon="11.942732298672736"><ele>22.285714285714285</ele><time>2026-04-10T10:40:30.002Z</time></trkpt><trkpt lat="45.58297943709193" lon="11.942639092950861"><ele>22.42857142857143</ele><time>2026-04-10T10:40:31.002Z</time></trkpt><trkpt lat="45.58295756947845" lon="11.942549884759577"><ele>22.57142857142857</ele><time>2026-04-10T10:40:32.002Z</time></trkpt><trkpt lat="45.58292764438656" lon="11.942464794180484"><ele>22.71428571428571</ele><time>2026-04-10T10:40:33.002Z</time></trkpt><trkpt lat="45.58289487578793" lon="11.942371818197687"><ele>22.857142857142858</ele><time>2026-04-10T10:40:34.002Z</time></trkpt><trkpt lat="45.58287264953252" lon="11.942283230659687"><ele>23.0</ele><time>2026-04-10T10:40:35.002Z</time></trkpt><trkpt lat="45.5828496554536" lon="11.942194553862715"><ele>23.0</ele><time>2026-04-10T10:40:36.002Z</time></trkpt><trkpt lat="45.582820750227484" lon="11.942113109565554"><ele>23.0</ele><time>2026-04-10T10:40:37.003Z</time></trkpt><trkpt lat="45.58278884604207" lon="11.942022712738684"><ele>23.0</ele><time>2026-04-10T10:40:38.003Z</time></trkpt><trkpt lat="45.5827594371734" lon="11.941937730201682"><ele>23.0</ele><time>2026-04-10T10:40:39.003Z</time></trkpt><trkpt lat="45.582731387379674" lon="11.94184558370671"><ele>23.0</ele><time>2026-04-10T10:40:40.003Z</time></trkpt><trkpt lat="45.582709536225266" lon="11.941756809991011"><ele>23.0</ele><time>2026-04-10T10:40:41Z</time></trkpt><trkpt lat="45.582680020208244" lon="11.94167059171207"><ele>23.0</ele><time>2026-04-10T10:40:42Z</time></trkpt><trkpt lat="45.58262557837842" lon="11.94150004634654"><ele>23.0</ele><time>2026-04-10T10:40:44Z</time></trkpt><trkpt lat="45.58260109945808" lon="11.941407828433883"><ele>23.0</ele><time>2026-04-10T10:40:45Z</time></trkpt><trkpt lat="45.582575021074625" lon="11.941318231861795"><ele>23.0</ele><time>2026-04-10T10:40:46Z</time></trkpt><trkpt lat="45.58254670246786" lon="11.941232602391308"><ele>23.0</ele><time>2026-04-10T10:40:47Z</time></trkpt><trkpt lat="45.582526144914326" lon="11.941141012029636"><ele>23.0</ele><time>2026-04-10T10:40:48Z</time></trkpt><trkpt lat="45.58249904703441" lon="11.94104975923415"><ele>23.0</ele><time>2026-04-10T10:40:49Z</time></trkpt><trkpt lat="45.582469955838974" lon="11.940962066251808"><ele>23.0</ele><time>2026-04-10T10:40:50Z</time></trkpt><trkpt lat="45.58243824925561" lon="11.940864774627869"><ele>23.0</ele><time>2026-04-10T10:40:51Z</time></trkpt><trkpt lat="45.582415959877885" lon="11.940768915589233"><ele>23.0</ele><time>2026-04-10T10:40:52Z</time></trkpt><trkpt lat="45.58237172957052" lon="11.940621187576602"><ele>23.0</ele><time>2026-04-10T10:40:54Z</time></trkpt><trkpt lat="45.5823384016183" lon="11.940540365704548"><ele>23.0</ele><time>2026-04-10T10:40:55Z</time></trkpt><trkpt lat="45.58229639100353" lon="11.940421979881961"><ele>23.0</ele><time>2026-04-10T10:40:57Z</time></trkpt><trkpt lat="45.58225627278508" lon="11.940279299919688"><ele>23.0</ele><time>2026-04-10T10:40:59Z</time></trkpt><trkpt lat="45.58222558867235" lon="11.940199056307252"><ele>23.0</ele><time>2026-04-10T10:41:00Z</time></trkpt><trkpt lat="45.58220270111088" lon="11.940114091640064"><ele>23.0</ele><time>2026-04-10T10:41:01Z</time></trkpt><trkpt lat="45.582171674546466" lon="11.93998507391517"><ele>23.0</ele><time>2026-04-10T10:41:03Z</time></trkpt><trkpt lat="45.582149152970665" lon="11.939899464218875"><ele>23.0</ele><time>2026-04-10T10:41:04Z</time></trkpt><trkpt lat="45.5821257342519" lon="11.939805654280967"><ele>23.0</ele><time>2026-04-10T10:41:05Z</time></trkpt><trkpt lat="45.582095319363596" lon="11.939706958093069"><ele>23.0</ele><time>2026-04-10T10:41:06Z</time></trkpt><trkpt lat="45.58207070183624" lon="11.939614033119826"><ele>23.0</ele><time>2026-04-10T10:41:07Z</time></trkpt><trkpt lat="45.582044656350604" lon="11.939527114778306"><ele>23.0</ele><time>2026-04-10T10:41:08Z</time></trkpt><trkpt lat="45.582020286446124" lon="11.939435714160691"><ele>23.0</ele><time>2026-04-10T10:41:09Z</time></trkpt><trkpt lat="45.58198995883167" lon="11.93934943202127"><ele>23.0</ele><time>2026-04-10T10:41:10Z</time></trkpt><trkpt lat="45.58195807906485" lon="11.939261312539202"><ele>23.0</ele><time>2026-04-10T10:41:11.001Z</time></trkpt><trkpt lat="45.58190054510008" lon="11.939106827719213"><ele>23.0</ele><time>2026-04-10T10:41:13.001Z</time></trkpt><trkpt lat="45.58186938476082" lon="11.938969594183698"><ele>23.0</ele><time>2026-04-10T10:41:15.001Z</time></trkpt><trkpt lat="45.58183394245555" lon="11.93884744292784"><ele>23.2</ele><time>2026-04-10T10:41:17.001Z</time></trkpt><trkpt lat="45.58177216421044" lon="11.938781469802974"><ele>23.4</ele><time>2026-04-10T10:41:19.001Z</time></trkpt><trkpt lat="45.581681144593325" lon="11.938805074172592"><ele>23.599999999999998</ele><time>2026-04-10T10:41:21.001Z</time></trkpt><trkpt lat="45.58161087158423" lon="11.938737293337578"><ele>23.799999999999997</ele><time>2026-04-10T10:41:24.001Z</time></trkpt><trkpt lat="45.581691004442206" lon="11.938651221463616"><ele>24.0</ele><time>2026-04-10T10:41:26.001Z</time></trkpt><trkpt lat="45.58179426627015" lon="11.938631540754985"><ele>22.0</ele><time>2026-04-10T10:41:28.001Z</time></trkpt><trkpt lat="45.57960160485666" lon="11.934403671756304"><ele>22.0</ele><time>2026-04-10T10:42:29.002Z</time></trkpt><trkpt lat="45.57954820901019" lon="11.934323034289294"><ele>22.0</ele><time>2026-04-10T10:42:30.002Z</time></trkpt><trkpt lat="45.579490528673986" lon="11.934243285798974"><ele>22.0</ele><time>2026-04-10T10:42:31.002Z</time></trkpt><trkpt lat="45.579433907688504" lon="11.934175795733179"><ele>22.0</ele><time>2026-04-10T10:42:32.002Z</time></trkpt><trkpt lat="45.57937918522182" lon="11.934109739606985"><ele>22.0</ele><time>2026-04-10T10:42:33.002Z</time></trkpt><trkpt lat="45.57932051697005" lon="11.934041264092516"><ele>22.0</ele><time>2026-04-10T10:42:34.002Z</time></trkpt><trkpt lat="45.57926735445817" lon="11.933978171691017"><ele>22.0</ele><time>2026-04-10T10:42:35.002Z</time></trkpt><trkpt lat="45.579206878939985" lon="11.933912100375494"><ele>21.714285714285715</ele><time>2026-04-10T10:42:36.002Z</time></trkpt><trkpt lat="45.57914437768385" lon="11.933856412190105"><ele>21.428571428571427</ele><time>2026-04-10T10:42:37.002Z</time></trkpt><trkpt lat="45.579094005892884" lon="11.933792494479528"><ele>21.142857142857142</ele><time>2026-04-10T10:42:38.002Z</time></trkpt><trkpt lat="45.579043476908396" lon="11.933736420611337"><ele>20.857142857142858</ele><time>2026-04-10T10:42:39.002Z</time></trkpt><trkpt lat="45.57900055486519" lon="11.933665082164907"><ele>20.571428571428573</ele><time>2026-04-10T10:42:40.002Z</time></trkpt><trkpt lat="45.57894717584773" lon="11.933607575678607"><ele>20.285714285714285</ele><time>2026-04-10T10:42:41.002Z</time></trkpt><trkpt lat="45.57888950803251" lon="11.933550153451593"><ele>20.0</ele><time>2026-04-10T10:42:42.002Z</time></trkpt><trkpt lat="45.57883088627124" lon="11.9334857469091"><ele>20.0</ele><time>2026-04-10T10:42:43.002Z</time></trkpt><trkpt lat="45.57877689090545" lon="11.93342630029586"><ele>20.0</ele><time>2026-04-10T10:42:44.002Z</time></trkpt><trkpt lat="45.57871845796721" lon="11.93337574655774"><ele>20.0</ele><time>2026-04-10T10:42:45.002Z</time></trkpt><trkpt lat="45.57865828617474" lon="11.933318030235831"><ele>20.0</ele><time>2026-04-10T10:42:46.002Z</time></trkpt><trkpt lat="45.57860179694378" lon="11.933260565441186"><ele>20.0</ele><time>2026-04-10T10:42:47Z</time></trkpt><trkpt lat="45.578544703203534" lon="11.933200058583578"><ele>20.0</ele><time>2026-04-10T10:42:48Z</time></trkpt><trkpt lat="45.57849253106289" lon="11.93314536665207"><ele>20.0</ele><time>2026-04-10T10:42:49Z</time></trkpt><trkpt lat="45.57843262471972" lon="11.933090220663994"><ele>20.285714285714285</ele><time>2026-04-10T10:42:50Z</time></trkpt><trkpt lat="45.5783755120572" lon="11.933038411722425"><ele>20.571428571428573</ele><time>2026-04-10T10:42:51Z</time></trkpt><trkpt lat="45.57831759917474" lon="11.932997644624118"><ele>20.857142857142858</ele><time>2026-04-10T10:42:52Z</time></trkpt><trkpt lat="45.57825659664813" lon="11.932944895022917"><ele>21.142857142857142</ele><time>2026-04-10T10:42:53Z</time></trkpt><trkpt lat="45.578200303382154" lon="11.932892907528048"><ele>21.428571428571427</ele><time>2026-04-10T10:42:54Z</time></trkpt><trkpt lat="45.57813948098795" lon="11.932838039392662"><ele>21.714285714285715</ele><time>2026-04-10T10:42:55Z</time></trkpt><trkpt lat="45.57808155585957" lon="11.932787626529773"><ele>22.0</ele><time>2026-04-10T10:42:56Z</time></trkpt><trkpt lat="45.57801720872598" lon="11.93274382705667"><ele>22.0</ele><time>2026-04-10T10:42:57Z</time></trkpt><trkpt lat="45.57789387488642" lon="11.932649470497037"><ele>22.0</ele><time>2026-04-10T10:42:59Z</time></trkpt><trkpt lat="45.57783387175466" lon="11.932598800643676"><ele>22.0</ele><time>2026-04-10T10:43:00Z</time></trkpt><trkpt lat="45.57772148921447" lon="11.932513962355916"><ele>22.0</ele><time>2026-04-10T10:43:02Z</time></trkpt><trkpt lat="45.577670888673346" lon="11.932456822764724"><ele>22.0</ele><time>2026-04-10T10:43:03Z</time></trkpt><trkpt lat="45.577573423344916" lon="11.932351449596258"><ele>21.8</ele><time>2026-04-10T10:43:05Z</time></trkpt><trkpt lat="45.57752305303396" lon="11.932183392398047"><ele>21.6</ele><time>2026-04-10T10:43:07Z</time></trkpt><trkpt lat="45.57746653321257" lon="11.932137331317982"><ele>21.400000000000002</ele><time>2026-04-10T10:43:08Z</time></trkpt><trkpt lat="45.57738459237136" lon="11.93215491545443"><ele>21.200000000000003</ele><time>2026-04-10T10:43:09Z</time></trkpt><trkpt lat="45.57726545802217" lon="11.932121004339134"><ele>21.0</ele><time>2026-04-10T10:43:11Z</time></trkpt><trkpt lat="45.57719942403804" lon="11.932102721339751"><ele>21.0</ele><time>2026-04-10T10:43:12Z</time></trkpt><trkpt lat="45.57713135053106" lon="11.932080006899982"><ele>21.0</ele><time>2026-04-10T10:43:13Z</time></trkpt><trkpt lat="45.57706611428398" lon="11.932048402388759"><ele>21.0</ele><time>2026-04-10T10:43:14Z</time></trkpt><trkpt lat="45.57700330372116" lon="11.932018355934932"><ele>21.0</ele><time>2026-04-10T10:43:15Z</time></trkpt><trkpt lat="45.576892551701526" lon="11.931958745529577"><ele>21.0</ele><time>2026-04-10T10:43:17.001Z</time></trkpt><trkpt lat="45.57679864864539" lon="11.93199679315137"><ele>21.0</ele><time>2026-04-10T10:43:18Z</time></trkpt><trkpt lat="45.57668539098005" lon="11.931890240510539"><ele>21.142857142857142</ele><time>2026-04-10T10:43:20.001Z</time></trkpt><trkpt lat="45.57662640998846" lon="11.931832084295833"><ele>21.285714285714285</ele><time>2026-04-10T10:43:21.001Z</time></trkpt><trkpt lat="45.576553511846846" lon="11.931791690758821"><ele>21.42857142857143</ele><time>2026-04-10T10:43:22.001Z</time></trkpt><trkpt lat="45.57648019542789" lon="11.931751121131086"><ele>21.57142857142857</ele><time>2026-04-10T10:43:23.001Z</time></trkpt><trkpt lat="45.57640838469269" lon="11.931721160374506"><ele>21.714285714285715</ele><time>2026-04-10T10:43:24.001Z</time></trkpt><trkpt lat="45.57633892734705" lon="11.931689291423009"><ele>21.857142857142858</ele><time>2026-04-10T10:43:25.001Z</time></trkpt><trkpt lat="45.57626942936157" lon="11.931662206447895"><ele>22.0</ele><time>2026-04-10T10:43:26.001Z</time></trkpt><trkpt lat="45.57620283452959" lon="11.931634412846241"><ele>22.0</ele><time>2026-04-10T10:43:27.001Z</time></trkpt><trkpt lat="45.57613238618371" lon="11.931605830875208"><ele>22.0</ele><time>2026-04-10T10:43:28.001Z</time></trkpt><trkpt lat="45.57450677251873" lon="11.93090689243213"><ele>23.0</ele><time>2026-04-10T10:43:53.001Z</time></trkpt><trkpt lat="45.57398193296561" lon="11.930808853429072"><ele>23.0</ele><time>2026-04-10T10:44:29.002Z</time></trkpt><trkpt lat="45.57391478463492" lon="11.930763135527886"><ele>23.0</ele><time>2026-04-10T10:44:32.002Z</time></trkpt><trkpt lat="45.57384905738248" lon="11.930758907762316"><ele>23.0</ele><time>2026-04-10T10:44:35.002Z</time></trkpt><trkpt lat="45.57380526796502" lon="11.930274590860988"><ele>23.0</ele><time>2026-04-10T10:44:45.002Z</time></trkpt><trkpt lat="45.57391023893149" lon="11.930357157182305"><ele>23.0</ele><time>2026-04-10T10:44:46.002Z</time></trkpt><trkpt lat="45.57393330332986" lon="11.93025305634098"><ele>23.0</ele><time>2026-04-10T10:44:47.002Z</time></trkpt><trkpt lat="45.57385247520944" lon="11.93011928366877"><ele>23.0</ele><time>2026-04-10T10:44:48.002Z</time></trkpt><trkpt lat="45.573857121336445" lon="11.92999470136894"><ele>23.0</ele><time>2026-04-10T10:44:50.002Z</time></trkpt><trkpt lat="45.57413467717196" lon="11.929963696228715"><ele>23.0</ele><time>2026-04-10T10:44:57Z</time></trkpt><trkpt lat="45.57421140479831" lon="11.929932299792554"><ele>23.0</ele><time>2026-04-10T10:45:00Z</time></trkpt><trkpt lat="45.57414834341771" lon="11.929895688125614"><ele>23.0</ele><time>2026-04-10T10:45:03Z</time></trkpt><trkpt lat="45.57408262743825" lon="11.929893817107668"><ele>23.0</ele><time>2026-04-10T10:45:05Z</time></trkpt><trkpt lat="45.57400190283592" lon="11.929910626105675"><ele>23.0</ele><time>2026-04-10T10:45:07Z</time></trkpt><trkpt lat="45.573934538016246" lon="11.929929557458665"><ele>23.0</ele><time>2026-04-10T10:45:09Z</time></trkpt><trkpt lat="45.573858663254924" lon="11.929920080350024"><ele>23.0</ele><time>2026-04-10T10:45:12Z</time></trkpt><trkpt lat="45.573806991527945" lon="11.929850801355071"><ele>23.0</ele><time>2026-04-10T10:45:14Z</time></trkpt><trkpt lat="45.57379857486025" lon="11.929741607095925"><ele>23.0</ele><time>2026-04-10T10:45:16Z</time></trkpt><trkpt lat="45.57378381094113" lon="11.929603272078554"><ele>23.0</ele><time>2026-04-10T10:45:18Z</time></trkpt><trkpt lat="45.573734870876564" lon="11.929494150211653"><ele>23.0</ele><time>2026-04-10T10:45:20Z</time></trkpt><trkpt lat="45.5736755258504" lon="11.929401291307112"><ele>23.0</ele><time>2026-04-10T10:45:22Z</time></trkpt><trkpt lat="45.573644765540784" lon="11.929321653525912"><ele>23.0</ele><time>2026-04-10T10:45:24Z</time></trkpt><trkpt lat="45.573539234991706" lon="11.929325164855511"><ele>22.0</ele><time>2026-04-10T10:45:26.001Z</time></trkpt><trkpt lat="45.573435923844364" lon="11.929333526595224"><ele>21.0</ele><time>2026-04-10T10:45:28.001Z</time></trkpt><trkpt lat="45.56996286528419" lon="11.928214549314983"><ele>21.0</ele><time>2026-04-10T10:46:30.002Z</time></trkpt><trkpt lat="45.569892483981675" lon="11.928192180597938"><ele>21.0</ele><time>2026-04-10T10:46:31.002Z</time></trkpt><trkpt lat="45.569828507992106" lon="11.928156778498566"><ele>21.0</ele><time>2026-04-10T10:46:32.002Z</time></trkpt><trkpt lat="45.56975898762626" lon="11.928122678420607"><ele>21.0</ele><time>2026-04-10T10:46:33.002Z</time></trkpt><trkpt lat="45.569688109837536" lon="11.928094155649006"><ele>21.0</ele><time>2026-04-10T10:46:34.002Z</time></trkpt><trkpt lat="45.56961534242703" lon="11.928064624109572"><ele>21.0</ele><time>2026-04-10T10:46:35.002Z</time></trkpt><trkpt lat="45.569549226244035" lon="11.928038171284035"><ele>21.0</ele><time>2026-04-10T10:46:36.002Z</time></trkpt><trkpt lat="45.56947822941803" lon="11.928013188655843"><ele>21.166666666666668</ele><time>2026-04-10T10:46:37.002Z</time></trkpt><trkpt lat="45.569410782886536" lon="11.927984062997968"><ele>21.333333333333332</ele><time>2026-04-10T10:46:38.002Z</time></trkpt><trkpt lat="45.56933817794632" lon="11.927948113249055"><ele>21.5</ele><time>2026-04-10T10:46:39.002Z</time></trkpt><trkpt lat="45.56926265749758" lon="11.927910998998167"><ele>21.666666666666664</ele><time>2026-04-10T10:46:40.002Z</time></trkpt><trkpt lat="45.56918814133779" lon="11.927878230318248"><ele>21.833333333333332</ele><time>2026-04-10T10:46:41.002Z</time></trkpt><trkpt lat="45.5691124895559" lon="11.927849812553841"><ele>22.0</ele><time>2026-04-10T10:46:42.002Z</time></trkpt><trkpt lat="45.56903848949861" lon="11.927815140063277"><ele>22.0</ele><time>2026-04-10T10:46:43.002Z</time></trkpt><trkpt lat="45.56896528357265" lon="11.927783017455756"><ele>22.0</ele><time>2026-04-10T10:46:44.002Z</time></trkpt><trkpt lat="45.568892303505805" lon="11.927753335065313"><ele>22.0</ele><time>2026-04-10T10:46:45.002Z</time></trkpt><trkpt lat="45.56881852394749" lon="11.927721927311786"><ele>22.0</ele><time>2026-04-10T10:46:46.002Z</time></trkpt><trkpt lat="45.56874680003967" lon="11.92769264256264"><ele>22.0</ele><time>2026-04-10T10:46:47.002Z</time></trkpt><trkpt lat="45.568675308843254" lon="11.92765731476676"><ele>22.0</ele><time>2026-04-10T10:46:48.002Z</time></trkpt><trkpt lat="45.56860758415551" lon="11.927624933133023"><ele>22.0</ele><time>2026-04-10T10:46:49.002Z</time></trkpt><trkpt lat="45.56853732108398" lon="11.927598847215926"><ele>22.0</ele><time>2026-04-10T10:46:50.002Z</time></trkpt><trkpt lat="45.56846626455925" lon="11.927570069383687"><ele>22.0</ele><time>2026-04-10T10:46:51.002Z</time></trkpt><trkpt lat="45.56839661173239" lon="11.92753610382214"><ele>22.0</ele><time>2026-04-10T10:46:52.002Z</time></trkpt><trkpt lat="45.56832367423095" lon="11.927507807355008"><ele>22.0</ele><time>2026-04-10T10:46:53.002Z</time></trkpt><trkpt lat="45.56825300453565" lon="11.927477041058227"><ele>22.0</ele><time>2026-04-10T10:46:54.002Z</time></trkpt><trkpt lat="45.56818235162365" lon="11.927445175988185"><ele>22.0</ele><time>2026-04-10T10:46:55.002Z</time></trkpt><trkpt lat="45.56810844352529" lon="11.927415482412462"><ele>22.0</ele><time>2026-04-10T10:46:56.002Z</time></trkpt><trkpt lat="45.568035131932106" lon="11.927386063862583"><ele>22.0</ele><time>2026-04-10T10:46:57.002Z</time></trkpt><trkpt lat="45.56796328873548" lon="11.927360289904925"><ele>22.0</ele><time>2026-04-10T10:46:58.002Z</time></trkpt><trkpt lat="45.567892412251624" lon="11.927333597779345"><ele>22.0</ele><time>2026-04-10T10:46:59Z</time></trkpt><trkpt lat="45.5678211543025" lon="11.927304364664039"><ele>22.0</ele><time>2026-04-10T10:47:00Z</time></trkpt><trkpt lat="45.56774994720093" lon="11.92727070950262"><ele>22.0</ele><time>2026-04-10T10:47:01Z</time></trkpt><trkpt lat="45.56767744287614" lon="11.927242626008724"><ele>22.0</ele><time>2026-04-10T10:47:02Z</time></trkpt><trkpt lat="45.56760522475881" lon="11.927215805201136"><ele>22.0</ele><time>2026-04-10T10:47:03Z</time></trkpt><trkpt lat="45.567534036116406" lon="11.92718712955919"><ele>22.0</ele><time>2026-04-10T10:47:04Z</time></trkpt><trkpt lat="45.567460995891786" lon="11.927155136628848"><ele>22.0</ele><time>2026-04-10T10:47:05Z</time></trkpt><trkpt lat="45.56738498527159" lon="11.927124229804111"><ele>22.0</ele><time>2026-04-10T10:47:06Z</time></trkpt><trkpt lat="45.56731077649381" lon="11.927099869223152"><ele>22.0</ele><time>2026-04-10T10:47:07Z</time></trkpt><trkpt lat="45.567240240355396" lon="11.927067048889239"><ele>22.0</ele><time>2026-04-10T10:47:08Z</time></trkpt><trkpt lat="45.567169263410044" lon="11.927037287347911"><ele>22.0</ele><time>2026-04-10T10:47:09Z</time></trkpt><trkpt lat="45.567094640423974" lon="11.927013997506657"><ele>22.0</ele><time>2026-04-10T10:47:10Z</time></trkpt><trkpt lat="45.56702101275662" lon="11.926986133360343"><ele>22.0</ele><time>2026-04-10T10:47:11Z</time></trkpt><trkpt lat="45.56694870090366" lon="11.926961214408566"><ele>22.0</ele><time>2026-04-10T10:47:12Z</time></trkpt><trkpt lat="45.56687575582009" lon="11.926931645117874"><ele>22.0</ele><time>2026-04-10T10:47:13Z</time></trkpt><trkpt lat="45.56680612732078" lon="11.926902875233768"><ele>22.0</ele><time>2026-04-10T10:47:14Z</time></trkpt><trkpt lat="45.566732642165896" lon="11.926877438161934"><ele>22.0</ele><time>2026-04-10T10:47:15Z</time></trkpt><trkpt lat="45.56666295484205" lon="11.926854623045154"><ele>22.0</ele><time>2026-04-10T10:47:16Z</time></trkpt><trkpt lat="45.56659168269783" lon="11.926833165893001"><ele>22.0</ele><time>2026-04-10T10:47:17Z</time></trkpt><trkpt lat="45.56652127318474" lon="11.926807689044846"><ele>22.0</ele><time>2026-04-10T10:47:18Z</time></trkpt><trkpt lat="45.56645352591154" lon="11.926777555919701"><ele>22.0</ele><time>2026-04-10T10:47:19Z</time></trkpt><trkpt lat="45.56638247346353" lon="11.926752885731526"><ele>22.0</ele><time>2026-04-10T10:47:20Z</time></trkpt><trkpt lat="45.566309902924615" lon="11.926722384171962"><ele>22.0</ele><time>2026-04-10T10:47:21Z</time></trkpt><trkpt lat="45.56623850183207" lon="11.926703003936906"><ele>21.857142857142858</ele><time>2026-04-10T10:47:22Z</time></trkpt><trkpt lat="45.56616754337372" lon="11.926681807341032"><ele>21.714285714285715</ele><time>2026-04-10T10:47:23Z</time></trkpt><trkpt lat="45.56609956459087" lon="11.926658678108684"><ele>21.57142857142857</ele><time>2026-04-10T10:47:24Z</time></trkpt><trkpt lat="45.56602831167345" lon="11.926628871398504"><ele>21.42857142857143</ele><time>2026-04-10T10:47:25Z</time></trkpt><trkpt lat="45.565957560443515" lon="11.926596688193147"><ele>21.285714285714285</ele><time>2026-04-10T10:47:26Z</time></trkpt><trkpt lat="45.56588647288202" lon="11.92657116211333"><ele>21.142857142857142</ele><time>2026-04-10T10:47:27Z</time></trkpt><trkpt lat="45.56581329775832" lon="11.926550354512283"><ele>21.0</ele><time>2026-04-10T10:47:28.001Z</time></trkpt><trkpt lat="45.56116776842913" lon="11.923947675872729"><ele>20.666666666666668</ele><time>2026-04-10T10:48:39.002Z</time></trkpt><trkpt lat="45.561091562186554" lon="11.923918384874355"><ele>20.333333333333332</ele><time>2026-04-10T10:48:40.002Z</time></trkpt><trkpt lat="45.56102096782928" lon="11.923891250885285"><ele>20.0</ele><time>2026-04-10T10:48:41.002Z</time></trkpt><trkpt lat="45.56094732781536" lon="11.92386275951712"><ele>19.666666666666664</ele><time>2026-04-10T10:48:42.002Z</time></trkpt><trkpt lat="45.56087469284571" lon="11.923834154787846"><ele>19.333333333333332</ele><time>2026-04-10T10:48:43.002Z</time></trkpt><trkpt lat="45.56080368534628" lon="11.923806190981967"><ele>19.0</ele><time>2026-04-10T10:48:44.002Z</time></trkpt><trkpt lat="45.5607335174795" lon="11.923778557830623"><ele>19.0</ele><time>2026-04-10T10:48:45.002Z</time></trkpt><trkpt lat="45.560665477533654" lon="11.92375176269701"><ele>19.0</ele><time>2026-04-10T10:48:46.002Z</time></trkpt><trkpt lat="45.56059873756935" lon="11.92372547950331"><ele>19.0</ele><time>2026-04-10T10:48:47.002Z</time></trkpt><trkpt lat="45.56053250159183" lon="11.92369939483338"><ele>19.0</ele><time>2026-04-10T10:48:48.002Z</time></trkpt><trkpt lat="45.56046487226982" lon="11.923672761461694"><ele>19.0</ele><time>2026-04-10T10:48:49.002Z</time></trkpt><trkpt lat="45.56039886308907" lon="11.923646661386174"><ele>19.0</ele><time>2026-04-10T10:48:50.002Z</time></trkpt><trkpt lat="45.5603340724743" lon="11.923621027739253"><ele>19.0</ele><time>2026-04-10T10:48:51.002Z</time></trkpt><trkpt lat="45.56027046374869" lon="11.92359586179824"><ele>19.166666666666664</ele><time>2026-04-10T10:48:52.002Z</time></trkpt><trkpt lat="45.56020603352646" lon="11.923570243807982"><ele>19.333333333333332</ele><time>2026-04-10T10:48:53.002Z</time></trkpt><trkpt lat="45.5601439806222" lon="11.923545215042664"><ele>19.5</ele><time>2026-04-10T10:48:54.002Z</time></trkpt><trkpt lat="45.56008067465624" lon="11.923519681049482"><ele>19.666666666666668</ele><time>2026-04-10T10:48:55.002Z</time></trkpt><trkpt lat="45.56001769732168" lon="11.923494279369892"><ele>19.833333333333336</ele><time>2026-04-10T10:48:56.002Z</time></trkpt><trkpt lat="45.559896351729265" lon="11.923445334948779"><ele>20.0</ele><time>2026-04-10T10:48:58.002Z</time></trkpt><trkpt lat="45.55983350608855" lon="11.923419986682761"><ele>19.833333333333336</ele><time>2026-04-10T10:48:59.002Z</time></trkpt><trkpt lat="45.55971775131933" lon="11.923373297368908"><ele>19.666666666666668</ele><time>2026-04-10T10:49:01.002Z</time></trkpt><trkpt lat="45.559657119912536" lon="11.92334884212671"><ele>19.5</ele><time>2026-04-10T10:49:02.002Z</time></trkpt><trkpt lat="45.55959214258654" lon="11.923322633747125"><ele>19.333333333333332</ele><time>2026-04-10T10:49:03.002Z</time></trkpt><trkpt lat="45.55952594571536" lon="11.923295933528083"><ele>19.166666666666664</ele><time>2026-04-10T10:49:04.002Z</time></trkpt><trkpt lat="45.55945728560071" lon="11.92326824175094"><ele>19.0</ele><time>2026-04-10T10:49:05Z</time></trkpt><trkpt lat="45.55938662145694" lon="11.923239739673416"><ele>19.0</ele><time>2026-04-10T10:49:06Z</time></trkpt><trkpt lat="45.55931728731982" lon="11.923211774069571"><ele>19.0</ele><time>2026-04-10T10:49:07Z</time></trkpt><trkpt lat="45.55925069040558" lon="11.923184912481075"><ele>19.0</ele><time>2026-04-10T10:49:08Z</time></trkpt><trkpt lat="45.55918284816307" lon="11.923157548632659"><ele>19.0</ele><time>2026-04-10T10:49:09Z</time></trkpt><trkpt lat="45.55911322429087" lon="11.923130458133745"><ele>19.0</ele><time>2026-04-10T10:49:10Z</time></trkpt><trkpt lat="45.55904450719168" lon="11.923104252899536"><ele>19.0</ele><time>2026-04-10T10:49:11Z</time></trkpt><trkpt lat="45.55897756700997" lon="11.923078725293225"><ele>19.0</ele><time>2026-04-10T10:49:12Z</time></trkpt><trkpt lat="45.55885423128127" lon="11.923351057416465"><ele>19.0</ele><time>2026-04-10T10:49:13Z</time></trkpt><trkpt lat="45.558781162859255" lon="11.923331782562572"><ele>19.0</ele><time>2026-04-10T10:49:14Z</time></trkpt><trkpt lat="45.55870671112385" lon="11.923311662858668"><ele>19.0</ele><time>2026-04-10T10:49:15Z</time></trkpt><trkpt lat="45.55863573802722" lon="11.923292991371822"><ele>19.0</ele><time>2026-04-10T10:49:16Z</time></trkpt><trkpt lat="45.5585622408381" lon="11.92327069361621"><ele>19.0</ele><time>2026-04-10T10:49:17Z</time></trkpt><trkpt lat="45.55848814274183" lon="11.923244867922508"><ele>19.0</ele><time>2026-04-10T10:49:18Z</time></trkpt><trkpt lat="45.558413122698404" lon="11.923223741446648"><ele>19.0</ele><time>2026-04-10T10:49:19Z</time></trkpt><trkpt lat="45.55833968029798" lon="11.923212484838464"><ele>19.0</ele><time>2026-04-10T10:49:20Z</time></trkpt><trkpt lat="45.558268319685645" lon="11.923209766055717"><ele>19.0</ele><time>2026-04-10T10:49:21Z</time></trkpt><trkpt lat="45.558194823759" lon="11.923219814117237"><ele>19.0</ele><time>2026-04-10T10:49:22Z</time></trkpt><trkpt lat="45.558125147021244" lon="11.923231200258684"><ele>19.0</ele><time>2026-04-10T10:49:23Z</time></trkpt><trkpt lat="45.558058400371834" lon="11.923238123053075"><ele>19.0</ele><time>2026-04-10T10:49:24Z</time></trkpt><trkpt lat="45.55799248547476" lon="11.92285975961885"><ele>19.0</ele><time>2026-04-10T10:49:25Z</time></trkpt><trkpt lat="45.55792480061604" lon="11.922858525533394"><ele>19.0</ele><time>2026-04-10T10:49:26Z</time></trkpt><trkpt lat="45.557820802287125" lon="11.922885956170818"><ele>19.0</ele><time>2026-04-10T10:49:28Z</time></trkpt><trkpt lat="45.5609433315833" lon="11.923393185243071"><ele>19.4</ele><time>2026-04-10T10:50:29.002Z</time></trkpt><trkpt lat="45.56087245585024" lon="11.923297772660126"><ele>19.799999999999997</ele><time>2026-04-10T10:50:31.002Z</time></trkpt><trkpt lat="45.5607996106243" lon="11.923191746086113"><ele>20.200000000000003</ele><time>2026-04-10T10:50:33.002Z</time></trkpt><trkpt lat="45.5607678941354" lon="11.923104989353927"><ele>20.6</ele><time>2026-04-10T10:50:34.002Z</time></trkpt><trkpt lat="45.56070976534164" lon="11.92296445437047"><ele>21.0</ele><time>2026-04-10T10:50:36.002Z</time></trkpt><trkpt lat="45.56063751798853" lon="11.92281887747062"><ele>21.0</ele><time>2026-04-10T10:50:38.002Z</time></trkpt><trkpt lat="45.56060023699621" lon="11.922738064762184"><ele>21.0</ele><time>2026-04-10T10:50:39.002Z</time></trkpt><trkpt lat="45.56052356613807" lon="11.922601376812267"><ele>21.0</ele><time>2026-04-10T10:50:41.002Z</time></trkpt><trkpt lat="45.56049275657855" lon="11.92250630018019"><ele>21.0</ele><time>2026-04-10T10:50:42.002Z</time></trkpt><trkpt lat="45.560469790490274" lon="11.922420560432695"><ele>21.0</ele><time>2026-04-10T10:50:43.002Z</time></trkpt><trkpt lat="45.560426136083855" lon="11.922251618042905"><ele>21.0</ele><time>2026-04-10T10:50:45.002Z</time></trkpt><trkpt lat="45.560398129208345" lon="11.922164748303537"><ele>21.0</ele><time>2026-04-10T10:50:46.002Z</time></trkpt><trkpt lat="45.56036022896533" lon="11.922089102547137"><ele>21.0</ele><time>2026-04-10T10:50:47.002Z</time></trkpt><trkpt lat="45.56031476821246" lon="11.922001673609795"><ele>21.0</ele><time>2026-04-10T10:50:48.002Z</time></trkpt><trkpt lat="45.56029838143319" lon="11.921903018452959"><ele>21.0</ele><time>2026-04-10T10:50:49.002Z</time></trkpt><trkpt lat="45.5602743174192" lon="11.92180887658963"><ele>21.0</ele><time>2026-04-10T10:50:50.002Z</time></trkpt><trkpt lat="45.56024445595152" lon="11.921712594876432"><ele>21.0</ele><time>2026-04-10T10:50:51.002Z</time></trkpt><trkpt lat="45.56021699720891" lon="11.92161696997156"><ele>21.0</ele><time>2026-04-10T10:50:52.002Z</time></trkpt><trkpt lat="45.560210626597495" lon="11.921514423862057"><ele>21.0</ele><time>2026-04-10T10:50:53.002Z</time></trkpt><trkpt lat="45.56019148387418" lon="11.921422252219118"><ele>21.0</ele><time>2026-04-10T10:50:54.002Z</time></trkpt><trkpt lat="45.560171511317165" lon="11.921333905487431"><ele>21.0</ele><time>2026-04-10T10:50:55.002Z</time></trkpt><trkpt lat="45.5601411334042" lon="11.921235278407647"><ele>21.0</ele><time>2026-04-10T10:50:56.002Z</time></trkpt><trkpt lat="45.560113878709736" lon="11.92114432977531"><ele>21.0</ele><time>2026-04-10T10:50:57.002Z</time></trkpt><trkpt lat="45.56009289310586" lon="11.921038453067236"><ele>21.0</ele><time>2026-04-10T10:50:58.002Z</time></trkpt><trkpt lat="45.56007275716031" lon="11.92093832112502"><ele>21.0</ele><time>2026-04-10T10:50:59.002Z</time></trkpt><trkpt lat="45.56005280115886" lon="11.920843127324963"><ele>21.0</ele><time>2026-04-10T10:51:00.002Z</time></trkpt><trkpt lat="45.56003211730125" lon="11.920757393856814"><ele>21.0</ele><time>2026-04-10T10:51:01.002Z</time></trkpt><trkpt lat="45.56001815289029" lon="11.92065926099898"><ele>21.0</ele><time>2026-04-10T10:51:02.002Z</time></trkpt><trkpt lat="45.559998910853984" lon="11.920561540776983"><ele>21.0</ele><time>2026-04-10T10:51:03.002Z</time></trkpt><trkpt lat="45.55997921150538" lon="11.92046169777934"><ele>21.0</ele><time>2026-04-10T10:51:04.002Z</time></trkpt><trkpt lat="45.559959648947434" lon="11.920364091515767"><ele>21.0</ele><time>2026-04-10T10:51:05.002Z</time></trkpt><trkpt lat="45.55991597688526" lon="11.920186525564496"><ele>21.0</ele><time>2026-04-10T10:51:07.002Z</time></trkpt><trkpt lat="45.5598945591609" lon="11.920086719224601"><ele>21.0</ele><time>2026-04-10T10:51:08.002Z</time></trkpt><trkpt lat="45.55988176139476" lon="11.919987945044616"><ele>21.0</ele><time>2026-04-10T10:51:09.002Z</time></trkpt><trkpt lat="45.55983951611667" lon="11.91980099920777"><ele>21.0</ele><time>2026-04-10T10:51:11Z</time></trkpt><trkpt lat="45.559816868882194" lon="11.919714325678878"><ele>21.0</ele><time>2026-04-10T10:51:12Z</time></trkpt><trkpt lat="45.55978826331712" lon="11.919536738187844"><ele>20.833333333333332</ele><time>2026-04-10T10:51:14Z</time></trkpt><trkpt lat="45.55974988295789" lon="11.9193599247233"><ele>20.666666666666668</ele><time>2026-04-10T10:51:16Z</time></trkpt><trkpt lat="45.559728653460446" lon="11.919271966820526"><ele>20.5</ele><time>2026-04-10T10:51:17Z</time></trkpt><trkpt lat="45.55970307284292" lon="11.91918385787117"><ele>20.333333333333336</ele><time>2026-04-10T10:51:18Z</time></trkpt><trkpt lat="45.55966093005526" lon="11.91902002542764"><ele>20.166666666666668</ele><time>2026-04-10T10:51:20Z</time></trkpt><trkpt lat="45.559641291917096" lon="11.918931723599304"><ele>20.0</ele><time>2026-04-10T10:51:21Z</time></trkpt><trkpt lat="45.55961942057914" lon="11.918846796732668"><ele>20.0</ele><time>2026-04-10T10:51:22Z</time></trkpt><trkpt lat="45.55961010319861" lon="11.918752919921234"><ele>20.0</ele><time>2026-04-10T10:51:23Z</time></trkpt><trkpt lat="45.559572484179185" lon="11.918584354670239"><ele>20.0</ele><time>2026-04-10T10:51:25Z</time></trkpt><trkpt lat="45.559548255541834" lon="11.918499403870921"><ele>20.0</ele><time>2026-04-10T10:51:26Z</time></trkpt><trkpt lat="45.559508575893105" lon="11.918341105709741"><ele>20.0</ele><time>2026-04-10T10:51:28Z</time></trkpt><trkpt lat="45.55842983509051" lon="11.913168895959302"><ele>20.142857142857142</ele><time>2026-04-10T10:52:29.001Z</time></trkpt><trkpt lat="45.55840604631667" lon="11.913079125448201"><ele>20.285714285714285</ele><time>2026-04-10T10:52:30.001Z</time></trkpt><trkpt lat="45.55838308820238" lon="11.912982223348166"><ele>20.42857142857143</ele><time>2026-04-10T10:52:31.001Z</time></trkpt><trkpt lat="45.558371748863614" lon="11.912890398513536"><ele>20.57142857142857</ele><time>2026-04-10T10:52:32.001Z</time></trkpt><trkpt lat="45.55834238943863" lon="11.912793470617316"><ele>20.714285714285715</ele><time>2026-04-10T10:52:33.001Z</time></trkpt><trkpt lat="45.558317120388054" lon="11.912696915989647"><ele>20.857142857142858</ele><time>2026-04-10T10:52:34.001Z</time></trkpt><trkpt lat="45.5582978018912" lon="11.91260241315585"><ele>21.0</ele><time>2026-04-10T10:52:35.001Z</time></trkpt><trkpt lat="45.55827108797453" lon="11.91251039347599"><ele>20.666666666666668</ele><time>2026-04-10T10:52:36.001Z</time></trkpt><trkpt lat="45.55825491061644" lon="11.912420173976056"><ele>20.333333333333332</ele><time>2026-04-10T10:52:37.001Z</time></trkpt><trkpt lat="45.55823365812814" lon="11.912327313701725"><ele>20.0</ele><time>2026-04-10T10:52:38.001Z</time></trkpt><trkpt lat="45.558214994465274" lon="11.9122251532772"><ele>19.666666666666664</ele><time>2026-04-10T10:52:39.001Z</time></trkpt><trkpt lat="45.558197645336556" lon="11.912136416497813"><ele>19.333333333333332</ele><time>2026-04-10T10:52:40.001Z</time></trkpt><trkpt lat="45.55817589263495" lon="11.912048833025294"><ele>19.0</ele><time>2026-04-10T10:52:41.002Z</time></trkpt><trkpt lat="45.558144755377064" lon="11.911880291162584"><ele>19.4</ele><time>2026-04-10T10:52:43.002Z</time></trkpt><trkpt lat="45.55810812613489" lon="11.911734880028497"><ele>19.799999999999997</ele><time>2026-04-10T10:52:45.002Z</time></trkpt><trkpt lat="45.55809283333631" lon="11.911640814554296"><ele>20.200000000000003</ele><time>2026-04-10T10:52:46.002Z</time></trkpt><trkpt lat="45.55807879627917" lon="11.911545624050804"><ele>20.6</ele><time>2026-04-10T10:52:47.002Z</time></trkpt><trkpt lat="45.558053580796646" lon="11.91139653906338"><ele>21.0</ele><time>2026-04-10T10:52:49.002Z</time></trkpt><trkpt lat="45.55801802712069" lon="11.911243814237613"><ele>21.0</ele><time>2026-04-10T10:52:51.002Z</time></trkpt><trkpt lat="45.55798806406656" lon="11.91108883658579"><ele>21.0</ele><time>2026-04-10T10:52:53.002Z</time></trkpt><trkpt lat="45.557945824252684" lon="11.91094243750041"><ele>21.0</ele><time>2026-04-10T10:52:55.002Z</time></trkpt><trkpt lat="45.55786506581086" lon="11.910872866519211"><ele>21.0</ele><time>2026-04-10T10:52:56.002Z</time></trkpt><trkpt lat="45.55787054882635" lon="11.910696307268362"><ele>21.0</ele><time>2026-04-10T10:52:58.002Z</time></trkpt><trkpt lat="45.557857270414125" lon="11.910547319583214"><ele>21.142857142857142</ele><time>2026-04-10T10:53:00.002Z</time></trkpt><trkpt lat="45.55785025669547" lon="11.910454961057164"><ele>21.285714285714285</ele><time>2026-04-10T10:53:02.002Z</time></trkpt><trkpt lat="45.55782529658941" lon="11.910367176951874"><ele>21.42857142857143</ele><time>2026-04-10T10:53:13.002Z</time></trkpt><trkpt lat="45.557811157469175" lon="11.910276643347132"><ele>21.57142857142857</ele><time>2026-04-10T10:53:16.002Z</time></trkpt><trkpt lat="45.55776002282798" lon="11.910222594223757"><ele>21.714285714285715</ele><time>2026-04-10T10:53:18Z</time></trkpt><trkpt lat="45.557749054133275" lon="11.910104556105914"><ele>21.857142857142858</ele><time>2026-04-10T10:53:20Z</time></trkpt><trkpt lat="45.557732659534906" lon="11.909964832789559"><ele>22.0</ele><time>2026-04-10T10:53:22Z</time></trkpt><trkpt lat="45.55768887288386" lon="11.90981369250895"><ele>22.0</ele><time>2026-04-10T10:53:24Z</time></trkpt><trkpt lat="45.55768350206779" lon="11.909719662732948"><ele>22.0</ele><time>2026-04-10T10:53:25Z</time></trkpt><trkpt lat="45.557645309139204" lon="11.90954088692404"><ele>22.0</ele><time>2026-04-10T10:53:27Z</time></trkpt><trkpt lat="45.5576245132027" lon="11.909454559766212"><ele>22.0</ele><time>2026-04-10T10:53:28Z</time></trkpt><trkpt lat="45.5557424724786" lon="11.906306779461943"><ele>21.400000000000002</ele><time>2026-04-10T10:54:29.001Z</time></trkpt><trkpt lat="45.55567335889411" lon="11.906422375733912"><ele>20.8</ele><time>2026-04-10T10:54:31.001Z</time></trkpt><trkpt lat="45.55560211199378" lon="11.906533866913255"><ele>20.2</ele><time>2026-04-10T10:54:33.001Z</time></trkpt><trkpt lat="45.55550904100746" lon="11.906629387006621"><ele>19.6</ele><time>2026-04-10T10:54:35.001Z</time></trkpt><trkpt lat="45.55545100539569" lon="11.90666542141848"><ele>19.0</ele><time>2026-04-10T10:54:36.001Z</time></trkpt><trkpt lat="45.555329527226505" lon="11.90669739411947"><ele>18.8</ele><time>2026-04-10T10:54:38.001Z</time></trkpt><trkpt lat="45.555208218595325" lon="11.906725203746115"><ele>18.599999999999998</ele><time>2026-04-10T10:54:40.001Z</time></trkpt><trkpt lat="45.55509619324476" lon="11.906755710821512"><ele>18.4</ele><time>2026-04-10T10:54:42.001Z</time></trkpt><trkpt lat="45.55502858959694" lon="11.906766217152146"><ele>18.2</ele><time>2026-04-10T10:54:43.001Z</time></trkpt><trkpt lat="45.55490878196999" lon="11.906771634160458"><ele>18.0</ele><time>2026-04-10T10:54:45.001Z</time></trkpt><trkpt lat="45.554798699720386" lon="11.906721092461224"><ele>18.0</ele><time>2026-04-10T10:54:47.001Z</time></trkpt><trkpt lat="45.55470170497576" lon="11.906645514563342"><ele>18.0</ele><time>2026-04-10T10:54:49.001Z</time></trkpt><trkpt lat="45.55461679523897" lon="11.906529705996308"><ele>18.0</ele><time>2026-04-10T10:54:51.001Z</time></trkpt><trkpt lat="45.55452849400267" lon="11.906411137421697"><ele>18.0</ele><time>2026-04-10T10:54:53.002Z</time></trkpt><trkpt lat="45.55447400162534" lon="11.906359311276919"><ele>18.0</ele><time>2026-04-10T10:54:54.002Z</time></trkpt><trkpt lat="45.554424287441805" lon="11.906301693383403"><ele>18.000000000000004</ele><time>2026-04-10T10:54:55.002Z</time></trkpt><trkpt lat="45.55437131635703" lon="11.90624492037629"><ele>18.0</ele><time>2026-04-10T10:54:56.002Z</time></trkpt><trkpt lat="45.55431765969047" lon="11.906183785406446"><ele>18.0</ele><time>2026-04-10T10:54:57.002Z</time></trkpt><trkpt lat="45.554264029108545" lon="11.906120713734941"><ele>18.0</ele><time>2026-04-10T10:54:58.002Z</time></trkpt><trkpt lat="45.55421246732108" lon="11.90605549185289"><ele>18.0</ele><time>2026-04-10T10:54:59.002Z</time></trkpt><trkpt lat="45.55416065254397" lon="11.90598748452659"><ele>18.000000000000004</ele><time>2026-04-10T10:55:00.002Z</time></trkpt><trkpt lat="45.554114043259865" lon="11.905920233705665"><ele>18.0</ele><time>2026-04-10T10:55:01.002Z</time></trkpt><trkpt lat="45.55406836995846" lon="11.905852635920718"><ele>17.857142857142858</ele><time>2026-04-10T10:55:02.002Z</time></trkpt><trkpt lat="45.55402111142136" lon="11.905783611077714"><ele>17.714285714285715</ele><time>2026-04-10T10:55:03.002Z</time></trkpt><trkpt lat="45.55397346497827" lon="11.905715072353592"><ele>17.57142857142857</ele><time>2026-04-10T10:55:04.002Z</time></trkpt><trkpt lat="45.55392751677316" lon="11.905645808780974"><ele>17.42857142857143</ele><time>2026-04-10T10:55:05.002Z</time></trkpt><trkpt lat="45.55388098580191" lon="11.905575010153818"><ele>17.285714285714285</ele><time>2026-04-10T10:55:06.002Z</time></trkpt><trkpt lat="45.55383601120953" lon="11.905503565336135"><ele>17.142857142857142</ele><time>2026-04-10T10:55:07.002Z</time></trkpt><trkpt lat="45.553789954835075" lon="11.905436041680494"><ele>17.0</ele><time>2026-04-10T10:55:08.002Z</time></trkpt><trkpt lat="45.55374373275615" lon="11.905373993350151"><ele>17.2</ele><time>2026-04-10T10:55:09.002Z</time></trkpt><trkpt lat="45.553695522928486" lon="11.905312744930336"><ele>17.4</ele><time>2026-04-10T10:55:10.002Z</time></trkpt><trkpt lat="45.55359623423648" lon="11.905224116213079"><ele>17.6</ele><time>2026-04-10T10:55:12.002Z</time></trkpt><trkpt lat="45.5534802711967" lon="11.905168644765228"><ele>17.8</ele><time>2026-04-10T10:55:14.002Z</time></trkpt><trkpt lat="45.55335260894416" lon="11.905182818678249"><ele>18.0</ele><time>2026-04-10T10:55:16.002Z</time></trkpt><trkpt lat="45.55329057740176" lon="11.90519975500552"><ele>18.0</ele><time>2026-04-10T10:55:17.002Z</time></trkpt><trkpt lat="45.5532262018802" lon="11.905216082463255"><ele>18.0</ele><time>2026-04-10T10:55:18.002Z</time></trkpt><trkpt lat="45.553103114565445" lon="11.905250717599715"><ele>18.0</ele><time>2026-04-10T10:55:20.002Z</time></trkpt><trkpt lat="45.55303982671853" lon="11.905271809236817"><ele>18.0</ele><time>2026-04-10T10:55:21.002Z</time></trkpt><trkpt lat="45.552978531810446" lon="11.905300632184504"><ele>18.0</ele><time>2026-04-10T10:55:22.002Z</time></trkpt><trkpt lat="45.55291584718384" lon="11.905334211127615"><ele>18.0</ele><time>2026-04-10T10:55:23Z</time></trkpt><trkpt lat="45.552849645171094" lon="11.905359662578869"><ele>18.0</ele><time>2026-04-10T10:55:24Z</time></trkpt><trkpt lat="45.55278619087329" lon="11.905380795156486"><ele>18.0</ele><time>2026-04-10T10:55:25Z</time></trkpt><trkpt lat="45.552722666213924" lon="11.90539311186502"><ele>18.0</ele><time>2026-04-10T10:55:26Z</time></trkpt><trkpt lat="45.552656557316176" lon="11.905396622918904"><ele>18.0</ele><time>2026-04-10T10:55:27Z</time></trkpt><trkpt lat="45.55258952227355" lon="11.905411613531955"><ele>18.0</ele><time>2026-04-10T10:55:28Z</time></trkpt><trkpt lat="45.549278798085844" lon="11.904986731972151"><ele>18.0</ele><time>2026-04-10T10:56:29.001Z</time></trkpt><trkpt lat="45.5492243378566" lon="11.905041967480763"><ele>18.0</ele><time>2026-04-10T10:56:30.001Z</time></trkpt><trkpt lat="45.54916826638671" lon="11.90508643907023"><ele>18.0</ele><time>2026-04-10T10:56:31.001Z</time></trkpt><trkpt lat="45.54911209725" lon="11.905136469812186"><ele>18.0</ele><time>2026-04-10T10:56:32.001Z</time></trkpt><trkpt lat="45.54900453560474" lon="11.905220792975838"><ele>18.0</ele><time>2026-04-10T10:56:34.001Z</time></trkpt><trkpt lat="45.548888993551984" lon="11.905268169953835"><ele>18.0</ele><time>2026-04-10T10:56:36.001Z</time></trkpt><trkpt lat="45.54877478687974" lon="11.90525218656194"><ele>18.0</ele><time>2026-04-10T10:56:38.001Z</time></trkpt><trkpt lat="45.548664042495105" lon="11.905238196550172"><ele>18.0</ele><time>2026-04-10T10:56:40.001Z</time></trkpt><trkpt lat="45.54856010790344" lon="11.905249073655845"><ele>18.0</ele><time>2026-04-10T10:56:42.001Z</time></trkpt><trkpt lat="45.54846491109231" lon="11.905311182842707"><ele>18.0</ele><time>2026-04-10T10:56:44.001Z</time></trkpt><trkpt lat="45.548384848298426" lon="11.905436288266614"><ele>18.0</ele><time>2026-04-10T10:56:46.001Z</time></trkpt><trkpt lat="45.548323724836315" lon="11.90558949687136"><ele>18.0</ele><time>2026-04-10T10:56:48.001Z</time></trkpt><trkpt lat="45.54826896292141" lon="11.905745996949422"><ele>18.0</ele><time>2026-04-10T10:56:50.001Z</time></trkpt><trkpt lat="45.548195685603005" lon="11.905884054160042"><ele>18.0</ele><time>2026-04-10T10:56:52.001Z</time></trkpt><trkpt lat="45.54814791447568" lon="11.905942861573196"><ele>18.0</ele><time>2026-04-10T10:56:53.001Z</time></trkpt><trkpt lat="45.54804675849565" lon="11.906039106710754"><ele>18.0</ele><time>2026-04-10T10:56:55.001Z</time></trkpt><trkpt lat="45.54794821694365" lon="11.906142186678986"><ele>18.4</ele><time>2026-04-10T10:56:57.001Z</time></trkpt><trkpt lat="45.54784795027405" lon="11.906233815530516"><ele>18.8</ele><time>2026-04-10T10:56:59.001Z</time></trkpt><trkpt lat="45.547746532009924" lon="11.90630002773889"><ele>19.2</ele><time>2026-04-10T10:57:01.001Z</time></trkpt><trkpt lat="45.54764774973027" lon="11.906359583994906"><ele>19.6</ele><time>2026-04-10T10:57:03.002Z</time></trkpt><trkpt lat="45.5475555000653" lon="11.90643868200996"><ele>20.0</ele><time>2026-04-10T10:57:05.002Z</time></trkpt><trkpt lat="45.54748971766704" lon="11.906568734216066"><ele>20.0</ele><time>2026-04-10T10:57:07.002Z</time></trkpt><trkpt lat="45.54744843197833" lon="11.906711062673466"><ele>20.0</ele><time>2026-04-10T10:57:09.002Z</time></trkpt><trkpt lat="45.547425482079866" lon="11.906847690195534"><ele>20.0</ele><time>2026-04-10T10:57:11.002Z</time></trkpt><trkpt lat="45.54737019643302" lon="11.906959975077516"><ele>20.0</ele><time>2026-04-10T10:57:13.002Z</time></trkpt><trkpt lat="45.547287495621916" lon="11.907036999401205"><ele>20.0</ele><time>2026-04-10T10:57:15.002Z</time></trkpt><trkpt lat="45.5471827562224" lon="11.907069207611192"><ele>20.0</ele><time>2026-04-10T10:57:17.002Z</time></trkpt><trkpt lat="45.54706355179653" lon="11.907080984152497"><ele>20.0</ele><time>2026-04-10T10:57:19.002Z</time></trkpt><trkpt lat="45.54694052080665" lon="11.907094542975273"><ele>20.0</ele><time>2026-04-10T10:57:21.002Z</time></trkpt><trkpt lat="45.54682609863867" lon="11.907117952888104"><ele>20.0</ele><time>2026-04-10T10:57:23.002Z</time></trkpt><trkpt lat="45.54670182037211" lon="11.907136987257642"><ele>20.0</ele><time>2026-04-10T10:57:25.002Z</time></trkpt><trkpt lat="45.54658649739675" lon="11.90717451563237"><ele>20.0</ele><time>2026-04-10T10:57:27.002Z</time></trkpt><trkpt lat="45.54652433709345" lon="11.907202120996285"><ele>20.0</ele><time>2026-04-10T10:57:28.002Z</time></trkpt><trkpt lat="45.544105645078574" lon="11.909341459543015"><ele>20.6</ele><time>2026-04-10T10:58:29.001Z</time></trkpt><trkpt lat="45.54401386878462" lon="11.909453320510396"><ele>21.2</ele><time>2026-04-10T10:58:31.001Z</time></trkpt><trkpt lat="45.54394797225178" lon="11.909594956867664"><ele>21.799999999999997</ele><time>2026-04-10T10:58:33.001Z</time></trkpt><trkpt lat="45.543928034671254" lon="11.909682688122999"><ele>22.4</ele><time>2026-04-10T10:58:34.001Z</time></trkpt><trkpt lat="45.5438949512627" lon="11.909827005883972"><ele>23.0</ele><time>2026-04-10T10:58:36.001Z</time></trkpt><trkpt lat="45.54382872703314" lon="11.909947873035973"><ele>23.0</ele><time>2026-04-10T10:58:38.001Z</time></trkpt><trkpt lat="45.54372955579057" lon="11.909990170562113"><ele>23.0</ele><time>2026-04-10T10:58:40.001Z</time></trkpt><trkpt lat="45.54361468716629" lon="11.909985835033211"><ele>23.0</ele><time>2026-04-10T10:58:42.001Z</time></trkpt><trkpt lat="45.54350268516355" lon="11.909945714527913"><ele>23.0</ele><time>2026-04-10T10:58:44.001Z</time></trkpt><trkpt lat="45.543400393141624" lon="11.90986968434044"><ele>23.0</ele><time>2026-04-10T10:58:46.001Z</time></trkpt><trkpt lat="45.543286579721766" lon="11.909808396585355"><ele>22.0</ele><time>2026-04-10T10:58:48.001Z</time></trkpt><trkpt lat="45.54317602389217" lon="11.909759252078649"><ele>21.0</ele><time>2026-04-10T10:58:50.001Z</time></trkpt><trkpt lat="45.54306673217657" lon="11.90974882592964"><ele>20.0</ele><time>2026-04-10T10:58:52.001Z</time></trkpt><trkpt lat="45.542967812095185" lon="11.909804149264865"><ele>19.0</ele><time>2026-04-10T10:58:54.001Z</time></trkpt><trkpt lat="45.542889588460675" lon="11.909921416281218"><ele>18.0</ele><time>2026-04-10T10:58:56.001Z</time></trkpt><trkpt lat="45.54281785976591" lon="11.910051790911831"><ele>18.2</ele><time>2026-04-10T10:58:58.001Z</time></trkpt><trkpt lat="45.542730869815394" lon="11.910158932870022"><ele>18.4</ele><time>2026-04-10T10:59:00.001Z</time></trkpt><trkpt lat="45.54263158604955" lon="11.91023468821881"><ele>18.599999999999998</ele><time>2026-04-10T10:59:02.001Z</time></trkpt><trkpt lat="45.54255974847906" lon="11.910299336529164"><ele>18.8</ele><time>2026-04-10T10:59:04.001Z</time></trkpt><trkpt lat="45.54247733664" lon="11.910287005463259"><ele>19.0</ele><time>2026-04-10T10:59:06.001Z</time></trkpt><trkpt lat="45.54240182506729" lon="11.910265321474537"><ele>19.0</ele><time>2026-04-10T10:59:08.002Z</time></trkpt><trkpt lat="45.5423231822825" lon="11.910284077953976"><ele>19.0</ele><time>2026-04-10T10:59:10.002Z</time></trkpt><trkpt lat="45.54224300962103" lon="11.910262307400677"><ele>19.0</ele><time>2026-04-10T10:59:12.002Z</time></trkpt><trkpt lat="45.542156259786715" lon="11.910225956145016"><ele>19.0</ele><time>2026-04-10T10:59:14.002Z</time></trkpt><trkpt lat="45.5420679587781" lon="11.910181545162356"><ele>19.0</ele><time>2026-04-10T10:59:16.002Z</time></trkpt><trkpt lat="45.54197064617184" lon="11.910150196599519"><ele>19.0</ele><time>2026-04-10T10:59:18.002Z</time></trkpt><trkpt lat="45.541876108246306" lon="11.910115734384227"><ele>19.0</ele><time>2026-04-10T10:59:20.002Z</time></trkpt><trkpt lat="45.54179394067077" lon="11.910102615850894"><ele>19.0</ele><time>2026-04-10T10:59:22.002Z</time></trkpt><trkpt lat="45.54174981309581" lon="11.910186040939402"><ele>19.0</ele><time>2026-04-10T10:59:24.002Z</time></trkpt><trkpt lat="45.54172095010216" lon="11.910307084950286"><ele>19.0</ele><time>2026-04-10T10:59:26.002Z</time></trkpt><trkpt lat="45.541697213478955" lon="11.910413989089829"><ele>19.0</ele><time>2026-04-10T10:59:28.002Z</time></trkpt><trkpt lat="45.540587109788824" lon="11.9096353677305"><ele>19.0</ele><time>2026-04-10T11:00:29.001Z</time></trkpt><trkpt lat="45.54050786949253" lon="11.90951273471479"><ele>19.0</ele><time>2026-04-10T11:00:31.001Z</time></trkpt><trkpt lat="45.54045924620859" lon="11.90944108757879"><ele>19.0</ele><time>2026-04-10T11:00:32.001Z</time></trkpt><trkpt lat="45.540412160386936" lon="11.90936655645293"><ele>19.0</ele><time>2026-04-10T11:00:33.001Z</time></trkpt><trkpt lat="45.54037003444179" lon="11.909290698347853"><ele>19.0</ele><time>2026-04-10T11:00:34.001Z</time></trkpt><trkpt lat="45.540303113989744" lon="11.90919449172417"><ele>19.0</ele><time>2026-04-10T11:00:36.001Z</time></trkpt><trkpt lat="45.540246620652105" lon="11.9091112075624"><ele>19.0</ele><time>2026-04-10T11:00:38.001Z</time></trkpt><trkpt lat="45.54016055093641" lon="11.90898805546455"><ele>19.0</ele><time>2026-04-10T11:00:40.001Z</time></trkpt><trkpt lat="45.54011075735577" lon="11.908908748846853"><ele>19.0</ele><time>2026-04-10T11:00:41.001Z</time></trkpt><trkpt lat="45.540065561530035" lon="11.908833869403699"><ele>19.0</ele><time>2026-04-10T11:00:42.001Z</time></trkpt><trkpt lat="45.54001723107211" lon="11.908759468269878"><ele>19.0</ele><time>2026-04-10T11:00:43.001Z</time></trkpt><trkpt lat="45.5399777000803" lon="11.908671515681363"><ele>19.0</ele><time>2026-04-10T11:00:44.001Z</time></trkpt><trkpt lat="45.53994377058924" lon="11.908582761865508"><ele>19.0</ele><time>2026-04-10T11:00:45.001Z</time></trkpt><trkpt lat="45.53992246930253" lon="11.908485514310122"><ele>19.0</ele><time>2026-04-10T11:00:46.001Z</time></trkpt><trkpt lat="45.539912054282986" lon="11.908394326344414"><ele>19.0</ele><time>2026-04-10T11:00:47.001Z</time></trkpt><trkpt lat="45.53990960040587" lon="11.908298159667707"><ele>19.0</ele><time>2026-04-10T11:00:48.001Z</time></trkpt><trkpt lat="45.53992402420206" lon="11.908196108479219"><ele>19.0</ele><time>2026-04-10T11:00:49.001Z</time></trkpt><trkpt lat="45.53994183249719" lon="11.908094093308948"><ele>19.0</ele><time>2026-04-10T11:00:50.001Z</time></trkpt><trkpt lat="45.53996108166635" lon="11.907995448919387"><ele>19.0</ele><time>2026-04-10T11:00:51.001Z</time></trkpt><trkpt lat="45.53998996354203" lon="11.907894633385798"><ele>19.166666666666664</ele><time>2026-04-10T11:00:52.001Z</time></trkpt><trkpt lat="45.540016867436634" lon="11.907788589189867"><ele>19.333333333333332</ele><time>2026-04-10T11:00:53.001Z</time></trkpt><trkpt lat="45.54003737848112" lon="11.90768538861638"><ele>19.5</ele><time>2026-04-10T11:00:54.001Z</time></trkpt><trkpt lat="45.54006074401275" lon="11.907587038952185"><ele>19.666666666666668</ele><time>2026-04-10T11:00:55.001Z</time></trkpt><trkpt lat="45.54008681078814" lon="11.90748324900829"><ele>19.833333333333336</ele><time>2026-04-10T11:00:56.001Z</time></trkpt><trkpt lat="45.540111012321056" lon="11.907374772575142"><ele>20.0</ele><time>2026-04-10T11:00:57.001Z</time></trkpt><trkpt lat="45.54013296330666" lon="11.907266004513968"><ele>20.0</ele><time>2026-04-10T11:00:58.001Z</time></trkpt><trkpt lat="45.540159289132795" lon="11.907166254402298"><ele>20.0</ele><time>2026-04-10T11:00:59.001Z</time></trkpt><trkpt lat="45.540183128810355" lon="11.90706192341025"><ele>20.0</ele><time>2026-04-10T11:01:00.001Z</time></trkpt><trkpt lat="45.54020757690289" lon="11.906958155152218"><ele>20.0</ele><time>2026-04-10T11:01:01.001Z</time></trkpt><trkpt lat="45.540233555285305" lon="11.906858389821624"><ele>20.0</ele><time>2026-04-10T11:01:02.001Z</time></trkpt><trkpt lat="45.5402590263537" lon="11.906759416126054"><ele>20.0</ele><time>2026-04-10T11:01:03.001Z</time></trkpt><trkpt lat="45.54028049324623" lon="11.906658892768158"><ele>20.0</ele><time>2026-04-10T11:01:04.001Z</time></trkpt><trkpt lat="45.5403030589892" lon="11.90656042206435"><ele>20.0</ele><time>2026-04-10T11:01:05.001Z</time></trkpt><trkpt lat="45.54032387250133" lon="11.906465138607341"><ele>20.0</ele><time>2026-04-10T11:01:06.001Z</time></trkpt><trkpt lat="45.540347311459406" lon="11.906367562313523"><ele>20.0</ele><time>2026-04-10T11:01:07.001Z</time></trkpt><trkpt lat="45.540374513930296" lon="11.906273137964863"><ele>20.0</ele><time>2026-04-10T11:01:08.001Z</time></trkpt><trkpt lat="45.540400772576774" lon="11.906179602127422"><ele>20.0</ele><time>2026-04-10T11:01:09.001Z</time></trkpt><trkpt lat="45.54042427080021" lon="11.906084891354915"><ele>20.0</ele><time>2026-04-10T11:01:10.002Z</time></trkpt><trkpt lat="45.54044621275045" lon="11.905991412127921"><ele>19.666666666666668</ele><time>2026-04-10T11:01:11.002Z</time></trkpt><trkpt lat="45.54047401748513" lon="11.90590125702413"><ele>19.333333333333336</ele><time>2026-04-10T11:01:12.002Z</time></trkpt><trkpt lat="45.540499583655254" lon="11.905808170784693"><ele>19.0</ele><time>2026-04-10T11:01:13.002Z</time></trkpt><trkpt lat="45.54052812865393" lon="11.905715538681113"><ele>18.666666666666668</ele><time>2026-04-10T11:01:14.002Z</time></trkpt><trkpt lat="45.540553262673626" lon="11.905622885240996"><ele>18.333333333333332</ele><time>2026-04-10T11:01:15.002Z</time></trkpt><trkpt lat="45.54060569022681" lon="11.905443400461962"><ele>18.0</ele><time>2026-04-10T11:01:17.002Z</time></trkpt><trkpt lat="45.54063130635205" lon="11.90534750254128"><ele>18.0</ele><time>2026-04-10T11:01:18.002Z</time></trkpt><trkpt lat="45.54065890521071" lon="11.905257898034437"><ele>18.0</ele><time>2026-04-10T11:01:19.002Z</time></trkpt><trkpt lat="45.54068537980497" lon="11.905166464882322"><ele>18.0</ele><time>2026-04-10T11:01:20.002Z</time></trkpt><trkpt lat="45.54071118108572" lon="11.905073917442742"><ele>18.0</ele><time>2026-04-10T11:01:21.002Z</time></trkpt><trkpt lat="45.54076351460496" lon="11.904940422913027"><ele>18.0</ele><time>2026-04-10T11:01:23.002Z</time></trkpt><trkpt lat="45.54084259538071" lon="11.904865935829521"><ele>18.0</ele><time>2026-04-10T11:01:27.002Z</time></trkpt><trkpt lat="45.541615420066336" lon="11.900460273590658"><ele>18.000000000000004</ele><time>2026-04-10T11:02:29.001Z</time></trkpt><trkpt lat="45.541634812840485" lon="11.900359898820595"><ele>18.0</ele><time>2026-04-10T11:02:30.001Z</time></trkpt><trkpt lat="45.54165536743246" lon="11.900258945787403"><ele>18.0</ele><time>2026-04-10T11:02:31.001Z</time></trkpt><trkpt lat="45.541670762824644" lon="11.900161406484342"><ele>18.0</ele><time>2026-04-10T11:02:32.001Z</time></trkpt><trkpt lat="45.54168800096366" lon="11.900071659969829"><ele>18.0</ele><time>2026-04-10T11:02:33.001Z</time></trkpt><trkpt lat="45.541704233156125" lon="11.899978069665098"><ele>18.000000000000004</ele><time>2026-04-10T11:02:34.001Z</time></trkpt><trkpt lat="45.54172091406625" lon="11.899879328304008"><ele>18.0</ele><time>2026-04-10T11:02:35.001Z</time></trkpt><trkpt lat="45.541739190779026" lon="11.89978119162246"><ele>18.000000000000004</ele><time>2026-04-10T11:02:36.001Z</time></trkpt><trkpt lat="45.54175335848851" lon="11.899683648261478"><ele>18.0</ele><time>2026-04-10T11:02:37.001Z</time></trkpt><trkpt lat="45.54176625740054" lon="11.8995865236104"><ele>18.0</ele><time>2026-04-10T11:02:38.001Z</time></trkpt><trkpt lat="45.541784352643326" lon="11.899490071074476"><ele>18.0</ele><time>2026-04-10T11:02:39.001Z</time></trkpt><trkpt lat="45.54180111807438" lon="11.899390577197172"><ele>18.0</ele><time>2026-04-10T11:02:40.001Z</time></trkpt><trkpt lat="45.541817470078044" lon="11.899289725215247"><ele>18.000000000000004</ele><time>2026-04-10T11:02:41.001Z</time></trkpt><trkpt lat="45.54183739523951" lon="11.899188077314522"><ele>18.0</ele><time>2026-04-10T11:02:42.001Z</time></trkpt><trkpt lat="45.54185492572063" lon="11.899095039267284"><ele>18.28571428571429</ele><time>2026-04-10T11:02:43.001Z</time></trkpt><trkpt lat="45.54186248717542" lon="11.89899755511793"><ele>18.571428571428573</ele><time>2026-04-10T11:02:44.001Z</time></trkpt><trkpt lat="45.54187657159656" lon="11.898897544202914"><ele>18.857142857142858</ele><time>2026-04-10T11:02:45.001Z</time></trkpt><trkpt lat="45.54189147598179" lon="11.898799553415252"><ele>19.142857142857146</ele><time>2026-04-10T11:02:46.001Z</time></trkpt><trkpt lat="45.541894110367615" lon="11.89870445588727"><ele>19.42857142857143</ele><time>2026-04-10T11:02:47.001Z</time></trkpt><trkpt lat="45.54189665212006" lon="11.898597469908157"><ele>19.714285714285715</ele><time>2026-04-10T11:02:48.001Z</time></trkpt><trkpt lat="45.54190181077595" lon="11.898487926032105"><ele>20.0</ele><time>2026-04-10T11:02:49.001Z</time></trkpt><trkpt lat="45.54189724245836" lon="11.898388126062379"><ele>20.0</ele><time>2026-04-10T11:02:50.001Z</time></trkpt><trkpt lat="45.54190024543048" lon="11.898285993621428"><ele>20.0</ele><time>2026-04-10T11:02:51.001Z</time></trkpt><trkpt lat="45.54189567422442" lon="11.89818855398002"><ele>20.0</ele><time>2026-04-10T11:02:52.001Z</time></trkpt><trkpt lat="45.54189428013894" lon="11.898076946605576"><ele>20.0</ele><time>2026-04-10T11:02:53.001Z</time></trkpt><trkpt lat="45.54188491564989" lon="11.897977610860643"><ele>20.0</ele><time>2026-04-10T11:02:54.001Z</time></trkpt><trkpt lat="45.54187381999149" lon="11.89787437491511"><ele>20.0</ele><time>2026-04-10T11:02:55.001Z</time></trkpt><trkpt lat="45.54185966106419" lon="11.89777791360947"><ele>20.0</ele><time>2026-04-10T11:02:56.001Z</time></trkpt><trkpt lat="45.54184934266644" lon="11.89768064183482"><ele>20.142857142857142</ele><time>2026-04-10T11:02:57.001Z</time></trkpt><trkpt lat="45.54183835334509" lon="11.897577196654455"><ele>20.285714285714285</ele><time>2026-04-10T11:02:58.001Z</time></trkpt><trkpt lat="45.541829706214514" lon="11.897486078207294"><ele>20.42857142857143</ele><time>2026-04-10T11:02:59.001Z</time></trkpt><trkpt lat="45.54181293211025" lon="11.897389715047252"><ele>20.57142857142857</ele><time>2026-04-10T11:03:00.001Z</time></trkpt><trkpt lat="45.54180210660902" lon="11.897294243405742"><ele>20.714285714285715</ele><time>2026-04-10T11:03:01.001Z</time></trkpt><trkpt lat="45.541780489377274" lon="11.897190149075813"><ele>20.857142857142858</ele><time>2026-04-10T11:03:02.001Z</time></trkpt><trkpt lat="45.54177041927525" lon="11.897091974424237"><ele>21.0</ele><time>2026-04-10T11:03:03.001Z</time></trkpt><trkpt lat="45.54175484370412" lon="11.896997531847736"><ele>21.0</ele><time>2026-04-10T11:03:04.001Z</time></trkpt><trkpt lat="45.541732799514584" lon="11.89690365821746"><ele>21.0</ele><time>2026-04-10T11:03:05.001Z</time></trkpt><trkpt lat="45.54170907604027" lon="11.89681819858648"><ele>21.0</ele><time>2026-04-10T11:03:06.001Z</time></trkpt><trkpt lat="45.541687612807905" lon="11.896725689990129"><ele>21.0</ele><time>2026-04-10T11:03:07.001Z</time></trkpt><trkpt lat="45.54166983294012" lon="11.89663188471661"><ele>21.0</ele><time>2026-04-10T11:03:08.001Z</time></trkpt><trkpt lat="45.54164328521514" lon="11.896536697445532"><ele>21.0</ele><time>2026-04-10T11:03:09.002Z</time></trkpt><trkpt lat="45.54161810215952" lon="11.896440619803927"><ele>21.0</ele><time>2026-04-10T11:03:10.002Z</time></trkpt><trkpt lat="45.54159085522462" lon="11.896345117700367"><ele>21.0</ele><time>2026-04-10T11:03:11.002Z</time></trkpt><trkpt lat="45.54156710219553" lon="11.896250995591448"><ele>21.0</ele><time>2026-04-10T11:03:12.002Z</time></trkpt><trkpt lat="45.541541311375646" lon="11.896158009972206"><ele>21.0</ele><time>2026-04-10T11:03:13.002Z</time></trkpt><trkpt lat="45.54150583788983" lon="11.896057256496341"><ele>21.0</ele><time>2026-04-10T11:03:14.002Z</time></trkpt><trkpt lat="45.541476343220346" lon="11.895965868589931"><ele>21.0</ele><time>2026-04-10T11:03:15.002Z</time></trkpt><trkpt lat="45.541439658602265" lon="11.895882679958843"><ele>21.0</ele><time>2026-04-10T11:03:16.002Z</time></trkpt><trkpt lat="45.54139923919997" lon="11.895798846838808"><ele>21.0</ele><time>2026-04-10T11:03:17.002Z</time></trkpt><trkpt lat="45.54136982963938" lon="11.895706014721377"><ele>21.0</ele><time>2026-04-10T11:03:18.002Z</time></trkpt><trkpt lat="45.54134114382401" lon="11.895603615949504"><ele>21.0</ele><time>2026-04-10T11:03:19.002Z</time></trkpt><trkpt lat="45.54130483441172" lon="11.895509991196263"><ele>21.0</ele><time>2026-04-10T11:03:20.002Z</time></trkpt><trkpt lat="45.54127503378439" lon="11.895419203052843"><ele>21.0</ele><time>2026-04-10T11:03:21.002Z</time></trkpt><trkpt lat="45.54124558196766" lon="11.895334134095604"><ele>21.0</ele><time>2026-04-10T11:03:22.002Z</time></trkpt><trkpt lat="45.54118899604817" lon="11.89514801391921"><ele>21.0</ele><time>2026-04-10T11:03:24.002Z</time></trkpt><trkpt lat="45.54116085535673" lon="11.895055449116567"><ele>20.75</ele><time>2026-04-10T11:03:25.002Z</time></trkpt><trkpt lat="45.541136319063845" lon="11.894962691207118"><ele>20.5</ele><time>2026-04-10T11:03:26.002Z</time></trkpt><trkpt lat="45.541103780018304" lon="11.894864773244532"><ele>20.25</ele><time>2026-04-10T11:03:27.002Z</time></trkpt><trkpt lat="45.54107599338252" lon="11.894775646177774"><ele>20.0</ele><time>2026-04-10T11:03:28.002Z</time></trkpt><trkpt lat="45.54140948625598" lon="11.888936991798445"><ele>20.0</ele><time>2026-04-10T11:04:29.001Z</time></trkpt><trkpt lat="45.54143592507152" lon="11.88883336701141"><ele>20.0</ele><time>2026-04-10T11:04:30.001Z</time></trkpt><trkpt lat="45.541458061001165" lon="11.888741018597452"><ele>20.0</ele><time>2026-04-10T11:04:31.001Z</time></trkpt><trkpt lat="45.541481698202944" lon="11.888635738604137"><ele>20.0</ele><time>2026-04-10T11:04:32.001Z</time></trkpt><trkpt lat="45.541494822982365" lon="11.888533895516016"><ele>20.0</ele><time>2026-04-10T11:04:33.001Z</time></trkpt><trkpt lat="45.5415119937088" lon="11.888428113892044"><ele>20.0</ele><time>2026-04-10T11:04:34.001Z</time></trkpt><trkpt lat="45.541528346993815" lon="11.888323002875538"><ele>20.0</ele><time>2026-04-10T11:04:35.001Z</time></trkpt><trkpt lat="45.54154451217682" lon="11.888219099435661"><ele>20.0</ele><time>2026-04-10T11:04:36.001Z</time></trkpt><trkpt lat="45.54156566598217" lon="11.888114271853414"><ele>20.0</ele><time>2026-04-10T11:04:37.001Z</time></trkpt><trkpt lat="45.54158325595777" lon="11.888010278311521"><ele>20.0</ele><time>2026-04-10T11:04:38.001Z</time></trkpt><trkpt lat="45.541601891020896" lon="11.887903359506263"><ele>20.0</ele><time>2026-04-10T11:04:39.001Z</time></trkpt><trkpt lat="45.54162484131046" lon="11.887798518426626"><ele>20.0</ele><time>2026-04-10T11:04:40.001Z</time></trkpt><trkpt lat="45.54164997332145" lon="11.887690670756479"><ele>20.0</ele><time>2026-04-10T11:04:41.001Z</time></trkpt><trkpt lat="45.54167376281279" lon="11.887584307242916"><ele>20.0</ele><time>2026-04-10T11:04:42.001Z</time></trkpt><trkpt lat="45.5416930562282" lon="11.887479336347301"><ele>20.0</ele><time>2026-04-10T11:04:43.001Z</time></trkpt><trkpt lat="45.541714857587536" lon="11.887375272601929"><ele>20.0</ele><time>2026-04-10T11:04:44.001Z</time></trkpt><trkpt lat="45.54173151933994" lon="11.887268968270027"><ele>20.0</ele><time>2026-04-10T11:04:45.001Z</time></trkpt><trkpt lat="45.54174697287688" lon="11.887160312115027"><ele>20.0</ele><time>2026-04-10T11:04:46.001Z</time></trkpt><trkpt lat="45.541764477862316" lon="11.887053454618338"><ele>20.0</ele><time>2026-04-10T11:04:47.001Z</time></trkpt><trkpt lat="45.541784567276856" lon="11.886942616389282"><ele>20.0</ele><time>2026-04-10T11:04:48.001Z</time></trkpt><trkpt lat="45.541805222631424" lon="11.886834335314433"><ele>20.0</ele><time>2026-04-10T11:04:49.001Z</time></trkpt><trkpt lat="45.541819580904445" lon="11.886727300342793"><ele>20.0</ele><time>2026-04-10T11:04:50.001Z</time></trkpt><trkpt lat="45.54183860006548" lon="11.886625861599418"><ele>20.0</ele><time>2026-04-10T11:04:51.001Z</time></trkpt><trkpt lat="45.54186773716264" lon="11.886524691798492"><ele>20.0</ele><time>2026-04-10T11:04:52.001Z</time></trkpt><trkpt lat="45.541884644886444" lon="11.886417138005164"><ele>20.0</ele><time>2026-04-10T11:04:53.001Z</time></trkpt><trkpt lat="45.541905151134436" lon="11.886308780698746"><ele>20.0</ele><time>2026-04-10T11:04:54.001Z</time></trkpt><trkpt lat="45.541928747993005" lon="11.886202649988117"><ele>20.0</ele><time>2026-04-10T11:04:55.001Z</time></trkpt><trkpt lat="45.54194820100528" lon="11.886095814324246"><ele>20.0</ele><time>2026-04-10T11:04:56.001Z</time></trkpt><trkpt lat="45.541966589809945" lon="11.885989352518523"><ele>20.0</ele><time>2026-04-10T11:04:57.001Z</time></trkpt><trkpt lat="45.54198645664346" lon="11.885885226085614"><ele>20.0</ele><time>2026-04-10T11:04:58.001Z</time></trkpt><trkpt lat="45.54200899117706" lon="11.885782220736278"><ele>20.0</ele><time>2026-04-10T11:04:59.001Z</time></trkpt><trkpt lat="45.542023950322864" lon="11.885673677250976"><ele>20.0</ele><time>2026-04-10T11:05:00.001Z</time></trkpt><trkpt lat="45.5420464581994" lon="11.885574934595672"><ele>20.0</ele><time>2026-04-10T11:05:01.001Z</time></trkpt><trkpt lat="45.54206685134055" lon="11.88548025876231"><ele>20.0</ele><time>2026-04-10T11:05:02.001Z</time></trkpt><trkpt lat="45.542086943456496" lon="11.885377994672927"><ele>20.0</ele><time>2026-04-10T11:05:03.001Z</time></trkpt><trkpt lat="45.5420973664793" lon="11.88528527032092"><ele>20.0</ele><time>2026-04-10T11:05:04.001Z</time></trkpt><trkpt lat="45.54211438457117" lon="11.885180274629194"><ele>20.0</ele><time>2026-04-10T11:05:05.001Z</time></trkpt><trkpt lat="45.54212892989077" lon="11.885079799107558"><ele>20.0</ele><time>2026-04-10T11:05:06.001Z</time></trkpt><trkpt lat="45.542146893937215" lon="11.884982329012086"><ele>20.0</ele><time>2026-04-10T11:05:07.001Z</time></trkpt><trkpt lat="45.54216913154111" lon="11.884880718186219"><ele>20.0</ele><time>2026-04-10T11:05:08.001Z</time></trkpt><trkpt lat="45.54219282382153" lon="11.884783989498892"><ele>20.0</ele><time>2026-04-10T11:05:09.001Z</time></trkpt><trkpt lat="45.54221114113016" lon="11.884690666593487"><ele>20.0</ele><time>2026-04-10T11:05:10.001Z</time></trkpt><trkpt lat="45.542234988686836" lon="11.884591531835408"><ele>20.0</ele><time>2026-04-10T11:05:11.001Z</time></trkpt><trkpt lat="45.54226032455888" lon="11.884430381871475"><ele>20.0</ele><time>2026-04-10T11:05:13.002Z</time></trkpt><trkpt lat="45.54227559274424" lon="11.884312785222695"><ele>20.0</ele><time>2026-04-10T11:05:15.002Z</time></trkpt><trkpt lat="45.542350712937214" lon="11.884288066703354"><ele>20.0</ele><time>2026-04-10T11:05:17.002Z</time></trkpt><trkpt lat="45.54234876830957" lon="11.884178902365026"><ele>20.0</ele><time>2026-04-10T11:05:21.002Z</time></trkpt><trkpt lat="45.54227917006669" lon="11.8841481496435"><ele>20.0</ele><time>2026-04-10T11:05:23.002Z</time></trkpt><trkpt lat="45.54229886325666" lon="11.884012841912536"><ele>20.0</ele><time>2026-04-10T11:05:25.002Z</time></trkpt><trkpt lat="45.54234397404549" lon="11.883851987566437"><ele>20.0</ele><time>2026-04-10T11:05:27.002Z</time></trkpt><trkpt lat="45.54379869280828" lon="11.878331981122944"><ele>20.333333333333336</ele><time>2026-04-10T11:06:29.001Z</time></trkpt><trkpt lat="45.543863649891065" lon="11.878360042551668"><ele>20.666666666666668</ele><time>2026-04-10T11:06:30.001Z</time></trkpt><trkpt lat="45.54392892133398" lon="11.878383926711326"><ele>21.0</ele><time>2026-04-10T11:06:31.001Z</time></trkpt><trkpt lat="45.54399771201535" lon="11.878398962463532"><ele>21.333333333333332</ele><time>2026-04-10T11:06:32.001Z</time></trkpt><trkpt lat="45.54411323956519" lon="11.87845632095256"><ele>21.666666666666664</ele><time>2026-04-10T11:06:34.001Z</time></trkpt><trkpt lat="45.544211972400134" lon="11.878489013404996"><ele>22.0</ele><time>2026-04-10T11:06:36.001Z</time></trkpt><trkpt lat="45.54426828763065" lon="11.878536639368491"><ele>22.0</ele><time>2026-04-10T11:06:38.001Z</time></trkpt><trkpt lat="45.54424359095536" lon="11.87868365736696"><ele>22.0</ele><time>2026-04-10T11:06:40.001Z</time></trkpt><trkpt lat="45.54422284200271" lon="11.878769777811343"><ele>22.0</ele><time>2026-04-10T11:06:41.001Z</time></trkpt><trkpt lat="45.54420589519338" lon="11.878934036431078"><ele>22.0</ele><time>2026-04-10T11:06:43.001Z</time></trkpt><trkpt lat="45.544185102247056" lon="11.879096597226308"><ele>22.0</ele><time>2026-04-10T11:06:45.001Z</time></trkpt><trkpt lat="45.54415378585999" lon="11.87924960292783"><ele>21.8</ele><time>2026-04-10T11:06:47.001Z</time></trkpt><trkpt lat="45.54413352601092" lon="11.879404604057877"><ele>21.6</ele><time>2026-04-10T11:06:49.001Z</time></trkpt><trkpt lat="45.54410549617158" lon="11.879550776361777"><ele>21.400000000000002</ele><time>2026-04-10T11:06:51.001Z</time></trkpt><trkpt lat="45.544083260362505" lon="11.8797046560374"><ele>21.200000000000003</ele><time>2026-04-10T11:06:53.001Z</time></trkpt><trkpt lat="45.544042180496085" lon="11.879844954099866"><ele>21.0</ele><time>2026-04-10T11:06:55.001Z</time></trkpt><trkpt lat="45.544018735178284" lon="11.879985958710602"><ele>21.0</ele><time>2026-04-10T11:06:57.001Z</time></trkpt><trkpt lat="45.544034483977555" lon="11.880120247280086"><ele>20.0</ele><time>2026-04-10T11:06:59.001Z</time></trkpt><trkpt lat="45.544102334385585" lon="11.880181918580158"><ele>20.0</ele><time>2026-04-10T11:07:01.001Z</time></trkpt><trkpt lat="45.54416218096279" lon="11.880212693075219"><ele>20.0</ele><time>2026-04-10T11:07:04.001Z</time></trkpt></trkseg></trk></gpx>